[[{"header":{"parameterUnit":"m.s-1","parameterCategory":1,"la1":30.6,"la2":29.2853,"lo1":-89.7004,"lo2":-87.6739,"dy":0.0162,"dx":0.0183,"nx":112,"ny":82,"refTime":"2026-05-11T00:00:00:Z","depth":0,"parameterNumber":2,"parameterNumberName":"U-component_of_WINDS"},"data":[0.0,0.0,0.0,0.0,0.0,0.0,0.0,0.0,0.0,0.0,0.0,0.0,0.0,0.0,0.0,0.0,0.0,0.0,0.0,0.0,0.0,0.0,0.0,0.0,0.0,0.0,0.0,0.0,0.0,0.0,0.0,0.0,0.0,0.0,0.0,0.0,0.0,0.0,0.0,0.0,0.0,0.0,0.0,0.0,0.0,0.0,0.0,0.0,0.0,0.0,0.0,0.0,0.0,0.0,0.0,0.0,0.0,0.0,0.0,0.0,0.0,0.0,0.0,0.0,0.0,0.0,0.0,0.0,0.0,0.0,0.0,0.0,0.0,0.0,0.0,0.0,0.0,0.0,0.0,0.0,0.0,0.0,0.0,0.0,0.0,0.0,0.0,0.0,0.0,0.0,0.0,1.2665,1.509,1.607,1.4711,1.46,1.3399,1.0586,0.0,0.0,0.0,0.0,0.0,0.0,0.0,0.0,0.0,0.0,0.0,0.0,0.0,0.0,0.0,0.0,0.0,0.0,0.0,0.0,0.0,0.0,0.0,0.0,0.0,0.0,0.0,0.0,0.0,0.0,0.0,0.0,0.0,0.0,0.0,0.0,0.0,0.0,0.0,0.0,0.0,0.0,0.0,0.0,0.0,0.0,0.0,0.0,0.0,0.0,0.0,0.0,0.0,0.0,0.0,0.0,0.0,0.0,0.0,0.0,0.0,0.0,0.0,0.0,0.0,0.0,0.0,0.0,0.0,0.0,0.0,0.0,0.0,0.0,0.0,0.0,0.0,0.0,0.0,0.0,0.0,0.0,0.0,0.0,0.0,0.0,0.0,0.0,0.0,0.0,0.0,0.0,0.0,0.0,0.0,0.0,0.0,0.0,0.0,0.0,0.0,0.0,0.0,0.0,1.1478,1.4022,1.5675,1.607,1.4711,1.46,1.3399,1.0586,0.0,0.0,0.0,0.0,0.0,0.0,0.0,0.0,0.0,0.0,0.0,0.0,0.0,0.0,0.0,0.0,0.0,0.0,0.0,0.0,0.0,0.0,0.0,0.0,0.0,0.0,0.0,0.0,0.0,0.0,0.0,0.0,0.0,0.0,0.0,0.0,0.0,0.0,0.0,0.0,0.0,0.0,0.0,0.0,0.0,0.0,0.0,0.0,0.0,0.0,0.0,0.0,0.0,0.0,0.0,0.0,0.0,0.0,0.0,0.0,0.0,0.0,0.0,0.0,0.0,0.0,0.0,0.0,0.0,0.0,0.0,0.0,0.0,0.0,0.0,0.0,0.0,0.0,0.0,0.0,0.0,0.0,0.0,0.0,0.0,0.0,0.0,0.0,0.0,0.0,0.0,0.0,0.0,0.0,0.0,0.0,0.0,0.0,0.0,0.0,0.0,0.0,0.0,1.0842,1.2756,1.4411,1.5817,1.607,1.4711,1.46,1.3399,1.0586,0.9402,0.0,0.0,0.0,0.0,0.0,0.0,0.0,0.0,0.0,0.0,0.0,0.0,0.0,0.0,0.0,0.0,0.0,0.0,0.0,0.0,0.0,0.0,0.0,0.0,0.0,0.0,0.0,0.0,0.0,0.0,0.0,0.0,0.0,0.0,0.0,0.0,0.0,0.0,0.0,0.0,0.0,0.0,0.0,0.0,0.0,0.0,0.0,0.0,0.0,0.0,0.0,0.0,0.0,0.0,0.0,0.0,0.0,0.0,0.0,0.0,0.0,0.0,0.0,0.0,0.0,0.0,0.0,0.0,0.0,0.0,0.0,0.0,0.0,0.0,0.0,0.0,0.0,0.0,0.0,0.0,0.0,0.0,0.0,0.0,0.0,0.0,0.0,0.0,0.0,0.0,0.0,0.0,0.0,0.0,0.0,0.0,0.0,0.0,0.0,0.0,0.0,0.0,1.2392,1.3984,1.4537,1.5817,1.607,1.4711,1.4442,1.321,1.057,0.8928,0.0,0.0,0.0,0.0,0.0,0.0,0.0,0.0,0.0,0.0,0.0,0.0,0.0,0.0,0.0,0.0,0.0,0.0,0.0,0.0,0.0,0.0,0.0,0.0,0.0,0.0,0.0,0.0,0.0,0.0,0.0,0.0,0.0,0.0,0.0,0.0,0.0,0.0,0.0,0.0,0.0,0.0,0.0,0.0,0.0,0.0,0.0,0.0,0.0,0.0,0.0,0.0,0.0,0.0,0.0,0.0,0.0,0.0,0.0,0.0,0.0,0.0,0.0,0.0,0.0,0.0,0.0,0.0,0.0,0.0,0.0,0.0,0.0,0.0,0.0,0.0,0.0,0.0,0.0,0.0,0.0,0.0,0.0,0.0,0.0,0.0,0.0,0.0,0.0,0.0,0.0,0.0,0.0,0.0,0.0,0.0,0.0,0.0,0.0,0.0,0.0,0.0,1.283,1.4537,1.4584,1.5817,1.607,1.4711,1.3968,1.2672,1.0538,0.8501,0.0,0.0,0.0,0.0,0.0,0.0,0.0,0.0,0.0,0.0,0.0,0.0,0.0,0.0,0.0,0.0,0.0,0.0,0.0,0.0,0.0,0.0,0.0,0.0,0.0,0.0,0.0,0.0,0.0,0.0,0.0,0.0,0.0,0.0,0.0,0.0,0.0,0.0,0.0,0.0,0.0,0.0,0.0,0.0,0.0,0.0,0.0,0.0,0.0,0.0,0.0,0.0,0.0,0.0,0.0,0.0,0.0,0.0,0.0,0.0,0.0,0.0,0.0,0.0,0.0,0.0,0.0,0.0,0.0,0.0,0.0,0.0,0.0,0.0,0.0,0.0,0.0,0.0,0.0,0.0,0.0,0.0,0.0,0.0,0.0,0.0,0.0,0.0,0.0,0.0,0.0,0.0,0.0,0.0,0.0,0.0,0.0,0.0,0.0,0.0,0.0,0.0,1.2862,1.46,0.0,1.5817,1.607,1.4711,1.4347,1.3099,1.057,0.0,0.0,0.0,0.0,0.0,0.0,0.0,0.0,0.0,0.0,0.0,0.0,0.0,0.0,0.0,0.0,0.0,0.0,0.0,0.0,0.0,0.0,0.0,0.0,0.0,0.0,0.0,0.0,0.0,0.0,0.0,0.0,0.0,0.0,0.0,0.0,0.0,0.0,0.0,0.0,0.0,0.0,0.0,0.0,0.0,0.0,0.0,0.0,0.0,0.0,0.0,0.0,0.0,0.0,0.0,0.0,0.0,0.0,0.0,0.0,0.0,0.0,0.0,0.0,0.0,0.0,0.0,0.0,0.0,0.0,0.0,0.0,0.0,0.0,0.0,0.0,0.0,0.0,0.0,0.0,0.0,0.0,0.0,0.0,0.0,0.0,0.0,0.0,0.0,0.0,0.0,0.0,0.0,0.0,0.0,0.0,0.0,0.0,0.0,0.0,0.0,0.0,1.0507,1.2988,1.4679,0.0,1.5943,1.607,1.4711,1.4379,1.3146,1.057,0.0,0.0,0.0,0.0,0.0,0.0,0.0,0.0,0.0,0.0,0.0,0.0,0.0,0.0,0.0,0.0,0.0,0.0,0.0,0.0,0.0,0.0,0.0,0.0,0.0,0.0,0.0,0.0,0.0,0.0,0.0,0.0,0.0,0.0,0.0,0.0,0.0,0.0,0.0,0.0,0.0,0.0,0.0,0.0,0.0,0.0,0.0,0.0,0.0,0.0,0.0,0.0,0.0,0.0,0.0,0.0,0.0,0.0,0.0,0.0,0.0,0.0,0.0,0.0,0.0,0.0,0.0,0.0,0.0,0.0,0.0,0.0,0.0,0.0,0.0,0.0,0.0,0.0,0.0,0.0,0.0,0.0,0.0,0.0,0.0,0.0,0.0,0.0,0.0,0.0,0.0,0.0,0.0,0.0,0.0,0.0,0.0,0.0,0.0,0.0,0.0,0.0,1.114,1.3273,1.4853,1.5541,1.6212,1.607,1.4711,1.3937,1.2625,0.0,0.0,0.0,0.0,0.0,0.0,0.0,0.0,0.0,0.0,0.0,0.0,0.0,0.0,0.0,0.0,0.0,0.0,0.0,0.0,0.0,0.0,0.0,0.0,0.0,0.0,0.0,0.0,0.0,0.0,0.0,0.0,0.0,0.0,0.0,0.0,0.0,0.0,0.0,0.0,0.0,0.0,0.0,0.0,0.0,0.0,0.0,0.0,0.0,0.0,0.0,0.0,0.0,0.0,0.0,0.0,0.0,0.0,0.0,0.0,0.0,0.0,0.0,0.0,0.0,0.0,0.0,0.0,0.0,0.0,0.0,0.0,0.0,0.0,0.0,0.0,0.0,0.0,0.0,0.0,0.0,0.0,0.0,0.0,0.0,0.0,0.0,0.0,0.0,0.0,0.0,0.0,0.0,0.0,0.0,0.0,0.0,0.0,0.0,0.0,0.0,0.0,0.0,1.114,1.3273,1.4853,1.5541,1.6212,1.6259,1.5374,1.4663,1.3368,1.1233,0.0,0.0,0.0,0.0,0.0,0.0,0.0,0.0,0.0,0.0,0.0,0.0,0.0,0.0,0.0,0.0,0.0,0.0,0.0,0.0,0.0,0.0,0.0,0.0,0.0,0.0,0.0,0.0,0.0,0.0,0.0,0.0,0.0,0.0,0.0,0.0,0.0,0.0,0.0,0.0,0.0,0.0,0.0,0.0,0.0,0.0,0.0,0.0,0.0,0.0,0.0,0.0,0.0,0.0,0.0,0.0,0.0,0.0,0.0,0.0,0.0,0.0,0.0,0.0,0.0,0.0,0.0,0.0,0.0,0.0,0.0,0.0,0.0,0.0,0.0,0.0,0.0,0.0,0.0,0.0,0.0,0.0,0.0,0.0,0.0,0.0,0.0,0.0,0.0,0.0,0.0,0.0,0.0,0.0,0.0,0.0,0.0,0.0,0.0,0.0,0.0,0.0,1.1535,1.3447,1.4948,1.5896,1.637,1.6338,1.5668,1.4979,1.3684,1.1551,0.0,0.0,0.0,0.0,0.0,0.0,0.0,0.0,0.0,0.0,0.0,0.0,0.0,0.0,0.0,0.0,0.0,0.0,0.0,0.0,0.0,0.0,0.0,0.0,0.0,0.0,0.0,0.0,0.0,0.0,0.0,0.0,0.0,0.0,0.0,0.0,0.0,0.0,0.0,0.0,0.0,0.0,0.0,0.0,0.0,0.0,0.0,0.0,0.0,0.0,0.0,0.0,0.0,0.0,0.0,0.0,0.0,0.0,0.0,0.0,0.0,0.0,0.0,0.0,0.0,0.0,0.0,0.0,0.0,0.0,0.0,0.0,0.0,0.0,0.0,0.0,0.0,0.0,0.0,0.0,0.0,0.0,0.0,0.0,0.0,0.0,0.0,0.0,0.0,0.0,0.0,0.0,0.0,0.0,0.0,0.0,0.0,0.0,0.0,0.0,0.0,0.0,1.2151,1.3731,1.5122,1.6454,1.6596,1.6354,1.5738,1.5011,1.3747,1.1724,0.0,0.0,0.0,0.0,0.0,0.0,0.0,0.0,0.0,0.0,0.0,0.0,0.0,0.0,0.0,0.0,0.0,0.0,0.0,0.0,0.0,0.0,0.0,0.0,0.0,0.0,0.0,0.0,0.0,0.0,0.0,0.0,0.0,0.0,0.0,0.0,0.0,0.0,0.0,0.0,0.0,0.0,0.0,0.0,0.0,0.0,0.0,0.0,0.0,0.0,0.0,0.0,0.0,0.0,0.0,0.0,0.0,0.0,0.0,0.0,1.2106,0.0,0.0,0.0,0.0,0.0,0.0,0.0,0.0,0.0,0.0,0.0,0.0,0.0,0.0,0.0,0.0,0.0,0.0,0.0,0.0,0.0,0.0,0.0,0.0,0.0,0.0,0.0,0.0,0.0,0.0,0.0,0.0,0.0,0.0,0.0,0.0,0.0,0.0,0.0,0.0,0.0,1.2151,1.3731,1.5122,1.6454,1.6596,1.6533,1.6417,1.5295,1.4158,1.3115,1.0745,0.0,0.0,0.0,0.0,0.0,0.0,0.0,0.0,0.0,0.0,0.0,0.0,0.0,0.0,0.0,0.0,0.0,0.0,0.0,0.0,0.0,0.0,0.0,0.0,0.0,0.0,0.0,0.0,0.0,0.0,0.0,0.0,0.0,0.0,0.0,0.0,0.0,0.0,0.0,0.0,0.0,0.0,0.0,0.0,0.0,0.0,0.0,0.0,0.0,0.0,0.0,0.0,0.0,0.0,0.0,0.0,0.0,0.0,0.0,0.0,1.3501,0.0,0.0,0.0,0.0,0.0,0.0,0.0,0.0,0.0,0.0,0.0,0.0,0.0,0.0,0.0,0.0,0.0,0.0,0.0,0.0,0.0,0.0,0.0,0.0,0.0,0.0,0.0,0.0,0.0,0.0,0.0,0.0,0.0,0.0,0.0,0.0,0.0,0.0,0.0,0.0,1.2657,1.4205,1.5469,1.6486,1.6596,1.6596,1.6596,1.5675,1.4616,1.3557,1.1851,0.0,0.0,0.0,0.0,0.0,0.0,0.0,0.0,0.0,0.0,0.0,0.0,0.0,0.0,0.0,0.0,0.0,0.0,0.0,0.0,0.0,0.0,0.0,0.0,0.0,0.0,0.0,0.0,0.0,0.0,0.0,0.0,0.0,0.0,0.0,0.0,0.0,0.0,0.0,0.0,0.0,0.0,0.0,0.0,0.0,0.0,0.0,0.0,0.0,0.0,0.0,0.0,0.0,1.6315,1.6681,1.6517,1.6741,1.7233,1.792,1.7463,1.6071,1.4192,1.4865,0.0,0.0,0.0,0.0,0.0,0.0,0.0,0.0,0.0,0.0,0.0,0.0,0.0,0.0,0.0,0.0,0.0,0.0,0.0,0.0,0.0,0.0,0.0,0.0,1.4956,1.4458,1.2704,0.0,0.0,0.0,0.0,0.0,0.0,0.0,0.0,0.0,0.0,0.0,1.3241,1.4727,1.5848,1.6517,1.6596,1.6596,1.6596,1.5991,1.5043,1.3763,1.2941,1.1911,0.0,0.0,0.0,0.0,0.0,0.0,0.0,0.0,0.0,0.0,0.0,0.0,0.0,0.0,0.0,0.0,0.0,0.0,0.0,0.0,0.0,0.0,0.0,0.0,0.0,0.0,0.0,0.0,0.0,0.0,0.0,0.0,0.6776,0.6263,0.0,0.0,0.0,0.0,0.0,0.0,0.0,0.0,0.0,0.0,0.0,0.0,0.0,1.384,1.4258,1.6612,1.7795,1.7856,1.9118,1.9897,2.0217,2.0416,2.0943,2.1718,2.2398,0.0,1.6314,1.6417,0.0,0.0,0.0,0.0,0.0,0.0,0.0,0.0,0.0,0.0,0.0,0.0,0.0,0.0,0.0,0.0,0.0,0.0,0.0,0.0,0.0,0.0,1.6244,1.6323,1.6328,1.6249,0.0,1.5011,1.3794,1.2483,1.2151,0.0,0.0,0.0,0.0,0.0,0.0,0.0,1.3305,1.4727,1.5848,1.6517,1.6596,1.6596,1.6596,1.5991,1.5264,1.4505,1.3226,1.2135,1.1296,1.0617,0.0,0.0,0.0,0.0,0.0,0.0,0.0,0.0,0.0,0.0,0.0,0.0,0.0,0.0,0.0,0.0,0.0,0.0,0.0,0.0,0.0,0.0,0.0,0.0,0.0,0.0,0.0,0.0,0.0,0.6751,0.7872,0.798,0.888,0.9244,0.0,0.0,0.0,0.0,0.0,0.0,0.0,0.0,0.0,1.6051,1.6394,1.7088,1.8199,1.9222,2.0206,2.116,2.087,2.1486,2.2815,2.305,2.3369,2.3692,2.4103,2.3162,2.1263,1.9832,1.8357,1.686,0.0,0.0,0.0,0.0,1.6378,1.6249,1.6212,1.6417,1.6641,1.6297,0.0,0.0,0.0,0.0,0.0,0.0,0.0,0.0,0.0,0.0,1.7948,1.7892,1.7836,1.7792,1.7792,1.7334,1.6386,0.0,1.3937,1.3257,1.193,0.0,0.0,0.0,0.0,1.3557,1.4537,1.5548,1.6275,1.6565,1.6596,1.6596,1.6596,1.6338,1.588,1.5201,1.4198,1.3309,1.2609,1.1548,1.049,0.0,0.0,0.0,0.0,0.0,0.0,0.0,0.0,0.0,0.0,0.0,0.0,0.0,0.0,0.0,0.0,0.0,0.0,0.0,0.0,0.0,0.0,0.0,0.0,0.0,0.0,0.0,0.0,0.7695,0.891,0.9812,1.0524,1.0933,0.0,0.0,0.0,0.0,0.0,0.0,1.5327,1.539,1.6275,1.8158,1.8898,1.983,2.1063,2.1126,2.1816,2.313,2.2079,2.2393,2.4033,2.4691,2.5004,2.4987,2.513,2.5285,2.5313,2.3099,2.1211,1.9693,1.8723,1.8322,1.8396,1.9306,1.973,1.9745,1.9228,1.9194,1.9309,1.9142,1.8138,1.7018,1.6829,0.0,0.0,0.0,0.0,1.7309,1.8485,1.905,1.9302,1.9231,1.921,1.9198,1.9024,1.8977,1.8424,0.0,1.5738,1.5106,1.4189,0.0,0.0,0.0,0.0,1.5027,1.5557,1.6196,1.6596,1.6596,1.6596,1.6596,1.6596,1.6596,1.6244,1.5415,1.4845,1.4128,1.3273,1.2242,1.1356,1.0665,0.0,0.0,0.0,0.0,0.0,0.0,0.0,0.0,0.0,0.0,0.0,0.0,0.0,0.0,0.0,0.0,0.0,0.0,0.0,0.0,0.0,0.0,0.0,0.0,0.0,0.0,0.0,0.0,0.0,1.114,1.1961,0.0,0.0,0.0,0.0,1.4395,1.5043,1.6054,1.7464,1.7527,1.819,1.9657,2.0336,2.1047,2.1837,2.2027,2.2239,2.2474,2.2683,2.2909,2.3234,2.5036,2.5803,2.575,2.6232,2.6539,2.6686,2.5365,2.451,2.4076,2.4156,2.3643,2.2864,2.2797,2.3241,2.3677,2.2005,2.1901,2.2367,2.166,2.0866,2.0033,1.9344,1.8586,0.0,0.0,1.8898,1.8937,1.9647,1.9992,2.0113,2.007,2.0384,2.051,1.9894,1.9751,1.9325,0.0,1.7559,1.7113,1.5747,0.0,1.5232,1.4632,1.513,1.5573,1.5605,1.6196,1.6596,1.6596,1.6596,1.6596,1.6596,1.6596,1.6054,1.4727,1.4616,1.3984,1.2609,1.2479,1.2084,1.1359,1.0018,0.0,0.0,0.0,0.0,0.0,0.0,0.0,0.0,0.0,0.0,0.0,0.0,0.0,0.0,0.0,0.0,0.0,0.0,0.0,0.0,0.0,0.0,0.0,0.0,0.0,0.0,0.0,0.0,1.2641,1.3779,0.0,1.5098,1.5785,1.6323,1.6591,1.7223,1.8029,1.9009,1.9467,2.0146,2.111,2.2232,2.2927,2.3196,2.3717,2.4024,2.4062,2.4182,2.4261,2.4354,2.5016,2.5317,2.5301,2.5605,2.5977,2.6351,2.6083,2.6068,2.6286,2.6328,2.6132,2.575,2.5027,2.4925,2.504,2.4109,2.3971,2.4057,2.3281,2.2806,2.2444,2.1703,2.129,2.1238,2.1928,2.2012,2.2065,2.2642,2.2623,2.2296,2.1729,2.1551,2.13,2.0605,2.0447,2.0289,1.9799,1.8961,1.8187,1.7681,1.7587,1.7508,1.7271,1.7081,1.6955,1.6955,1.6738,1.6596,1.6596,1.6596,1.6596,1.6596,1.6596,1.6228,1.532,1.4798,1.4113,1.3178,1.2695,1.2333,1.21,1.1171,1.0382,0.0,0.0,0.0,0.0,0.0,0.0,0.0,0.0,0.0,0.0,0.0,0.0,0.0,0.0,0.0,0.0,0.0,0.0,0.0,0.0,0.0,0.0,0.0,0.0,0.0,0.0,1.302,1.4379,1.5374,1.6291,1.7212,1.7732,1.8127,1.8408,1.8835,1.9388,2.0099,2.0794,2.1489,2.2201,2.3322,2.4033,2.427,2.4768,2.5005,2.5005,2.5005,2.5005,2.5005,2.5005,2.5005,2.5084,2.5317,2.5642,2.6049,2.6418,2.6775,2.7154,2.725,2.7299,2.7213,2.6506,2.6247,2.6161,2.5574,2.5212,2.4919,2.4384,2.4212,2.4126,2.3626,2.3488,2.3564,2.4018,2.4116,2.4132,2.4418,2.4145,2.3605,2.2997,2.2355,2.1742,2.1268,2.0968,2.0794,2.0794,2.0052,1.9341,1.9119,1.9072,1.8993,1.874,1.83,1.7924,1.7732,1.7259,1.6838,1.6612,1.6596,1.6596,1.6596,1.6596,1.6228,1.5311,1.4798,1.4113,1.3194,1.2695,1.2459,1.2514,1.1825,1.0942,0.9853,0.0,0.0,0.0,0.0,0.0,0.0,0.0,0.0,0.0,0.0,0.0,0.0,0.0,0.0,0.0,0.0,0.0,0.0,0.0,0.0,0.0,0.0,0.0,1.052,1.169,1.3583,1.6297,1.6644,1.7212,1.8629,1.8756,1.904,1.9783,1.9815,2.0099,2.0794,2.1521,2.2232,2.2896,2.3591,2.4286,2.5005,2.5005,2.5005,2.5005,2.5005,2.5005,2.5005,2.5005,2.5084,2.5201,2.5454,2.5696,2.5934,2.64,2.6691,2.6926,2.7186,2.7299,2.7299,2.7299,2.7299,2.7178,2.6419,2.5678,2.5074,2.5074,2.5074,2.5074,2.5074,2.5074,2.5074,2.5074,2.5074,2.5045,2.4816,2.4385,2.3935,2.3769,2.2792,2.19,2.1916,2.1363,2.0857,2.0842,2.0826,2.062,1.9957,1.983,1.9593,1.8882,1.8682,0.0,1.7843,1.7644,1.7345,1.6691,1.6596,1.6596,1.6596,1.6596,1.6054,1.4711,1.46,1.3984,1.2625,1.2546,1.2546,1.2546,1.1917,1.0639,0.8665,0.0,0.0,0.0,0.0,0.0,0.0,0.0,0.0,0.0,0.0,0.0,0.0,0.0,0.0,0.0,0.0,0.0,0.0,0.0,0.0,0.0,1.0354,1.1956,1.1812,1.3498,1.5406,1.718,1.7839,1.8677,2.0083,1.9783,1.9783,2.0462,2.0067,2.0304,2.144,2.2216,2.2927,2.3607,2.4318,2.4776,2.5005,2.5005,2.5005,2.5005,2.5005,2.5005,2.5005,2.5005,2.5005,2.5045,2.5123,2.5339,2.5717,2.6085,2.6436,2.6775,2.7154,2.7299,2.7299,2.7299,2.7299,2.7264,2.704,2.6833,2.6661,2.6661,2.6661,2.6661,2.6661,2.6661,2.6661,2.6661,2.6661,2.663,2.6424,2.6016,2.5529,2.4827,2.4081,2.3399,2.2798,2.2508,2.2169,2.1679,2.16,2.1363,2.0652,2.0526,2.043,2.0176,1.9577,0.0,1.8967,1.8034,1.7335,1.7174,1.6842,1.6596,1.6596,1.6596,1.6244,1.5374,1.4869,1.4426,1.4047,1.351,1.3226,1.3226,1.2194,1.1173,0.0,0.0,0.0,0.0,0.0,0.0,0.0,0.0,0.0,0.0,0.0,0.0,0.0,0.0,0.0,0.0,0.0,0.0,0.0,0.0,0.0,0.0,1.2022,1.3604,1.3617,1.4751,1.6212,1.7934,1.8442,1.9121,2.0273,1.9988,1.9909,2.0352,2.002,2.0399,2.1724,2.2501,2.3196,2.3891,2.4602,2.5005,2.5005,2.5005,2.5005,2.5005,2.5005,2.5005,2.5005,2.5005,2.5005,2.5005,2.5005,2.524,2.5642,2.5961,2.635,0.0,0.0,0.0,0.0,0.0,2.7299,2.7299,2.7299,2.7299,2.7299,2.7299,2.7299,2.7299,2.7299,2.7299,2.7299,2.7299,2.7299,2.725,2.7105,2.6775,2.6386,2.5728,2.4944,2.4188,2.3679,2.3215,2.2769,2.2374,2.2074,0.0,2.1248,2.0933,2.0744,2.0693,2.0133,1.9661,1.9513,1.8734,1.802,1.7574,1.7235,1.6928,1.6628,1.6596,0.0,0.0,0.0,1.4885,1.46,1.4218,0.0,0.0,0.0,0.0,0.0,0.0,0.0,0.0,1.1719,1.2404,0.0,0.0,0.0,0.0,0.0,0.0,0.0,0.0,0.0,0.0,0.0,0.0,0.0,0.0,0.0,0.0,1.4101,1.5401,1.5421,1.5584,1.6417,1.8361,1.8479,1.8778,1.9547,1.9468,1.9453,1.9752,1.972,2.0352,2.1834,0.0,0.0,0.0,0.0,2.5005,2.5005,2.5005,2.5005,2.5005,2.5005,2.5005,2.5005,2.5005,2.5005,2.5005,2.5005,2.524,2.5642,2.5961,2.635,2.6808,2.7137,2.7299,2.7299,2.7299,2.7299,2.7299,2.7299,0.0,0.0,2.7299,2.7299,2.7299,2.7299,2.7299,2.7299,2.7299,2.7299,2.725,2.7152,2.6908,2.6657,2.6418,2.5499,2.4612,2.4519,2.3765,2.3122,2.3022,2.2517,2.2039,2.1761,2.1148,2.0644,2.066,2.0441,2.0107,1.9702,1.948,1.8967,1.7896,0.0,0.0,1.6659,1.6596,1.6354,1.5738,1.5706,1.5406,1.4742,1.4772,1.4856,1.4924,1.5065,1.4899,1.445,1.538,1.5565,1.5038,1.4969,1.4968,0.0,0.0,0.0,0.0,0.0,0.0,0.0,0.0,0.0,0.0,0.0,0.0,0.0,0.0,0.0,1.3115,1.446,1.5436,1.5546,1.6044,1.677,1.7691,1.7642,1.7848,1.8609,1.8097,1.8251,1.9452,1.9169,2.002,2.2548,2.2801,2.3502,2.4768,2.4942,2.5005,2.5005,2.5005,2.5005,2.5005,0.0,0.0,2.5005,2.5005,2.5005,2.5005,2.5005,2.524,2.5642,2.5961,2.6539,2.7186,2.7267,2.7299,2.7299,2.7299,2.7299,2.7299,2.7299,2.7299,2.7299,2.7299,2.7299,2.7299,2.7299,2.7299,0.0,2.7299,2.7299,2.7267,2.7072,2.6942,2.6775,2.6347,2.5859,2.5431,2.5201,2.4859,2.4435,2.3828,2.3607,2.318,2.2039,2.1064,2.0426,2.0373,2.02,2.005,2.0001,1.9595,1.9059,1.8422,1.7974,1.7385,1.6659,1.6596,1.6533,1.6391,1.6391,1.6117,1.5422,1.5519,1.5638,1.5771,1.5424,1.5291,1.5341,1.624,1.6647,1.6553,1.5969,1.6022,0.0,0.0,0.0,0.0,0.0,0.0,0.0,0.0,0.0,0.0,0.0,1.0851,1.1664,0.0,1.3659,1.4426,1.5373,1.6024,1.6101,1.6402,1.6865,1.7562,1.7455,1.7477,1.7893,1.7496,1.7698,1.8874,1.903,2.0158,2.2733,2.3191,2.3853,2.4974,2.4618,2.4444,2.4444,2.4444,2.4444,2.4444,2.4831,2.5005,2.5005,2.5005,2.5005,2.5005,2.5005,2.524,2.5642,2.6191,2.6775,2.7299,2.7299,2.7299,2.7299,2.7299,2.7299,2.7299,2.7299,2.7299,2.7299,2.7299,2.7299,2.7299,2.7299,2.7299,2.7299,2.7299,2.7299,2.725,2.7087,2.6925,2.6725,2.6365,2.5941,2.5572,2.5394,2.5162,2.491,2.4507,2.416,2.3554,2.2544,2.1545,2.0814,2.0537,2.0235,2.0115,2.0357,2.0131,1.9715,1.9202,1.8586,1.7906,1.7196,1.6801,1.6596,1.6596,1.6596,1.6439,1.6117,1.6294,1.6467,1.6604,1.6508,1.6567,1.6799,1.7274,1.7525,1.7587,1.7208,1.7262,0.0,0.0,0.0,0.0,0.0,0.0,0.0,0.0,1.0617,1.0688,1.1672,1.2753,1.355,1.4241,1.4924,1.565,1.6233,1.6596,1.6596,1.6596,1.6817,1.7401,1.7252,1.7151,1.7223,1.6993,1.7242,1.8192,1.8885,2.0203,2.2342,2.3146,2.3849,2.45,2.4018,2.3717,2.3717,2.3844,2.3923,2.3923,2.4634,2.5005,2.5005,2.5005,2.5005,2.5005,2.5084,2.5339,2.5738,2.6401,2.6957,2.7299,2.7299,2.7299,2.7299,2.7299,2.7299,2.7299,2.7299,2.7299,2.7299,2.7299,2.7299,2.7299,2.7299,2.7299,2.7299,2.7299,2.7299,2.725,2.712,2.6908,2.6674,2.6418,2.5924,2.5519,2.5416,2.5201,2.5005,2.5005,2.4507,2.3822,2.298,2.217,2.1393,2.0736,2.0357,2.0289,2.061,2.061,2.0377,1.9846,1.9277,1.8582,1.7764,1.7149,1.6738,1.6596,1.6596,1.6596,1.6596,1.6863,1.7066,1.724,1.7519,1.7766,1.8044,1.8246,1.8358,1.8435,1.8551,1.8534,0.9989,1.0273,1.0754,1.0761,1.1308,1.184,0.0,0.0,1.277,1.2829,1.3452,1.4199,1.4937,1.5265,1.5622,1.6307,1.6507,1.6596,1.6596,1.6596,1.6628,1.6707,1.6546,1.6354,1.6274,1.6002,1.6383,1.7689,1.841,1.9476,2.1103,2.2062,2.263,2.2858,2.2965,2.2991,2.2991,2.3607,2.3923,2.3923,2.4634,2.5005,2.5005,2.5005,2.5005,2.5005,2.5378,2.5738,2.6068,2.6505,2.6957,2.7299,2.7299,2.7299,2.7299,2.7299,2.7299,2.7299,2.7299,2.7299,2.7299,2.7299,2.7299,2.7299,2.7299,2.7299,2.7299,2.7299,2.7299,2.7267,2.704,2.6942,2.6775,2.6347,2.5921,2.5626,2.5355,2.5139,2.5005,2.5005,2.4942,2.4467,2.3117,2.2635,2.1989,2.0643,2.0392,2.041,2.0527,2.0662,2.0509,1.9878,1.9736,1.9151,1.7795,1.7622,1.729,1.6628,1.6596,1.6596,1.6596,1.6857,1.7117,1.7361,1.7635,1.7917,1.819,1.8844,1.9171,1.9189,1.9843,1.9792,1.162,1.2219,0.0,0.0,1.339,1.3836,1.3452,1.3859,1.4335,1.4375,1.4914,1.5452,1.5821,1.5936,1.6196,0.0,1.7058,1.7214,1.7637,1.734,1.7074,1.7074,1.6659,1.6328,1.6219,1.5968,1.6353,1.7659,1.8395,1.9627,2.1598,2.217,2.2714,2.3271,2.2634,2.228,2.2311,2.2975,2.3307,2.3322,2.4483,2.5005,2.5021,2.5377,2.5803,2.6224,2.6181,2.6395,2.6733,2.6689,2.7196,2.7902,2.7471,2.7558,2.7885,2.7454,2.7299,2.7299,2.7299,2.7299,2.7299,2.7299,2.7299,2.7299,2.7299,2.7299,2.7299,2.7299,2.7299,2.725,2.7087,2.6925,2.6708,2.64,2.5941,2.5535,2.5378,2.5162,2.5005,2.5005,2.5005,2.4689,2.3654,2.3075,2.244,2.1412,2.0793,2.0527,2.0662,2.0761,2.0541,1.9878,1.9815,1.9404,1.8377,1.7906,1.7559,1.7259,1.6929,1.6717,1.6727,1.7423,1.793,1.8159,1.8846,1.9297,1.9481,1.9792,1.9929,1.9947,2.0257,2.0481,1.275,0.0,0.0,1.4368,1.4924,1.5334,1.4868,1.5145,1.5499,1.5499,1.5856,1.6207,1.6246,1.6301,1.6456,1.7024,1.7257,1.7597,1.8127,1.7909,1.7706,1.7706,1.7099,1.6728,1.6859,1.6268,1.6398,1.7691,1.8362,1.9512,2.1401,2.2063,2.2514,2.2827,2.2137,2.1705,2.1566,2.2228,2.269,2.2896,2.4097,2.4887,2.5282,2.5993,2.6593,2.7067,2.6969,2.701,2.723,2.7278,2.7726,2.8368,2.804,2.8109,2.8334,2.7799,2.7471,2.7299,2.7299,2.7299,2.7299,2.7299,2.7299,2.7299,2.7299,2.7299,2.7299,2.7299,2.7299,2.7282,2.7135,2.6923,2.6742,2.6504,2.6013,2.5556,2.5476,2.524,2.5005,2.5005,2.5005,2.472,2.3781,2.3212,2.258,2.1726,2.1025,2.0628,2.0794,2.0794,2.0605,2.0131,2.0083,1.9783,1.9072,1.8566,1.8174,1.7997,1.7618,1.7423,1.747,1.8294,1.8858,1.9076,1.984,2.0284,2.0394,2.0618,2.0722,2.0739,2.0928,2.1342,0.0,0.0,1.5071,1.5071,1.563,1.6148,1.6133,1.6148,1.6163,1.6163,1.6179,1.6194,1.6194,1.6262,1.6301,1.6332,1.6946,1.7397,1.7441,1.8033,1.8469,1.8469,1.7831,1.763,0.0,1.6801,1.6338,1.7625,1.8144,1.8812,1.9741,2.1243,2.1605,2.0443,2.1206,2.1327,2.0724,2.1399,2.2126,2.2896,2.3607,2.4665,2.5993,2.6735,2.7083,2.7099,2.7499,2.7483,2.7296,2.837,2.8663,2.8472,2.9161,2.9006,2.8403,2.8368,2.7902,2.7299,2.7299,2.7299,2.7299,2.7299,2.7299,2.7299,2.7299,2.7299,2.7299,2.7299,2.7299,2.7282,2.7135,2.7055,2.6909,2.6657,2.6173,2.5758,2.5642,2.5262,2.5005,2.5005,2.5005,2.4578,2.3185,2.2896,2.2406,2.1031,2.081,2.0794,2.0794,2.0794,2.0778,2.0763,2.0763,2.0494,1.983,1.9751,1.9435,1.8724,1.8837,1.8977,1.9114,1.947,1.9796,2.0035,2.0211,2.0333,2.0394,2.1194,2.1574,2.1591,2.2315,2.2634,0.0,0.0,1.5849,1.6668,1.6847,1.6797,1.6797,1.6489,1.6194,1.6194,1.5841,1.5656,1.6117,1.5837,1.5864,1.6758,1.7483,1.8115,1.8594,1.8872,1.9027,1.9027,1.8377,0.0,0.0,0.0,0.0,1.8465,1.865,1.9266,2.0488,2.0767,2.0947,2.1023,2.0926,2.0777,2.0577,2.1804,2.2566,2.2839,2.4065,2.5361,2.6751,2.6988,2.7604,2.8426,2.8329,2.8396,2.8537,2.8674,2.9113,2.9692,2.9401,2.9488,2.9678,2.8647,2.8164,2.7954,2.7471,2.7299,2.7299,2.7299,2.7299,2.7299,2.7299,2.7299,2.7299,2.7299,2.7299,2.7282,2.7233,2.7218,2.7154,2.6926,2.6418,2.5961,2.5844,2.5394,2.5005,2.5005,2.4586,2.4128,2.3654,2.2833,2.19,2.0936,2.0794,2.0794,2.0794,2.0794,2.0794,2.0794,2.0794,2.0699,2.0478,2.0067,1.9704,1.9451,1.9201,1.9143,1.9334,2.0129,2.0682,2.0943,2.1516,2.185,2.1927,2.2212,2.235,2.235,2.2565,2.2712,1.5454,1.6143,1.6728,1.7571,1.7455,1.7104,1.7104,1.6642,1.6172,1.5941,1.554,1.5294,1.552,1.5397,1.5536,1.6416,1.7543,1.847,1.8918,1.9381,1.9657,1.9657,1.9023,1.87,0.0,0.0,0.0,1.9043,1.9071,1.9543,2.0691,2.0696,2.0751,2.0992,2.0856,2.0674,2.0475,2.1686,2.2551,2.3105,2.4587,2.5762,2.6635,2.7225,2.7936,2.8742,2.885,2.8957,2.9034,2.9145,2.9493,2.9985,2.9824,3.0003,3.0199,2.928,2.8699,2.8282,2.7558,2.7299,2.7299,2.7299,2.7299,2.7299,2.7299,2.7299,2.7299,2.7299,2.7299,2.7299,2.7299,2.7299,2.725,2.7057,2.6556,2.6068,2.5917,2.5432,2.5005,2.5005,2.4602,2.4128,2.3638,2.2406,2.1347,2.0857,2.0794,2.0699,2.0462,2.0447,2.0447,2.0447,2.0652,2.0794,2.0794,2.0399,2.0162,2.0162,1.9983,1.9991,2.0261,2.1022,2.1593,2.1859,2.2365,2.2659,2.2712,2.297,2.3081,2.3081,2.3402,2.3522,1.586,1.6832,1.7775,1.7855,1.75,1.715,1.715,1.6684,1.6068,1.5438,1.5216,1.5018,0.0,0.0,1.5343,1.5396,1.7127,1.8454,1.8423,1.9458,2.0273,0.0,0.0,0.0,0.0,0.0,0.0,1.9348,0.0,1.9626,2.0273,2.0905,2.0967,2.0335,2.0967,2.1013,2.045,2.1151,2.2248,2.3678,2.5055,2.5764,2.5858,2.7356,2.8047,2.817,2.9077,2.9235,2.8828,2.9783,2.9889,2.9426,3.0399,3.0465,3.0053,3.0211,2.9539,2.8403,2.7661,2.7351,2.7299,2.7299,2.7299,2.7299,2.7299,2.7299,2.7299,2.7299,2.7299,2.7299,2.7299,2.7299,2.725,2.7057,2.6556,2.6068,2.5917,2.5432,2.5005,2.5005,2.4974,2.4515,2.307,2.1758,2.0889,2.0857,2.0842,2.0605,1.9941,1.9862,1.9862,1.9862,2.0415,2.0794,2.0794,2.0794,2.0794,2.0794,2.1119,2.1464,2.1797,2.2123,2.2432,2.2685,2.2712,2.2729,2.2763,2.3443,2.3805,2.3874,2.4643,2.5005,1.7341,1.8041,1.8495,1.9006,1.838,1.7651,1.7744,1.6611,1.5521,1.5397,1.4171,1.3412,0.0,0.0,0.0,1.5404,1.6842,0.0,1.8422,1.9089,0.0,2.0243,0.0,2.0119,2.0289,2.015,0.0,0.0,2.0058,2.0119,2.0289,2.0474,2.0489,2.0304,2.0967,2.1245,2.106,2.2322,2.3406,2.434,2.4723,2.5258,2.5932,2.6882,2.7719,2.8359,2.9271,2.9657,2.967,2.9951,3.0031,2.9995,3.0327,3.0484,3.0549,3.0145,2.9986,2.9867,2.9128,2.8182,2.7299,2.7299,2.7299,2.7299,2.7299,2.7299,2.7299,2.7299,2.7299,2.7299,2.7299,2.7299,2.725,2.7057,2.6556,2.6068,2.5917,2.5432,2.5005,2.5005,2.4555,2.3749,2.2374,2.2264,2.2185,2.1679,2.1584,2.1316,2.0636,2.0541,2.0541,2.0541,2.0699,2.0794,2.0794,2.0794,2.0794,2.0794,2.1119,2.1464,2.1797,2.2123,2.2432,2.2685,2.2712,2.2961,2.3512,2.3702,2.4126,2.4712,2.4902,2.5005,1.8144,1.8752,1.8969,1.915,1.8512,1.7678,1.7228,1.6194,1.509,1.4202,1.3198,0.0,0.0,0.0,0.0,0.0,0.0,0.0,1.8479,1.9061,1.963,0.0,2.0304,0.0,2.0304,2.0304,2.0304,0.0,2.0304,2.0304,2.0304,2.0582,2.0751,2.0751,2.1399,2.187,2.2163,2.301,2.3776,2.4467,2.4523,2.4807,2.5326,2.6567,2.7471,2.8126,0.0,2.977,2.9826,2.9782,2.9738,2.9649,2.9853,3.014,3.0344,3.0225,3.0229,3.0214,2.9913,2.9111,2.8265,2.8265,2.804,2.7782,2.7782,2.7558,2.7299,2.7299,2.7299,2.7282,2.7233,2.7201,2.7137,2.6876,2.6435,2.5977,2.5807,2.5355,2.5005,2.5005,2.4397,2.367,2.2912,2.2833,2.2754,2.239,2.2311,2.2153,2.1758,2.1458,2.1268,2.1252,2.1521,2.1584,2.13,2.1268,2.1142,2.081,2.1119,2.1464,2.1797,2.2123,2.2432,2.2685,2.3039,2.3374,2.3788,2.4488,2.5057,2.5505,2.5833,2.6006,1.8559,1.9093,1.9302,1.8812,1.8227,1.7482,1.6288,1.5529,1.4585,1.2707,0.0,1.2077,1.1589,1.2092,1.3048,1.4368,0.0,1.7197,1.8321,1.8982,1.9589,2.0156,2.0292,2.027,2.027,2.0304,2.0304,2.0304,2.0304,2.0304,2.0304,2.0952,2.1362,2.1547,2.2117,2.2748,2.3425,2.344,2.3773,2.4343,2.4498,2.4539,2.4626,2.6283,2.7189,2.7624,2.8898,2.9528,2.9532,2.946,2.9255,2.9013,2.938,2.9649,2.9897,3.0342,3.0356,3.0192,3.0401,3.0156,2.9782,2.9575,2.9006,2.8403,2.8403,2.7885,2.7299,2.7299,2.7299,2.7282,2.7135,2.7053,2.6973,2.6674,2.6241,2.5864,2.5642,2.5262,2.5005,2.5005,2.4476,2.4018,2.3939,2.3496,2.3169,2.3038,2.3101,2.3117,2.3038,2.2438,2.2011,2.1929,2.2517,2.2643,2.2074,2.2027,2.1758,2.111,2.1392,2.171,2.2079,2.2408,2.2722,2.2995,2.3615,2.3994,2.4098,2.5454,2.6161,2.6281,2.7002,2.733,1.8963,1.9413,1.9411,1.8772,1.8157,1.7417,1.6259,1.4806,0.0,0.0,0.0,1.0345,1.0846,1.1597,1.2371,1.3188,0.0,0.0,0.0,0.0,1.889,0.0,0.0,0.0,0.0,0.0,0.0,0.0,2.0304,2.0304,2.0304,2.0952,2.1793,2.2917,2.3055,2.3456,2.4133,2.423,2.4374,2.4549,2.4686,2.4846,2.5045,2.6126,2.6814,2.7235,2.797,0.0,2.9271,2.8994,2.9106,2.9412,2.9592,2.9814,3.0017,3.0359,3.069,3.1026,3.1219,3.1322,3.1196,2.992,2.9006,2.8403,2.8403,2.7885,2.7299,2.7299,2.7299,2.7282,2.7135,2.6923,2.6725,2.6487,2.6013,2.5556,2.5454,2.5201,2.5005,2.5005,2.491,2.4602,2.4018,2.4302,2.4413,2.3828,2.4239,2.4435,2.3812,2.3133,2.2706,2.2706,2.2801,2.2833,2.2722,2.2706,2.2659,2.2532,2.2852,2.3176,2.3521,2.3902,2.4254,2.4609,2.4729,2.5092,2.5712,2.5971,2.6467,2.7186,2.7324,2.7407,1.8927,1.945,1.9465,1.8512,1.8082,1.7362,1.553,0.0,0.0,0.0,0.0,0.9872,1.0215,0.0,0.0,0.0,0.0,0.0,0.0,0.0,0.0,0.0,0.0,0.0,0.0,0.0,0.0,0.0,2.0354,2.0339,2.0304,2.1275,2.2424,2.3779,2.3825,2.3979,2.4302,2.4482,2.463,2.4775,2.4934,2.513,2.5323,2.628,2.6929,2.7284,2.797,2.8444,2.8814,2.9009,2.9137,2.9237,2.9756,2.9772,2.9515,2.9807,2.9939,2.9914,3.019,3.0358,3.0418,2.9678,2.9231,2.8903,2.8523,2.7885,2.7299,2.7299,2.7299,2.725,2.7087,2.6842,2.6607,2.6365,2.5885,2.5438,2.5355,2.5201,2.5045,2.5005,2.5005,2.491,2.4523,2.4784,2.4894,2.4523,2.476,2.4713,2.4002,2.3623,2.3291,2.2927,2.3196,2.3275,2.2948,2.3212,2.3259,2.2912,2.3205,2.3534,2.3901,2.4271,2.4645,2.5005,2.5385,2.5764,2.6109,2.6554,2.6982,2.7407,2.7438,2.7483,1.8906,1.9543,1.9726,1.8465,1.8021,1.7286,1.4934,1.3719,0.0,0.0,1.0088,0.959,0.959,0.0,0.0,0.0,0.0,0.0,0.0,0.0,0.0,0.0,0.0,0.0,0.0,0.0,0.0,0.0,2.0423,2.0478,2.072,2.1716,2.2917,2.4313,2.4359,2.4359,2.44,2.4589,2.4815,2.5059,2.523,2.546,2.5684,2.6421,2.6945,2.725,2.7831,2.811,2.826,2.8782,2.8876,2.8845,2.9543,2.9395,2.8894,2.9145,2.9037,2.8797,2.9013,2.9245,2.9386,2.9179,2.918,2.9127,2.8542,2.7885,2.7299,2.7299,2.7299,2.725,2.704,2.6759,2.6418,2.6101,2.5738,2.5454,2.5339,2.5262,2.5146,2.5005,2.5005,2.5005,2.5005,2.5005,2.5005,2.5005,2.5005,2.4665,2.3796,2.3702,2.337,2.2532,2.318,2.3565,2.3206,2.3681,2.3877,2.3501,2.3777,2.411,2.4431,2.4822,2.5169,2.5505,2.6057,2.635,2.6368,2.7082,2.7407,2.7438,2.7513,2.7613,1.9326,2.0111,2.0382,1.8965,1.8132,1.7094,1.5106,0.0,0.0,1.0941,0.9829,0.8958,0.8895,0.9434,0.0,0.0,0.0,0.0,0.0,0.0,0.0,0.0,0.0,0.0,0.0,0.0,0.0,2.0761,2.0475,2.0844,2.204,2.2224,2.2956,2.4451,2.4498,2.458,2.4742,2.495,2.5208,2.553,2.5733,2.5954,2.6118,2.6291,2.6465,2.6673,2.6687,2.7038,0.0,2.7598,2.7881,2.8378,2.8444,2.8428,2.8401,2.8593,2.877,2.8907,2.9033,2.9228,2.9265,2.8476,2.8305,2.8389,2.832,2.782,2.7299,2.7299,2.7299,2.725,2.704,2.659,2.6068,2.5652,2.561,2.5647,2.5519,2.5422,2.5301,2.5045,2.5005,2.5005,2.5005,2.5005,2.5005,2.5005,2.5005,2.4515,2.3149,2.2975,2.2469,2.1126,2.2239,2.3363,2.4031,2.4264,2.4643,2.5303,2.5595,2.5867,2.6148,2.6488,2.6819,2.7075,2.7161,2.721,2.7272,2.7341,2.7452,2.7587,2.7587,2.8014,1.8342,1.9069,1.9416,1.84,1.7622,1.6636,1.4713,0.0,1.1547,1.0567,0.9588,0.8886,0.8875,0.9064,0.9409,0.0,1.1121,1.2569,1.4098,0.0,0.0,0.0,0.0,0.0,0.0,0.0,0.0,2.0827,2.0561,2.0775,2.1661,2.2048,2.2771,2.392,2.4411,2.4831,2.5169,2.5362,2.561,2.5905,2.6101,2.633,2.6504,2.6521,2.6556,2.664,2.6623,2.6775,0.0,2.7498,2.778,2.8062,2.8515,2.8431,2.8012,2.8084,2.7958,2.7708,2.776,2.7828,2.7861,2.7487,2.7418,2.7451,2.7533,2.7442,2.7299,2.7299,2.7299,2.725,2.704,2.6572,2.6066,2.5721,2.5626,2.5621,2.5589,2.5454,2.5278,2.5045,2.5005,2.5005,2.5005,2.5005,2.5005,2.5005,2.5005,2.4499,2.309,2.288,2.2343,2.0952,2.18,2.2623,2.3018,2.3608,2.407,2.4505,2.5174,2.5663,2.5866,2.6588,2.7057,2.7299,2.7362,2.7376,2.7407,2.7483,2.7544,2.7526,2.763,2.808,1.7555,1.8377,1.8877,1.7952,1.7203,1.6231,0.0,0.0,1.1446,1.0361,0.9515,0.8957,0.8964,0.8908,0.9049,0.0,1.056,1.1817,1.3565,0.0,0.0,0.0,0.0,0.0,0.0,0.0,2.1262,2.0958,2.0745,2.0798,2.1124,2.1771,2.2474,2.3333,2.4178,2.4812,2.5174,2.555,2.5885,2.6137,2.633,2.6504,2.6674,2.6691,2.6691,2.6691,2.6691,2.6691,0.0,2.7266,2.7486,2.7537,2.8095,2.796,2.7486,2.7486,2.725,2.6893,2.6842,2.6876,2.6893,2.6842,2.6876,2.6926,2.7023,2.7137,2.7218,2.7218,2.7203,2.7122,2.6909,2.6521,2.6154,2.5811,2.568,2.5584,2.5492,2.5378,2.5201,2.4966,2.4966,2.5005,2.5005,2.5005,2.5005,2.5005,2.5005,2.4499,2.309,2.288,2.2343,2.0952,2.1437,2.2003,2.2345,2.3031,2.3572,2.3966,2.4862,2.5462,2.5573,2.6516,2.7105,2.7299,2.7362,2.7376,2.7438,2.7526,2.7557,2.7587,2.7887,2.8566,1.7384,1.8476,1.9253,1.7854,1.7065,1.603,0.0,1.2383,1.117,1.0376,0.9604,0.9095,0.9092,0.9046,0.8992,0.9009,1.0304,1.1555,1.2316,1.489,0.0,0.0,0.0,0.0,0.0,0.0,2.1511,2.1325,2.1119,0.0,2.0794,2.151,2.2172,2.2776,2.3708,2.4333,2.4626,2.5484,2.6007,2.6203,2.638,2.652,2.6606,2.6674,2.6691,2.6691,2.6691,2.6691,0.0,2.6708,2.6708,2.6708,2.6708,2.6708,2.6708,2.6708,2.6792,2.6893,2.6742,2.6792,2.6893,2.6742,2.6792,2.6893,2.6893,2.6959,2.7007,2.7007,2.6959,2.6809,2.6487,2.6349,2.6208,2.5868,2.5758,2.5626,2.5269,2.5192,2.5114,2.4846,2.4902,2.5005,2.5005,2.5005,2.5005,2.5005,2.5005,2.4499,2.309,2.288,2.2343,2.0952,2.1087,2.1664,2.2524,2.2843,2.3407,2.4346,2.52,2.572,2.5783,2.6627,2.7152,2.7299,2.7299,2.7376,2.7496,2.7496,2.7569,2.7719,2.8526,2.9702,1.5283,1.6159,1.6838,1.6373,1.5775,1.488,1.3229,1.2182,1.1182,0.9907,0.9431,0.9245,0.9236,0.9177,0.9126,0.914,1.0436,0.0,0.0,0.0,0.0,0.0,0.0,0.0,0.0,0.0,2.1587,2.1386,2.1261,2.1135,2.0958,2.1279,2.1794,2.2485,2.3294,2.3909,2.4249,2.4513,2.4747,2.4896,2.5481,2.5782,2.5866,2.6404,2.6657,2.6691,2.6691,2.6691,2.6691,2.6691,2.6691,2.6691,2.6691,2.6691,2.6691,2.6691,2.6742,2.6742,2.6691,2.6742,2.6742,2.6691,2.6742,2.6742,2.6742,2.6859,2.7007,2.7007,2.6959,2.6859,2.6606,2.6417,2.6225,2.5994,2.5791,2.5546,2.5317,2.5146,2.4989,2.4806,2.4822,2.4902,2.4966,2.5005,2.5005,2.5005,2.5005,2.4673,2.3717,2.3591,2.3243,2.2311,2.2547,2.2541,2.2104,2.2325,2.2733,2.3209,2.4482,2.5232,2.5261,2.653,2.725,2.7299,2.7345,2.7376,2.7421,2.7526,2.7879,2.8544,2.9253,3.0147,0.0,1.4332,1.4847,1.459,1.4242,1.3572,1.2117,1.1512,1.0909,0.9699,0.9403,0.9377,0.9377,0.934,0.9419,0.971,1.0771,0.0,0.0,0.0,0.0,0.0,0.0,0.0,0.0,2.1703,2.1751,2.157,2.1509,2.1448,2.1291,2.1417,2.1691,2.2164,2.2851,2.3375,2.3634,2.3948,2.4146,2.429,2.5077,2.5528,2.561,2.6404,2.6759,2.6808,2.6808,2.6808,0.0,2.6808,2.6792,2.6792,2.6808,2.6792,2.6792,2.6808,2.6808,2.6808,2.6808,2.6792,2.6792,2.6792,2.6742,2.6691,2.6691,2.6775,2.6892,2.6892,2.6859,2.6809,2.6657,2.6469,2.6279,2.6101,2.5828,2.5524,2.5224,2.5045,2.4823,2.4397,2.4351,2.439,2.42,2.4191,2.4214,2.4214,2.4397,2.4318,2.3607,2.3749,2.3654,2.2959,2.3205,2.3176,2.2644,2.2677,2.283,2.3099,2.4315,2.5005,2.5005,2.6471,2.7299,2.7299,2.7362,2.7376,2.7407,2.784,2.8487,2.9369,3.0059,3.0845,0.0,1.298,1.3409,1.2727,1.2653,1.2357,1.0862,1.0637,0.0,0.9696,0.9522,0.9522,0.9514,0.955,0.9832,1.0584,0.0,0.0,0.0,0.0,0.0,0.0,0.0,0.0,2.1113,2.1653,2.194,2.1827,2.1781,2.1797,2.1797,2.1797,2.1797,2.1797,2.2399,2.2762,2.2808,2.3582,2.3979,2.4074,2.5071,2.5588,2.57,2.6631,2.704,0.0,2.704,2.704,2.704,2.704,2.6975,2.6926,2.6975,2.6975,2.6926,2.7007,2.704,2.704,2.704,2.6992,2.6926,2.6893,2.6792,2.6691,2.6691,2.6691,2.6691,2.6691,2.6691,2.6691,2.6691,2.6556,2.6367,2.6175,2.5868,2.5513,2.5036,2.4871,2.4594,2.3756,2.3748,2.366,2.3054,2.3001,2.3059,2.3074,2.3613,2.3802,2.319,2.3628,2.3771,2.3174,2.3401,2.3731,2.405,2.3718,2.359,2.3805,2.4609,2.5057,2.5005,2.6471,2.7299,2.7299,2.7299,2.7348,2.7494,2.8376,2.9288,3.0194,3.0878,3.1633,1.0539,0.0,1.3099,1.2332,1.2659,1.2748,0.0,1.0874,1.0705,0.0,0.0,0.9706,0.9673,1.0171,1.0625,1.0748,0.0,0.0,0.0,0.0,0.0,0.0,0.0,2.167,2.2055,2.2068,2.201,2.1899,2.184,2.1797,2.1797,2.1797,2.1797,2.1797,2.1963,2.2046,2.2046,2.2362,2.2576,2.2762,2.4262,2.5136,2.5438,2.677,2.7426,2.7522,2.7522,2.7522,2.7522,2.7417,2.7261,2.7135,2.7103,2.7103,2.7135,2.7195,2.7352,2.7522,2.7434,2.7261,2.7103,2.6842,2.6742,2.6691,2.6691,2.6691,2.6691,2.6691,2.6691,2.6691,2.6691,2.6607,2.6521,2.6383,2.6101,2.5828,2.5513,2.5208,2.4902,2.4563,2.4451,2.4389,2.4327,2.4453,2.4553,2.4707,2.491,2.5034,2.4986,2.5099,2.5148,2.497,2.5212,2.5483,2.5797,2.4839,2.4134,2.3822,2.5092,2.5592,2.5023,2.6471,2.7299,2.7299,2.7299,2.767,2.8387,2.8624,2.9505,3.0949,3.1107,3.1633,1.0058,1.1149,1.2174,1.1735,1.1994,1.2103,1.124,0.0,0.0,0.0,0.0,0.0,1.0336,0.0,0.0,0.0,0.0,0.0,0.0,0.0,0.0,0.0,0.0,2.2424,0.0,2.2426,2.2243,2.2027,2.194,2.1869,2.1781,2.1797,2.1797,2.1797,2.1797,2.1797,2.1797,2.194,2.2113,2.2354,2.371,2.4486,2.4847,2.6426,2.7186,2.7243,2.7642,2.78,2.7771,2.7672,2.7509,2.7355,2.7369,2.7369,2.7355,2.7474,2.7654,2.7771,2.7672,2.7478,2.723,2.6908,2.6825,2.6825,2.6792,2.6825,2.6808,2.6742,2.6691,2.6691,2.6691,2.6674,2.6623,2.6556,2.6349,2.6101,2.5868,2.5589,2.515,2.4484,2.428,2.4108,2.3741,2.3903,2.4115,2.436,2.4761,2.5155,2.5337,2.5635,2.5832,2.5832,2.603,2.6279,2.6521,2.5996,2.5422,2.489,2.5643,2.5919,2.5523,2.6661,2.7299,2.7299,2.7627,2.8071,2.8615,2.9358,3.0223,3.1145,3.1581,3.1984,0.992,1.057,1.1234,1.1222,1.1407,1.1559,1.1445,0.0,0.0,0.0,0.0,0.0,0.0,0.0,0.0,0.0,0.0,0.0,0.0,0.0,0.0,0.0,2.3412,0.0,2.2868,2.2712,2.248,2.2169,2.2084,2.1969,2.184,2.184,2.184,2.184,2.184,2.184,2.184,2.194,2.213,2.2405,2.3388,2.3979,2.4304,2.5985,2.6782,2.6845,0.0,0.0,2.7982,2.7933,2.776,2.76,2.7701,2.7672,2.763,2.7818,2.7915,2.7982,2.7886,2.7672,2.7404,2.704,2.6975,2.7007,2.6942,2.6975,2.6975,2.6825,2.6758,2.6742,2.6691,2.6691,2.6691,2.6691,2.6556,2.6383,2.6175,2.5868,2.5373,2.4334,2.4103,2.3755,2.2938,2.3106,2.3399,2.3651,2.4414,2.5034,2.5295,2.5844,2.621,2.621,2.6367,2.6556,2.6725,2.6925,2.6798,2.6303,2.6281,2.6281,2.6281,2.6937,2.7351,2.7471,2.8075,2.8539,2.8847,3.0229,3.1011,3.1288,3.2021,3.2388,0.9079,1.0198,1.1368,1.1292,1.2341,1.322,0.0,0.0,0.0,0.0,0.0,0.0,0.0,0.0,0.0,0.0,0.0,0.0,0.0,0.0,0.0,0.0,0.0,2.3313,2.2902,2.2816,2.2659,2.236,2.2304,2.2158,2.1969,2.1969,2.1969,2.1969,2.1969,2.1969,2.1969,2.1998,2.2096,2.232,2.3436,2.413,2.452,2.6247,2.7133,2.7337,0.0,2.8492,2.8466,2.8353,2.8183,2.7992,2.8035,2.8017,2.8037,2.8156,2.8335,2.8466,2.8147,2.7869,2.7612,2.7244,2.7135,2.7103,2.7135,2.7135,2.7103,2.7117,2.7006,2.6842,2.6742,2.6691,2.6691,2.6691,2.6607,2.6521,2.6383,2.6154,2.5832,2.5422,2.5195,2.4971,2.4712,2.4965,2.5281,2.5573,2.5905,2.6216,2.6421,2.6539,2.6624,2.6624,2.6725,2.6842,2.6942,2.7023,2.71,2.7109,2.7109,2.7109,2.7109,2.723,2.7592,2.8213,2.8334,2.909,3.0439,3.0699,3.122,3.2039,3.2162,3.2301,0.8894,1.0144,1.1564,1.2003,1.2988,1.3766,0.0,0.0,0.0,0.0,0.0,0.0,0.0,0.0,0.0,0.0,0.0,0.0,0.0,0.0,2.3217,0.0,0.0,2.3417,2.3028,2.2944,2.2842,2.2632,2.2552,2.2426,2.2287,2.2287,2.2287,2.2287,2.2287,2.2287,2.2287,2.2287,2.2315,2.2354,2.3039,2.3509,2.3826,2.5194,2.6135,2.6754,0.0,2.8146,2.8587,2.8484,2.8362,2.821,2.8246,2.8228,2.8237,2.8388,2.851,2.8518,2.8291,2.8073,2.7864,2.7478,2.7369,2.743,2.7369,2.7355,2.7355,2.7289,2.7103,2.6909,2.6742,2.6691,2.6691,2.6691,2.6674,2.664,2.6556,2.6383,2.6137,2.5905,2.5701,2.5513,2.5346,2.5535,2.5795,2.6173,2.6418,2.6657,2.699,2.7023,2.7023,2.7023,2.7089,2.7122,2.7154,2.7169,2.7233,2.7299,2.7299,2.7299,2.7299,2.7678,2.804,2.8385,2.9213,3.0007,3.075,3.1254,3.1725,3.2144,3.2267,3.2354,0.8618,0.9739,1.1207,1.2484,0.0,0.0,0.0,0.0,0.0,0.0,0.0,0.0,0.0,0.0,0.0,0.0,0.0,0.0,2.3352,2.3543,2.3598,2.3828,2.3735,2.3535,2.3175,2.3095,2.2977,2.2842,2.279,2.2685,2.2552,2.2542,2.2542,2.2542,2.2542,2.2542,2.2542,2.2542,2.2515,2.2432,2.2659,2.2919,2.3186,2.4206,2.5076,2.5852,2.667,2.7507,2.8297,2.8272,2.8278,2.838,2.8432,2.8406,2.838,2.8536,2.8562,2.851,2.8406,2.8273,2.8109,2.7748,2.7701,2.776,2.7672,2.7659,2.76,2.7444,2.7244,2.699,2.6775,2.6691,2.6691,2.6691,2.6691,2.6691,2.6691,2.6572,2.6383,2.6227,2.6033,2.5852,2.5705,2.5815,2.6049,2.6418,2.6624,2.6892,2.725,2.7299,2.7299,2.7299,2.7299,2.7299,2.7299,2.7299,2.7368,2.754,2.7385,2.7368,2.754,2.8092,2.8575,2.8937,3.0093,3.0801,3.0973,3.1723,3.2073,3.2108,3.2267,3.2441,0.7793,0.8415,0.9675,1.2172,0.0,0.0,1.6135,0.0,0.0,0.0,0.0,0.0,0.0,0.0,0.0,0.0,0.0,2.2707,2.3556,0.0,2.4383,2.4117,2.3919,2.3646,2.3336,2.3217,2.3102,2.2919,2.2893,2.2842,2.2685,2.2685,2.2685,2.2685,2.2685,2.2685,2.2685,2.2685,2.2605,2.2487,2.2632,2.2816,2.3038,2.406,2.4694,2.5013,2.5834,2.6676,2.7508,2.7465,2.7918,2.8587,2.8587,2.8587,2.8587,2.8587,2.8587,2.8587,2.8587,2.8484,2.8353,2.812,2.8055,2.8081,2.8065,2.7926,2.776,2.7683,2.743,2.7117,2.6791,2.6691,2.6691,2.6691,2.6691,2.6691,2.6691,2.6657,2.6521,2.6418,2.6314,2.6225,2.6154,2.6243,2.6453,2.6657,2.6859,2.7057,2.7267,2.7299,2.7299,2.7299,2.7299,2.7299,2.7299,2.7299,2.7592,2.8282,2.7678,2.7609,2.8282,2.8368,2.9075,3.0506,3.0627,3.1095,3.1825,3.1877,3.202,3.2179,3.2214,3.2634,0.8488,0.9119,1.0254,1.2284,0.0,0.0,0.0,0.0,0.0,0.0,0.0,0.0,0.0,0.0,0.0,0.0,2.2115,2.2895,2.3641,2.4344,2.4654,2.4264,2.408,2.3837,2.3458,2.336,2.3241,2.3045,2.3003,2.2995,2.2944,2.2944,2.2944,2.2944,2.2944,2.2944,2.2944,2.2944,2.2902,2.285,2.2842,2.2893,2.302,2.3517,2.4171,2.4923,2.5221,2.6186,2.7518,2.7518,2.8009,2.8712,2.8687,2.8637,2.8587,2.8587,2.8587,2.8587,2.8587,2.8536,2.8458,2.8264,2.8255,2.8273,2.8255,2.8146,2.8025,2.7818,2.7582,2.7293,2.6825,2.6691,2.6691,2.6691,2.6691,2.6691,2.6691,2.6674,2.664,2.659,2.6556,2.6521,2.6538,2.6556,2.664,2.6792,2.6876,2.7007,2.7152,2.7184,2.7201,2.7282,2.7299,2.7489,2.7937,2.7971,2.8299,2.9041,2.8385,2.8316,2.9058,2.9558,3.0093,3.0679,3.1145,3.1543,3.1856,3.1948,3.2073,3.2144,3.2267,3.2739,0.8904,0.9441,1.0366,0.0,0.0,0.0,0.0,0.0,0.0,0.0,0.0,0.0,0.0,0.0,0.0,0.0,2.1952,2.2671,2.3689,2.4227,2.4492,2.4398,2.4247,2.3999,2.3558,2.3458,2.3336,2.3119,2.3095,2.3095,2.3095,2.3095,2.3095,2.3095,2.3095,2.3095,2.3095,2.3095,2.3095,2.3095,2.302,2.2995,2.3045,2.3241,2.3761,2.4491,2.4585,2.5477,2.6926,2.7185,2.7935,2.8881,2.881,2.8737,2.8662,2.8612,2.8587,2.8587,2.8587,2.8562,2.8536,2.8414,2.8432,2.8458,2.8406,2.8327,2.8191,2.7943,2.773,2.7448,2.6989,2.6808,2.6742,2.6691,2.6691,2.6691,2.6691,2.6691,2.6691,2.6691,2.6691,2.6691,2.6691,2.6691,2.6742,2.6893,2.6893,2.6942,2.7103,2.7103,2.7238,2.7609,2.7644,2.7937,2.8678,2.8747,2.9075,2.9834,2.9403,2.9351,2.9868,3.0403,3.08,3.1041,3.1541,3.18,3.1819,3.1965,3.2073,3.2144,3.2267,3.288,0.8768,0.9022,0.0,0.0,0.0,0.0,0.0,0.0,0.0,0.0,0.0,0.0,0.0,0.0,0.0,2.1364,2.1482,2.2068,2.3651,2.3776,2.3906,2.4511,2.4408,2.4097,2.3631,2.3549,2.3383,2.3119,2.3095,2.3095,2.3095,2.3095,2.3095,2.3095,2.3095,2.3095,2.3095,2.3095,2.3095,2.3095,2.3095,2.3095,2.3119,2.3313,2.3463,2.3628,2.3896,2.4533,2.5479,2.6331,2.764,2.9089,2.8952,2.8858,2.8785,2.8637,2.8587,2.8587,2.8587,2.8587,2.8587,2.8587,2.8587,2.8587,2.8587,2.851,2.8353,2.8174,2.7897,2.7642,2.7276,2.7055,2.6876,2.6742,2.6691,2.6691,2.6691,2.6691,2.6691,2.6691,2.6691,2.6691,2.6691,2.6691,2.6742,2.6893,2.6893,2.6942,2.707,2.7103,2.7427,2.8316,2.8403,2.8696,2.9455,2.9523,2.9851,3.0644,3.0696,3.0696,3.0696,3.0696,3.1041,3.1783,3.18,3.1819,3.1894,3.1912,3.202,3.2196,3.2196,3.3106,1.0358,1.0794,0.0,0.0,0.0,0.0,0.0,0.0,0.0,0.0,0.0,0.0,0.0,0.0,0.0,2.0557,2.1097,2.1665,2.2135,2.2618,2.2961,2.3035,2.3359,2.3398,2.2942,2.33,2.3422,2.3126,2.3095,2.3095,2.3095,2.3095,2.3095,2.3095,2.3095,2.3095,2.3095,2.3095,2.3095,2.3095,2.3095,2.3095,2.3119,2.3313,2.3504,2.3692,2.3937,2.463,2.5652,2.7098,2.7929,2.8368,2.885,2.8998,2.891,2.8785,2.8712,2.8687,2.8687,2.8637,2.8587,2.8587,2.8587,2.8587,2.8587,2.8536,2.844,2.8264,2.8119,2.7893,2.7509,2.7341,2.7152,2.6808,2.6691,2.6691,2.6691,2.6691,2.6691,2.6691,2.6691,2.6691,2.6691,2.6691,2.6691,2.6742,2.6742,2.6808,2.7007,2.7137,2.7526,2.8316,2.8403,2.8937,3.0231,3.0334,3.0662,3.142,3.1472,3.1472,3.1472,3.1472,3.1576,3.18,3.18,3.18,3.1819,3.2429,3.28,3.291,3.3523,3.4401,1.0502,0.0,0.0,0.0,0.0,0.0,0.0,0.0,0.0,0.0,0.0,0.0,0.0,0.0,0.0,2.0214,2.0629,2.11,2.1416,2.1807,2.2159,2.2363,2.2961,2.3184,2.2718,2.3304,2.3558,2.3199,2.3151,2.3144,2.3095,2.3095,2.3095,2.3095,2.3095,2.3095,2.3095,2.3095,2.3095,2.3095,2.3144,2.3144,2.3144,2.3336,2.3549,2.3756,2.4135,2.4838,2.5836,2.6842,2.7606,2.82,2.8579,2.8904,2.9097,2.8962,2.8892,2.8839,2.881,2.8737,2.8662,2.8612,2.8587,2.8587,2.8587,2.8562,2.8518,2.8432,2.8327,2.8136,2.7818,2.7642,2.7386,2.6908,2.6792,2.6742,2.6691,2.6691,2.6691,2.6691,2.6691,2.6691,2.6691,2.6691,2.6691,2.6691,2.6775,2.6859,2.6975,2.7186,2.7609,2.8472,2.892,2.9679,3.1007,3.1127,3.1353,3.1821,3.1893,3.1929,3.1965,3.1873,3.18,3.18,3.18,3.1938,3.2231,3.2772,3.3266,3.3674,3.4219,3.4923,0.0,0.0,0.0,0.0,0.0,0.0,0.0,0.0,0.0,0.0,0.0,0.0,0.0,2.0288,2.0284,2.0218,2.0192,2.046,2.1187,2.1233,2.1445,2.2111,2.2839,2.3138,2.2758,2.3371,2.3667,2.336,2.3265,2.3193,2.3102,2.3095,2.3095,2.3095,2.3095,2.3095,2.3095,2.3095,2.3095,2.3095,2.3168,2.3217,2.3217,2.3407,2.3616,2.3858,2.4374,2.5078,2.5906,2.5981,2.685,2.8184,2.8184,2.8629,2.92,2.9132,2.9101,2.9089,2.8975,2.8881,2.8785,2.8662,2.8612,2.8587,2.8587,2.8587,2.8587,2.8587,2.851,2.8362,2.8174,2.7926,2.7612,2.7072,2.6926,2.6876,2.6742,2.6691,2.6691,2.6691,2.6691,2.6691,2.6691,2.6691,2.6691,2.6691,2.6859,2.7007,2.6975,2.7186,2.7696,2.8747,2.973,3.0713,3.1714,3.18,3.1819,3.1894,3.202,3.2144,3.2249,3.1965,3.1819,3.1837,3.1837,3.2199,3.2904,3.2972,3.3519,3.4492,3.46,3.5116,0.0,0.0,0.0,0.0,0.0,0.0,0.0,0.0,0.0,0.0,0.0,0.0,2.039,2.0334,2.0289,2.0216,2.0209,2.0258,2.0429,2.0403,2.0403,2.0494,2.1677,2.2335,2.2052,2.3198,2.3819,2.3481,2.3407,2.3289,2.3119,2.3095,2.3095,2.3095,2.3095,2.3095,2.3095,2.3095,2.3095,2.3095,2.3168,2.3241,2.3289,2.3448,2.3703,2.404,2.4373,2.4692,2.5017,2.5721,2.6191,2.6624,2.783,2.8371,2.8575,2.907,2.923,2.9163,2.9089,2.8975,2.8858,2.8718,2.8637,2.8587,2.8587,2.8587,2.8587,2.8587,2.8536,2.844,2.8309,2.8136,2.7911,2.7465,2.7169,2.6942,2.6742,2.6691,2.6691,2.6691,2.6691,2.6691,2.6691,2.6691,2.6691,2.6691,2.6859,2.6975,2.6925,2.7137,2.7833,2.9196,2.992,3.0713,3.1714,3.18,3.1856,3.2037,3.2197,3.2318,3.2506,3.2301,3.2161,3.2108,3.2037,3.2383,3.3052,3.358,3.4332,3.5275,3.6081,3.6566,0.0,0.0,0.0,0.0,0.0,0.0,0.0,0.0,0.0,0.0,0.0,2.0473,2.0371,2.0321,2.0272,2.0203,2.0208,2.0199,2.0205,2.0162,2.0117,2.0059,2.1043,2.18,2.198,2.2953,2.3601,2.3696,2.3602,2.3481,2.3313,2.3289,2.3289,2.3289,2.3265,2.3241,2.3193,2.3168,2.3144,2.3095,2.3241,2.3383,2.3544,2.3549,2.3732,2.4077,2.4302,2.4479,2.4634,2.5164,2.5625,2.6094,2.6872,2.7435,2.781,2.8166,2.852,2.8815,2.8693,2.8846,2.9044,2.8858,2.8761,2.8687,2.8612,2.8587,2.8587,2.8587,2.8587,2.8536,2.8458,2.8353,2.8164,2.7858,2.7461,2.7137,2.6875,2.6859,2.6825,2.6792,2.6792,2.6792,2.6691,2.6691,2.6691,2.6691,2.6775,2.6892,2.6925,2.7137,2.7592,2.8368,2.9989,3.1231,3.1765,3.191,3.2054,3.2197,3.2438,3.2654,3.2816,3.2816,3.2705,3.2404,3.2266,3.2684,3.3685,3.3947,3.4822,3.6155,3.6798,3.7185,0.0,0.0,0.0,0.0,0.0,0.0,0.0,0.0,0.0,0.0,2.0482,2.0444,2.034,2.0315,2.0308,2.0223,2.0211,2.0222,2.0227,2.0225,2.0192,2.0127,2.0762,2.1441,2.1988,2.2604,2.3118,2.3527,2.3569,2.3512,2.3348,2.3473,2.3544,2.3544,2.3499,2.3412,2.3336,2.3265,2.3193,2.3102,2.336,2.3589,2.3807,2.3732,2.3798,2.4036,2.4229,2.4393,2.4528,2.466,2.512,2.5794,2.5944,2.6414,2.7017,2.7148,2.7619,2.8203,2.8203,2.8608,2.9098,2.8966,2.8881,2.881,2.8662,2.8637,2.8612,2.8612,2.8612,2.8587,2.8587,2.851,2.838,2.8174,2.7829,2.7465,2.7184,2.7105,2.7072,2.6975,2.6909,2.6842,2.6742,2.6691,2.6691,2.6691,2.6725,2.6808,2.6942,2.7154,2.7489,2.8006,3.03,3.18,3.18,3.209,3.2318,3.2369,3.2752,3.3024,3.3178,3.3375,3.331,3.298,3.2716,3.3196,3.4414,3.4415,3.5253,3.693,3.7188,3.7413,0.0,0.0,0.0,0.0,0.0,0.0,0.0,0.0,0.0,0.0,2.0456,2.041,2.039,2.0392,2.0354,2.0295,2.0294,2.028,2.0287,2.0289,2.0249,2.0195,2.0843,2.1327,2.1418,2.2023,2.2345,2.2191,2.2684,2.2921,2.272,2.3392,2.3753,2.3753,2.3689,2.3602,2.3481,2.3407,2.3289,2.3102,2.3491,2.3732,2.3876,2.3999,2.404,2.4097,2.4303,2.4464,2.458,2.4676,2.4782,2.4951,2.5718,2.6075,2.6244,2.6942,2.7279,2.745,2.8073,2.8314,2.8422,2.8894,2.9021,2.8934,2.881,2.8737,2.8687,2.8687,2.8637,2.8587,2.8587,2.8536,2.844,2.821,2.8146,2.8007,2.7672,2.7509,2.7373,2.7198,2.694,2.6742,2.6691,2.6691,2.6691,2.6691,2.6859,2.6892,2.6775,2.7072,2.8299,3.092,3.1558,3.18,3.18,3.2301,3.2654,3.2749,3.3063,3.3339,3.3549,3.3671,3.4,3.452,3.401,3.4125,3.4836,3.534,3.6189,3.7319,3.7578,3.7809,0.9318,1.1677,0.0,0.0,0.0,0.0,0.0,0.0,0.0,2.0408,2.048,2.0445,2.04,2.0399,2.0396,2.0353,2.0354,2.036,2.036,2.032,2.0292,2.0262,2.0537,2.0917,2.1369,2.1602,2.2047,2.2797,2.3079,2.3366,2.3657,2.3989,2.4174,2.4136,2.402,2.3901,2.3735,2.3624,2.3576,2.3553,2.3798,2.402,2.4229,2.4355,2.4302,2.4154,2.4284,2.4426,2.4564,2.466,2.4707,2.4745,2.512,2.5271,2.5308,2.5665,2.6115,2.6566,2.689,2.7586,2.8334,2.853,2.8855,2.9141,2.9012,2.8938,2.8905,2.8815,2.8743,2.8687,2.8612,2.8587,2.8536,2.8458,2.8414,2.8388,2.8255,2.7904,2.7522,2.7244,2.6923,2.6691,2.6691,2.6691,2.6775,2.699,2.8545,2.966,2.9572,2.9695,3.0334,3.1662,3.18,3.18,3.18,3.2606,3.3178,3.3332,3.3426,3.3731,3.4282,3.4431,3.4816,3.5517,3.4702,3.4796,3.5845,3.6096,3.6702,3.7667,3.7995,3.8231,0.9637,1.1231,1.2583,1.5048,0.0,0.0,0.0,0.0,1.9393,0.0,2.0359,2.0477,2.0422,2.0424,2.0434,2.0427,2.041,2.0398,2.0398,2.0366,2.0334,2.0327,2.0327,2.0564,2.117,2.1314,2.1847,2.298,2.341,2.3731,2.3986,2.4189,2.4164,2.3892,2.3759,2.3602,2.3399,2.3202,2.318,2.3318,2.3474,2.3801,2.4241,2.4347,2.4398,2.4442,2.4388,2.4441,2.4561,2.466,2.4707,2.4707,2.4707,2.4707,2.4707,2.4707,2.5102,2.5737,2.6169,2.7093,2.8128,2.8446,2.8909,2.9314,2.9191,2.9141,2.9093,2.8998,2.8881,2.8785,2.8662,2.8612,2.8587,2.8587,2.8587,2.8659,2.8879,2.8411,2.7909,2.767,2.7332,2.6996,2.6742,2.6691,2.7163,2.8526,3.0645,3.2073,3.2073,3.2073,3.2073,3.2073,3.2073,3.2073,3.2073,3.293,3.3549,3.3807,3.3698,3.4036,3.4879,3.499,3.5467,3.6435,3.5684,3.5755,3.6723,3.6888,3.7318,3.8047,3.8373,3.8548,0.8107,0.933,0.0,1.2343,0.0,0.0,0.0,0.0,0.0,1.9334,1.9961,2.0505,2.0495,2.0487,2.0488,2.0483,2.0439,2.041,2.0394,2.0394,2.0388,2.0388,2.0385,2.0415,2.0449,2.1147,2.1584,2.1604,2.3022,2.3514,2.2658,2.3327,2.3373,2.2533,2.2364,2.2204,2.2006,2.1626,2.1514,2.1716,2.1914,2.2555,2.3549,2.3752,2.4269,2.5032,2.4731,2.4623,2.4692,2.4707,2.4707,2.4707,2.4707,2.4707,2.4707,2.4707,2.4726,2.4989,2.6585,2.7186,2.7506,2.897,2.9455,2.9472,2.9314,2.9251,2.9185,2.9112,2.8998,2.8863,2.8718,2.8662,2.8587,2.8587,2.8587,2.8825,2.9645,2.9254,2.8749,2.8804,2.8442,2.7824,2.686,2.6691,2.8047,3.2012,3.2745,3.2852,3.2852,3.2852,3.2852,3.2852,3.2852,3.2852,3.2852,3.3298,3.3643,3.3807,3.3788,3.4147,3.4954,3.499,3.5789,3.7386,3.7367,3.7266,3.7089,3.7838,3.83,3.846,3.8664,3.8822,0.7163,0.8261,0.0,0.0,0.0,0.0,0.0,1.5967,1.7187,1.8882,1.9503,1.9881,2.0409,2.0501,2.0496,2.0496,2.0476,2.0449,2.0456,2.0456,2.0467,2.0468,2.0458,2.0461,2.046,2.0713,2.1337,2.2386,2.2482,2.2786,2.3493,2.3276,2.2946,2.2536,2.2436,2.2273,2.2032,2.181,2.1793,2.1999,2.2103,2.2432,2.2943,2.3618,2.4098,2.44,2.4778,2.4888,2.4827,2.4738,2.4707,2.4707,2.4707,2.4707,2.4707,2.4707,2.4707,2.4876,2.6022,2.6773,2.7392,2.8446,2.9177,2.9626,2.9569,2.9511,2.9433,2.931,2.9222,2.9108,2.8881,2.8785,2.8712,2.8612,2.8587,2.8889,3.0034,2.9225,2.8481,2.9174,2.8169,2.8048,3.0574,3.0982,3.1541,3.3216,3.3484,3.3484,3.3484,3.3484,3.3484,3.3484,3.3484,3.3484,3.3484,3.3625,3.3753,3.3807,3.3807,3.4412,3.5789,3.5844,3.6597,3.823,3.8267,3.8236,3.8144,3.8493,3.8713,3.8773,3.8921,3.9007,0.6203,0.0,0.0,0.0,0.0,0.0,1.2907,0.0,1.5661,1.7455,1.8565,1.937,1.9954,2.0293,2.0501,2.0499,2.0494,2.0492,2.0506,2.0509,2.0506,2.049,2.0516,2.0525,2.0538,2.0801,2.1432,2.2551,2.2347,0.0,2.3282,2.275,2.2241,2.1809,2.1729,2.1609,2.1405,2.1279,2.1306,2.1463,2.1521,2.1795,2.225,2.2908,2.3522,2.4082,2.4541,2.4801,2.4921,2.4808,2.4764,2.4764,2.4764,2.4764,2.4764,2.4764,2.4764,2.4934,2.6061,2.6817,2.7441,2.8534,2.925,2.9682,2.9701,2.9683,2.9607,2.9472,2.939,2.9283,2.9021,2.8881,2.8737,2.8637,2.8587,2.8933,3.0073,2.9383,2.8888,3.0212,2.9247,2.9317,3.2787,3.3393,3.3452,3.3643,3.3753,3.3807,3.3807,3.3807,3.3807,3.3807,3.3807,3.3807,3.3807,3.3807,3.3807,3.3807,3.3807,3.4541,3.6229,3.6303,3.7055,3.867,3.8719,3.8719,3.8719,3.8851,3.891,3.8939,3.9045,3.9101,0.0,0.0,0.0,0.0,0.0,0.0,0.9662,0.0,1.4866,1.5034,1.7128,1.8975,1.9166,1.988,2.0453,2.0485,2.0498,2.0497,2.0497,2.0501,2.0503,2.0505,2.0562,2.0601,2.0602,2.136,2.1863,2.1901,2.2606,2.2666,2.1844,2.1711,2.1217,2.0235,2.0143,2.0079,2.0011,1.995,1.995,2.0011,2.0077,2.0587,2.1471,2.1622,2.261,2.4165,2.4051,2.4396,2.5006,2.4942,2.4915,2.4915,2.4915,2.4915,2.4915,2.4915,2.4915,2.5162,2.683,2.7407,2.7683,2.9278,2.9771,2.9699,2.9701,2.9701,2.9664,2.955,2.9453,2.9351,2.9156,2.8905,2.8694,2.8612,2.8612,2.8851,2.9764,2.9701,3.0044,3.2052,3.1783,3.1711,3.3147,3.3393,3.3393,3.3393,3.3633,3.3807,3.3807,3.3807,3.3807,3.3807,3.3807,3.3807,3.3807,3.3807,3.3807,3.3807,3.3807,3.4541,3.6193,3.6285,3.7055,3.8634,3.8762,3.8792,3.8822,3.8881,3.8939,3.9007,3.9073,3.9101,0.2626,0.0,0.0,0.0,0.0,0.0,0.0,0.0,1.2984,1.4379,1.5818,1.7273,1.872,1.9221,1.9642,2.0321,2.0474,2.0505,2.0505,2.0505,2.0505,2.0504,2.0524,2.0522,2.0539,2.0759,2.1152,0.0,2.144,2.1395,2.1774,2.1137,2.0629,2.0354,2.0235,2.0169,2.0134,2.0079,2.0079,2.0159,2.0215,2.0417,2.0727,2.1407,2.2305,2.3353,2.3908,2.459,2.5283,2.5118,2.5037,2.5037,2.5037,2.5037,2.5037,2.5037,2.5037,2.5284,2.6949,2.7546,2.7794,2.9358,2.9857,2.9825,2.9719,2.9701,2.9683,2.9645,2.9607,2.951,2.9304,2.9044,2.8858,2.8828,2.8705,2.8659,2.8923,2.8899,2.9627,3.2236,3.277,3.2912,3.3334,3.3393,3.3393,3.3393,3.3452,3.3577,3.378,3.3807,3.3807,3.3807,3.3807,3.3807,3.3807,3.3807,3.3807,3.3807,3.3807,3.4266,3.533,3.5973,3.678,3.7808,3.8467,3.8822,3.8862,3.8921,3.8979,3.9007,3.9073,3.9101,0.0,0.0,0.0,0.0,0.0,0.0,0.7946,0.975,1.132,0.0,1.4101,1.5668,1.6877,1.7723,1.8439,1.9021,1.9442,1.988,2.0383,2.0467,2.0467,2.0464,2.0461,2.0458,2.0416,2.0447,2.0662,2.1186,2.0779,2.0722,2.1221,2.0731,2.0439,2.0408,2.0295,2.0238,2.0246,2.0205,2.0203,2.0234,2.0313,2.0354,2.0427,2.0949,2.1852,2.3037,2.3506,2.4387,2.5466,2.5339,2.5225,2.5184,2.5182,2.5182,2.5182,2.5182,2.5182,2.5393,2.6723,2.7388,2.7854,2.9079,2.9703,2.9962,2.9825,2.9773,2.9774,2.9756,2.9645,2.9511,2.937,2.9156,2.8975,2.8952,2.8761,2.8587,2.8587,2.9636,3.111,3.2775,3.3274,3.3393,3.3393,3.3393,3.3393,3.3393,3.3393,3.3509,3.378,3.3807,3.3807,3.3807,3.3807,3.3807,3.3807,3.3807,3.3807,3.3807,3.3807,3.4174,3.4954,3.5495,3.6156,3.6964,3.789,3.8559,3.8979,3.8979,3.9007,3.9036,3.9073,3.9101,0.0792,-0.0493,0.0,0.0,0.0,0.0,0.5924,0.8036,0.9562,0.0,1.1996,1.4025,1.4333,1.5656,1.6769,1.6933,1.7681,1.8714,2.0034,2.0293,2.0366,2.0355,2.0363,2.033,2.0274,2.0337,2.037,2.0386,2.0443,2.0482,2.0506,2.0498,2.047,2.041,2.0357,2.0315,2.0314,2.0306,2.0313,2.0302,2.0373,2.0411,2.0418,2.0478,2.1375,2.2866,2.2974,2.3947,2.5464,2.5499,2.5441,2.5311,2.5322,2.5322,2.5322,2.5322,2.5322,2.5457,2.6304,2.7042,2.7735,2.8638,2.9393,2.9984,2.9934,2.9924,2.9912,2.9825,2.9664,2.9492,2.9433,2.9267,2.9112,2.9026,2.881,2.8696,2.9039,3.1383,3.3393,3.3393,3.3393,3.3393,3.3393,3.3393,3.3393,3.3393,3.3393,3.3509,3.378,3.3807,3.3807,3.3807,3.3807,3.3807,3.3807,3.3807,3.3807,3.3807,3.3807,3.4119,3.4825,3.4935,3.5367,3.6138,3.7163,3.8164,3.9101,3.9036,3.9036,3.9101,3.9101,3.9101,-0.4761,-0.4079,-0.3021,-0.3884,0.0,0.0,0.0893,0.384,0.6503,0.0,0.9322,1.193,1.2819,1.3357,1.3919,1.468,1.5492,1.6726,1.875,1.9643,2.0084,2.0073,2.0084,2.0065,2.0052,2.0123,2.0178,2.0235,2.0351,2.0448,2.0508,2.0507,2.0483,2.0482,2.0419,2.0383,2.038,2.0372,2.0379,2.0381,2.0459,2.0482,2.0483,2.0553,2.1111,2.2069,2.2771,2.3666,2.4676,2.5325,2.5535,2.5464,2.5464,2.5468,2.5468,2.5468,2.5468,2.5575,2.6406,2.6774,2.7123,2.8579,2.9128,2.9309,2.9884,3.0056,3.0034,2.991,2.9755,2.9645,2.9588,2.9412,2.9249,2.9178,2.8863,2.9293,3.1908,3.2958,3.3393,3.3393,3.3393,3.3393,3.3393,3.3393,3.3393,3.3393,3.3393,3.3509,3.378,3.3807,3.3807,3.3807,3.3807,3.3807,3.3807,3.3807,3.3807,3.3807,3.3807,3.3862,3.4027,3.4642,3.5064,3.5247,3.685,3.8164,3.9101,3.9073,3.9073,3.9101,3.9101,3.9101,-0.6313,-0.6279,-0.5797,-0.5403,0.0,0.0,0.0,0.1432,0.2997,0.3133,0.5864,0.8474,0.914,1.0655,1.1969,1.2517,1.3336,1.4425,1.5944,1.7491,1.8623,1.9098,1.9114,1.9092,1.9062,1.9536,1.9926,2.0137,2.0276,2.0381,2.0445,2.0455,2.0463,2.0507,2.0472,2.0441,2.0458,2.0418,2.0424,2.0448,2.0473,2.0517,2.0558,2.0575,2.1051,2.1872,2.2302,2.2982,2.3771,2.4188,2.4585,2.4991,2.5396,2.555,2.555,2.555,2.5524,2.5556,2.5967,2.6351,2.6889,2.8115,2.8767,2.9244,3.0017,3.0207,3.0128,2.9991,2.9842,2.9719,2.9682,2.9493,2.9373,2.9431,2.9134,2.9198,3.0704,3.227,3.3393,3.3393,3.3393,3.3393,3.3393,3.3393,3.3393,3.3393,3.3491,3.3661,3.378,3.3807,3.3807,3.3807,3.3807,3.3807,3.3807,3.3807,3.3807,3.3807,3.3807,3.3807,3.3807,3.4192,3.4642,3.5146,3.6427,3.7572,3.8488,3.8897,3.9101,3.9101,3.9101,3.9101,0.0,0.0,0.0,0.0,0.0,-0.4083,0.0,0.0,0.0,-0.0516,0.2025,0.0,0.0,0.0,0.0,0.8784,0.0,0.0,0.0,1.3541,0.0,1.7625,1.7847,1.7807,1.7753,1.8557,1.9216,1.9544,1.9831,2.0057,2.0136,2.0307,2.0438,2.0498,2.0506,2.0501,2.0503,2.0452,2.0448,2.0492,2.0512,2.056,2.0597,2.0604,2.0976,2.166,2.1836,2.2264,2.2898,2.3226,2.3762,2.4459,2.5099,2.5446,2.5601,2.5601,2.5576,2.5525,2.5499,2.5936,2.6633,2.7605,2.8618,2.9591,3.0232,3.033,3.0194,3.0098,2.994,2.9806,2.9753,2.9608,2.9512,2.9664,2.9411,2.9044,2.8737,3.0712,3.2754,3.3354,3.3481,3.3452,3.3393,3.3393,3.3422,3.3481,3.3643,3.3807,3.3807,3.3807,3.3807,3.3807,3.3807,3.3807,3.3807,3.3815,3.3842,3.3842,3.3842,3.3842,3.3842,3.3842,3.43,3.5299,3.6093,3.697,3.7894,3.8711,3.9101,3.9101,3.9101,3.9101,0.0,0.0,0.0,0.0,-0.8692,0.0,0.0,0.0,-0.3568,-0.4087,0.0,0.0,0.0,0.0,0.0,0.0,0.0,0.0,0.4238,0.6453,1.0033,1.5685,1.6449,1.6516,1.6501,1.6931,1.7318,1.7593,1.845,1.9027,1.9143,1.9939,2.0439,2.0506,2.0504,2.0506,2.0497,2.0497,2.0486,2.0492,2.0555,2.0597,2.0605,2.0601,2.0657,2.0798,2.1562,2.1953,2.2147,2.3641,2.4305,2.4404,2.4438,2.4915,2.5601,2.5601,2.5593,2.5579,2.5518,2.5556,2.5904,2.7473,2.9099,3.0443,3.0472,3.0389,3.0278,3.026,3.0079,2.9891,2.9876,2.9774,2.9664,2.9683,2.9645,2.951,2.9044,2.9222,3.0345,3.3203,3.3753,3.3671,3.3452,3.3393,3.3481,3.3726,3.378,3.3807,3.3807,3.3807,3.3807,3.3807,3.3807,3.3807,3.3807,3.3895,3.3972,3.3972,3.3972,3.3972,3.3972,3.3972,3.4404,3.5299,3.6147,3.7015,3.7894,3.8711,3.9101,3.9101,3.9101,3.9101,0.0,0.0,0.0,0.0,0.0,0.0,-0.7931,0.0,-0.6352,0.0,0.0,0.0,0.0,0.0,0.0,0.0,0.019,0.0,0.0,0.0,0.7196,0.0,0.0,0.0,1.5311,1.5657,1.6,1.6358,1.7298,1.8164,1.8846,1.9805,2.0371,2.0439,2.0483,2.0492,2.0502,2.0505,2.0515,2.0555,2.0596,2.0604,2.0601,2.0552,2.0568,2.0629,2.0951,2.1405,2.1953,2.2654,2.3512,2.4409,2.4378,2.4888,2.5668,2.5668,2.5652,2.5652,2.5586,2.556,2.584,2.7516,2.9218,3.0586,3.0569,3.05,3.0398,3.0323,3.0194,3.0068,2.9975,2.9844,2.9701,2.9701,2.9701,2.9664,2.945,2.9409,2.98,3.1176,3.2962,3.4221,3.4124,3.3972,3.3895,3.4023,3.4023,3.4023,3.4023,3.4023,3.4023,3.4023,3.4023,3.4023,3.4023,3.4255,3.4416,3.4416,3.4321,3.4245,3.4173,3.4148,3.4266,3.4611,3.5932,3.6801,3.7206,3.8469,3.9101,3.9101,3.9101,3.9101,-1.2353,0.0,0.0,0.0,0.0,0.0,0.0,0.0,0.0,0.0,0.0,0.0,0.0,0.0,0.0,0.0,0.0,-0.178,0.0,0.1527,0.0,0.0,0.0,0.0,0.0,1.4071,1.4502,1.4904,1.5929,1.6971,1.8021,1.9277,1.9973,2.0048,2.0327,2.048,2.0494,2.0502,2.0527,2.0566,2.0586,2.0583,2.0568,2.053,2.0526,2.0572,2.0527,2.0891,2.1542,2.2031,2.2949,2.4081,2.4567,2.5131,2.5697,2.5696,2.5691,2.5685,2.5645,2.5769,2.6198,2.7621,2.9082,3.0303,3.0528,3.0569,3.049,3.0394,3.0292,3.0207,3.0094,2.9926,2.9756,2.972,2.9701,2.9701,2.9701,2.9701,2.9851,3.0321,3.2749,3.4728,3.4689,3.452,3.4413,3.448,3.4461,3.4461,3.4461,3.4461,3.4461,3.4461,3.4461,3.4461,3.4461,3.4694,3.4812,3.4713,3.4607,3.4495,3.4404,3.434,3.4269,3.4221,3.5634,3.6384,3.6454,3.8066,3.8848,3.8821,3.9017,3.9101,0.0,0.0,0.0,-1.0248,0.0,0.0,0.0,0.0,-0.9168,0.0,0.0,0.0,0.0,0.0,0.0,0.0,0.0,0.0,0.0,0.0,0.0,0.0,0.0,0.0,0.0,1.1855,1.2568,0.0,1.4098,1.5217,1.6229,1.8045,1.9072,1.914,1.9968,2.0439,2.0493,2.0503,2.0494,2.0505,2.0562,2.0575,2.0492,2.05,2.0497,2.05,2.0497,2.0511,2.0678,2.2379,2.3082,2.3318,2.4997,2.5681,2.5701,2.5703,2.57,2.5707,2.5707,2.6213,2.6998,2.7826,2.8708,2.9588,3.0361,3.0595,3.0588,3.052,3.04,3.0302,3.0286,3.0094,2.9857,2.9738,2.9701,2.9701,2.9701,2.9701,3.0208,3.1883,3.377,3.5038,3.4908,3.487,3.4926,3.5141,3.5157,3.5157,3.5157,3.5157,3.5157,3.5157,3.5157,3.5157,3.5157,3.5193,3.5035,3.4714,3.4689,3.4666,3.4583,3.4602,3.4561,3.4495,3.5364,3.5837,3.5837,3.7435,3.8209,3.8152,3.8803,3.9101,0.0,0.0,-1.1908,-1.0941,0.0,0.0,0.0,0.0,0.0,0.0,0.0,0.0,0.0,0.0,0.0,0.0,0.0,0.0,0.0,0.0,0.0,0.0,0.0,0.0,0.0,0.0,0.0,1.1967,1.3123,0.0,1.6044,1.7957,1.9027,1.9104,1.9953,2.0408,2.0424,2.043,2.0469,2.0509,2.0525,2.0513,2.0508,2.0449,2.0449,2.0508,2.0452,2.0784,2.1444,2.2569,2.3368,2.4011,2.5184,2.5636,2.5642,2.5676,2.5703,2.5703,2.5697,2.6269,2.7105,2.7908,2.8753,2.9609,3.0418,3.0645,3.0595,3.0578,3.05,3.0417,3.0316,3.0207,3.0049,2.9926,2.9809,2.972,2.9757,2.9756,3.0263,3.1958,3.3808,3.511,3.5089,3.5089,3.5124,3.5193,3.5209,3.5209,3.5209,3.5209,3.5209,3.5209,3.5209,3.5209,3.5209,3.5209,3.5141,3.5035,3.502,3.4983,3.487,3.4851,3.4831,3.4771,3.5584,3.6,3.6,3.7043,3.7737,3.8165,3.8357,3.8681,-1.4041,-1.3644,0.0,-1.2198,-1.178,0.0,-1.062,0.0,-1.0718,0.0,0.0,0.0,0.0,0.0,0.0,0.0,0.0,0.0,0.0,-0.2831,0.0,0.0,0.0,0.0,0.0,0.0,1.0263,1.1048,1.2178,0.0,0.0,1.6693,1.7886,1.8556,1.9432,2.0051,2.0396,2.0402,2.0415,2.0465,2.0488,2.05,2.0458,2.0413,2.0413,2.0468,2.0424,2.074,2.1383,2.2527,2.3324,2.3966,2.5138,2.561,2.5615,2.5648,2.567,2.5699,2.5703,2.607,2.6732,2.7864,2.8608,2.9254,3.0383,3.0671,3.0593,3.0606,3.0569,3.0519,3.0406,3.0304,3.0202,3.0123,2.9924,2.9773,2.9827,2.9808,3.0316,3.2014,3.3351,3.4406,3.5045,3.5174,3.5209,3.5209,3.5209,3.5209,3.5209,3.5209,3.5209,3.5209,3.5209,3.5209,3.5209,3.5209,3.5209,3.5209,3.5198,3.5162,3.5069,3.5054,3.5019,3.5019,3.5514,3.578,3.578,3.6518,3.7246,3.7924,3.8145,3.8583]},{"header":{"parameterUnit":"m.s-1","parameterCategory":1,"la1":30.6,"la2":29.2853,"lo1":-89.7004,"lo2":-87.6739,"dy":0.0162,"dx":0.0183,"nx":112,"ny":82,"refTime":"2026-05-11T00:00:00:Z","depth":0,"parameterNumber":3,"parameterNumberName":"V-component_of_WINDS"},"data":[0.0,0.0,0.0,0.0,0.0,0.0,0.0,0.0,0.0,0.0,0.0,0.0,0.0,0.0,0.0,0.0,0.0,0.0,0.0,0.0,0.0,0.0,0.0,0.0,0.0,0.0,0.0,0.0,0.0,0.0,0.0,0.0,0.0,0.0,0.0,0.0,0.0,0.0,0.0,0.0,0.0,0.0,0.0,0.0,0.0,0.0,0.0,0.0,0.0,0.0,0.0,0.0,0.0,0.0,0.0,0.0,0.0,0.0,0.0,0.0,0.0,0.0,0.0,0.0,0.0,0.0,0.0,0.0,0.0,0.0,0.0,0.0,0.0,0.0,0.0,0.0,0.0,0.0,0.0,0.0,0.0,0.0,0.0,0.0,0.0,0.0,0.0,0.0,0.0,0.0,0.0,0.9117,1.0964,1.1675,1.0688,1.0608,0.9735,0.7726,0.0,0.0,0.0,0.0,0.0,0.0,0.0,0.0,0.0,0.0,0.0,0.0,0.0,0.0,0.0,0.0,0.0,0.0,0.0,0.0,0.0,0.0,0.0,0.0,0.0,0.0,0.0,0.0,0.0,0.0,0.0,0.0,0.0,0.0,0.0,0.0,0.0,0.0,0.0,0.0,0.0,0.0,0.0,0.0,0.0,0.0,0.0,0.0,0.0,0.0,0.0,0.0,0.0,0.0,0.0,0.0,0.0,0.0,0.0,0.0,0.0,0.0,0.0,0.0,0.0,0.0,0.0,0.0,0.0,0.0,0.0,0.0,0.0,0.0,0.0,0.0,0.0,0.0,0.0,0.0,0.0,0.0,0.0,0.0,0.0,0.0,0.0,0.0,0.0,0.0,0.0,0.0,0.0,0.0,0.0,0.0,0.0,0.0,0.0,0.0,0.0,0.0,0.0,0.0,0.8225,1.0141,1.1388,1.1675,1.0688,1.0608,0.9735,0.7726,0.0,0.0,0.0,0.0,0.0,0.0,0.0,0.0,0.0,0.0,0.0,0.0,0.0,0.0,0.0,0.0,0.0,0.0,0.0,0.0,0.0,0.0,0.0,0.0,0.0,0.0,0.0,0.0,0.0,0.0,0.0,0.0,0.0,0.0,0.0,0.0,0.0,0.0,0.0,0.0,0.0,0.0,0.0,0.0,0.0,0.0,0.0,0.0,0.0,0.0,0.0,0.0,0.0,0.0,0.0,0.0,0.0,0.0,0.0,0.0,0.0,0.0,0.0,0.0,0.0,0.0,0.0,0.0,0.0,0.0,0.0,0.0,0.0,0.0,0.0,0.0,0.0,0.0,0.0,0.0,0.0,0.0,0.0,0.0,0.0,0.0,0.0,0.0,0.0,0.0,0.0,0.0,0.0,0.0,0.0,0.0,0.0,0.0,0.0,0.0,0.0,0.0,0.0,0.7805,0.9225,1.047,1.1492,1.1675,1.0688,1.0608,0.9735,0.7726,0.6831,0.0,0.0,0.0,0.0,0.0,0.0,0.0,0.0,0.0,0.0,0.0,0.0,0.0,0.0,0.0,0.0,0.0,0.0,0.0,0.0,0.0,0.0,0.0,0.0,0.0,0.0,0.0,0.0,0.0,0.0,0.0,0.0,0.0,0.0,0.0,0.0,0.0,0.0,0.0,0.0,0.0,0.0,0.0,0.0,0.0,0.0,0.0,0.0,0.0,0.0,0.0,0.0,0.0,0.0,0.0,0.0,0.0,0.0,0.0,0.0,0.0,0.0,0.0,0.0,0.0,0.0,0.0,0.0,0.0,0.0,0.0,0.0,0.0,0.0,0.0,0.0,0.0,0.0,0.0,0.0,0.0,0.0,0.0,0.0,0.0,0.0,0.0,0.0,0.0,0.0,0.0,0.0,0.0,0.0,0.0,0.0,0.0,0.0,0.0,0.0,0.0,0.0,0.8962,1.016,1.0562,1.1492,1.1675,1.0688,1.0493,0.9597,0.7715,0.6486,0.0,0.0,0.0,0.0,0.0,0.0,0.0,0.0,0.0,0.0,0.0,0.0,0.0,0.0,0.0,0.0,0.0,0.0,0.0,0.0,0.0,0.0,0.0,0.0,0.0,0.0,0.0,0.0,0.0,0.0,0.0,0.0,0.0,0.0,0.0,0.0,0.0,0.0,0.0,0.0,0.0,0.0,0.0,0.0,0.0,0.0,0.0,0.0,0.0,0.0,0.0,0.0,0.0,0.0,0.0,0.0,0.0,0.0,0.0,0.0,0.0,0.0,0.0,0.0,0.0,0.0,0.0,0.0,0.0,0.0,0.0,0.0,0.0,0.0,0.0,0.0,0.0,0.0,0.0,0.0,0.0,0.0,0.0,0.0,0.0,0.0,0.0,0.0,0.0,0.0,0.0,0.0,0.0,0.0,0.0,0.0,0.0,0.0,0.0,0.0,0.0,0.0,0.9322,1.0562,1.0596,1.1492,1.1675,1.0688,1.0148,0.9207,0.7692,0.6176,0.0,0.0,0.0,0.0,0.0,0.0,0.0,0.0,0.0,0.0,0.0,0.0,0.0,0.0,0.0,0.0,0.0,0.0,0.0,0.0,0.0,0.0,0.0,0.0,0.0,0.0,0.0,0.0,0.0,0.0,0.0,0.0,0.0,0.0,0.0,0.0,0.0,0.0,0.0,0.0,0.0,0.0,0.0,0.0,0.0,0.0,0.0,0.0,0.0,0.0,0.0,0.0,0.0,0.0,0.0,0.0,0.0,0.0,0.0,0.0,0.0,0.0,0.0,0.0,0.0,0.0,0.0,0.0,0.0,0.0,0.0,0.0,0.0,0.0,0.0,0.0,0.0,0.0,0.0,0.0,0.0,0.0,0.0,0.0,0.0,0.0,0.0,0.0,0.0,0.0,0.0,0.0,0.0,0.0,0.0,0.0,0.0,0.0,0.0,0.0,0.0,0.0,0.9345,1.0608,0.0,1.1492,1.1675,1.0688,1.0424,0.9517,0.7715,0.0,0.0,0.0,0.0,0.0,0.0,0.0,0.0,0.0,0.0,0.0,0.0,0.0,0.0,0.0,0.0,0.0,0.0,0.0,0.0,0.0,0.0,0.0,0.0,0.0,0.0,0.0,0.0,0.0,0.0,0.0,0.0,0.0,0.0,0.0,0.0,0.0,0.0,0.0,0.0,0.0,0.0,0.0,0.0,0.0,0.0,0.0,0.0,0.0,0.0,0.0,0.0,0.0,0.0,0.0,0.0,0.0,0.0,0.0,0.0,0.0,0.0,0.0,0.0,0.0,0.0,0.0,0.0,0.0,0.0,0.0,0.0,0.0,0.0,0.0,0.0,0.0,0.0,0.0,0.0,0.0,0.0,0.0,0.0,0.0,0.0,0.0,0.0,0.0,0.0,0.0,0.0,0.0,0.0,0.0,0.0,0.0,0.0,0.0,0.0,0.0,0.0,0.7669,0.9437,1.0665,0.0,1.1583,1.1675,1.0688,1.0447,0.9551,0.7715,0.0,0.0,0.0,0.0,0.0,0.0,0.0,0.0,0.0,0.0,0.0,0.0,0.0,0.0,0.0,0.0,0.0,0.0,0.0,0.0,0.0,0.0,0.0,0.0,0.0,0.0,0.0,0.0,0.0,0.0,0.0,0.0,0.0,0.0,0.0,0.0,0.0,0.0,0.0,0.0,0.0,0.0,0.0,0.0,0.0,0.0,0.0,0.0,0.0,0.0,0.0,0.0,0.0,0.0,0.0,0.0,0.0,0.0,0.0,0.0,0.0,0.0,0.0,0.0,0.0,0.0,0.0,0.0,0.0,0.0,0.0,0.0,0.0,0.0,0.0,0.0,0.0,0.0,0.0,0.0,0.0,0.0,0.0,0.0,0.0,0.0,0.0,0.0,0.0,0.0,0.0,0.0,0.0,0.0,0.0,0.0,0.0,0.0,0.0,0.0,0.0,0.0,0.8094,0.9643,1.0791,1.124,1.1779,1.1675,1.0688,1.0125,0.9173,0.0,0.0,0.0,0.0,0.0,0.0,0.0,0.0,0.0,0.0,0.0,0.0,0.0,0.0,0.0,0.0,0.0,0.0,0.0,0.0,0.0,0.0,0.0,0.0,0.0,0.0,0.0,0.0,0.0,0.0,0.0,0.0,0.0,0.0,0.0,0.0,0.0,0.0,0.0,0.0,0.0,0.0,0.0,0.0,0.0,0.0,0.0,0.0,0.0,0.0,0.0,0.0,0.0,0.0,0.0,0.0,0.0,0.0,0.0,0.0,0.0,0.0,0.0,0.0,0.0,0.0,0.0,0.0,0.0,0.0,0.0,0.0,0.0,0.0,0.0,0.0,0.0,0.0,0.0,0.0,0.0,0.0,0.0,0.0,0.0,0.0,0.0,0.0,0.0,0.0,0.0,0.0,0.0,0.0,0.0,0.0,0.0,0.0,0.0,0.0,0.0,0.0,0.0,0.8094,0.9643,1.0791,1.124,1.1779,1.1813,1.117,1.0654,0.9712,0.8198,0.0,0.0,0.0,0.0,0.0,0.0,0.0,0.0,0.0,0.0,0.0,0.0,0.0,0.0,0.0,0.0,0.0,0.0,0.0,0.0,0.0,0.0,0.0,0.0,0.0,0.0,0.0,0.0,0.0,0.0,0.0,0.0,0.0,0.0,0.0,0.0,0.0,0.0,0.0,0.0,0.0,0.0,0.0,0.0,0.0,0.0,0.0,0.0,0.0,0.0,0.0,0.0,0.0,0.0,0.0,0.0,0.0,0.0,0.0,0.0,0.0,0.0,0.0,0.0,0.0,0.0,0.0,0.0,0.0,0.0,0.0,0.0,0.0,0.0,0.0,0.0,0.0,0.0,0.0,0.0,0.0,0.0,0.0,0.0,0.0,0.0,0.0,0.0,0.0,0.0,0.0,0.0,0.0,0.0,0.0,0.0,0.0,0.0,0.0,0.0,0.0,0.0,0.8381,0.977,1.086,1.1549,1.1893,1.187,1.1331,1.0883,0.9942,0.8392,0.0,0.0,0.0,0.0,0.0,0.0,0.0,0.0,0.0,0.0,0.0,0.0,0.0,0.0,0.0,0.0,0.0,0.0,0.0,0.0,0.0,0.0,0.0,0.0,0.0,0.0,0.0,0.0,0.0,0.0,0.0,0.0,0.0,0.0,0.0,0.0,0.0,0.0,0.0,0.0,0.0,0.0,0.0,0.0,0.0,0.0,0.0,0.0,0.0,0.0,0.0,0.0,0.0,0.0,0.0,0.0,0.0,0.0,0.0,0.0,0.0,0.0,0.0,0.0,0.0,0.0,0.0,0.0,0.0,0.0,0.0,0.0,0.0,0.0,0.0,0.0,0.0,0.0,0.0,0.0,0.0,0.0,0.0,0.0,0.0,0.0,0.0,0.0,0.0,0.0,0.0,0.0,0.0,0.0,0.0,0.0,0.0,0.0,0.0,0.0,0.0,0.0,0.8828,0.9976,1.0987,1.201,1.2113,1.1882,1.1434,1.0906,0.9988,0.8518,0.0,0.0,0.0,0.0,0.0,0.0,0.0,0.0,0.0,0.0,0.0,0.0,0.0,0.0,0.0,0.0,0.0,0.0,0.0,0.0,0.0,0.0,0.0,0.0,0.0,0.0,0.0,0.0,0.0,0.0,0.0,0.0,0.0,0.0,0.0,0.0,0.0,0.0,0.0,0.0,0.0,0.0,0.0,0.0,0.0,0.0,0.0,0.0,0.0,0.0,0.0,0.0,0.0,0.0,0.0,0.0,0.0,0.0,0.0,0.0,0.6437,0.0,0.0,0.0,0.0,0.0,0.0,0.0,0.0,0.0,0.0,0.0,0.0,0.0,0.0,0.0,0.0,0.0,0.0,0.0,0.0,0.0,0.0,0.0,0.0,0.0,0.0,0.0,0.0,0.0,0.0,0.0,0.0,0.0,0.0,0.0,0.0,0.0,0.0,0.0,0.0,0.0,0.8828,0.9976,1.0987,1.201,1.2113,1.2067,1.1928,1.1113,1.0286,0.9529,0.7807,0.0,0.0,0.0,0.0,0.0,0.0,0.0,0.0,0.0,0.0,0.0,0.0,0.0,0.0,0.0,0.0,0.0,0.0,0.0,0.0,0.0,0.0,0.0,0.0,0.0,0.0,0.0,0.0,0.0,0.0,0.0,0.0,0.0,0.0,0.0,0.0,0.0,0.0,0.0,0.0,0.0,0.0,0.0,0.0,0.0,0.0,0.0,0.0,0.0,0.0,0.0,0.0,0.0,0.0,0.0,0.0,0.0,0.0,0.0,0.0,0.7141,0.0,0.0,0.0,0.0,0.0,0.0,0.0,0.0,0.0,0.0,0.0,0.0,0.0,0.0,0.0,0.0,0.0,0.0,0.0,0.0,0.0,0.0,0.0,0.0,0.0,0.0,0.0,0.0,0.0,0.0,0.0,0.0,0.0,0.0,0.0,0.0,0.0,0.0,0.0,0.0,0.9196,1.0321,1.1239,1.2033,1.2113,1.2113,1.2113,1.1388,1.0619,0.985,0.861,0.0,0.0,0.0,0.0,0.0,0.0,0.0,0.0,0.0,0.0,0.0,0.0,0.0,0.0,0.0,0.0,0.0,0.0,0.0,0.0,0.0,0.0,0.0,0.0,0.0,0.0,0.0,0.0,0.0,0.0,0.0,0.0,0.0,0.0,0.0,0.0,0.0,0.0,0.0,0.0,0.0,0.0,0.0,0.0,0.0,0.0,0.0,0.0,0.0,0.0,0.0,0.0,0.0,1.0047,1.0122,0.9633,0.928,0.9357,0.973,0.9383,0.859,0.7506,0.7862,0.0,0.0,0.0,0.0,0.0,0.0,0.0,0.0,0.0,0.0,0.0,0.0,0.0,0.0,0.0,0.0,0.0,0.0,0.0,0.0,0.0,0.0,0.0,0.0,1.0816,1.0504,0.923,0.0,0.0,0.0,0.0,0.0,0.0,0.0,0.0,0.0,0.0,0.0,0.962,1.07,1.1515,1.2056,1.2113,1.2113,1.2113,1.1618,1.0929,0.9999,0.9402,0.8694,0.0,0.0,0.0,0.0,0.0,0.0,0.0,0.0,0.0,0.0,0.0,0.0,0.0,0.0,0.0,0.0,0.0,0.0,0.0,0.0,0.0,0.0,0.0,0.0,0.0,0.0,0.0,0.0,0.0,0.0,0.0,0.0,0.506,0.4571,0.0,0.0,0.0,0.0,0.0,0.0,0.0,0.0,0.0,0.0,0.0,0.0,0.0,0.9379,0.9527,1.1311,1.2003,1.1485,1.2121,1.2313,1.2087,1.1787,1.1849,1.2225,1.2288,0.0,0.8674,0.8729,0.0,0.0,0.0,0.0,0.0,0.0,0.0,0.0,0.0,0.0,0.0,0.0,0.0,0.0,0.0,0.0,0.0,0.0,0.0,0.0,0.0,0.0,1.1802,1.1859,1.1918,1.186,0.0,1.0906,1.0022,0.9069,0.8828,0.0,0.0,0.0,0.0,0.0,0.0,0.0,0.9666,1.07,1.1515,1.2056,1.2113,1.2113,1.2113,1.1618,1.109,1.0539,0.9609,0.8817,0.8244,0.7749,0.0,0.0,0.0,0.0,0.0,0.0,0.0,0.0,0.0,0.0,0.0,0.0,0.0,0.0,0.0,0.0,0.0,0.0,0.0,0.0,0.0,0.0,0.0,0.0,0.0,0.0,0.0,0.0,0.0,0.4996,0.5746,0.5797,0.6452,0.6716,0.0,0.0,0.0,0.0,0.0,0.0,0.0,0.0,0.0,1.1502,1.1693,1.2133,1.2862,1.3648,1.4082,1.4139,1.4011,1.382,1.3641,1.3241,1.3154,1.3336,1.3361,1.2641,1.1306,1.0545,0.9658,0.8683,0.0,0.0,0.0,0.0,0.8166,0.8504,0.8575,0.8729,0.8848,0.8665,0.0,0.0,0.0,0.0,0.0,0.0,0.0,0.0,0.0,0.0,1.2743,1.2821,1.2899,1.2927,1.2927,1.2594,1.1905,0.0,1.0125,0.9632,0.8668,0.0,0.0,0.0,0.0,0.985,1.0562,1.1296,1.1825,1.209,1.2113,1.2113,1.2113,1.187,1.1538,1.1044,1.0363,0.9759,0.9161,0.8429,0.7692,0.0,0.0,0.0,0.0,0.0,0.0,0.0,0.0,0.0,0.0,0.0,0.0,0.0,0.0,0.0,0.0,0.0,0.0,0.0,0.0,0.0,0.0,0.0,0.0,0.0,0.0,0.0,0.0,0.5591,0.6444,0.7096,0.7646,0.798,0.0,0.0,0.0,0.0,0.0,0.0,1.1136,1.1182,1.1825,1.3253,1.373,1.4408,1.5303,1.5349,1.5561,1.5897,1.546,1.5175,1.4945,1.469,1.4582,1.4572,1.4363,1.4088,1.3672,1.2347,1.1278,1.0306,0.9284,0.8495,0.8094,0.9157,0.9891,1.0333,1.0224,1.0205,1.0321,1.0178,0.9695,0.9096,0.8995,0.0,0.0,0.0,0.0,1.0555,1.1551,1.255,1.3328,1.3466,1.3766,1.3948,1.3822,1.3788,1.3386,0.0,1.1434,1.0975,1.0309,0.0,0.0,0.0,0.0,1.0918,1.1251,1.1767,1.2113,1.2113,1.2113,1.2113,1.2113,1.2113,1.1802,1.1148,1.0835,1.0359,0.9643,0.8935,0.8327,0.7784,0.0,0.0,0.0,0.0,0.0,0.0,0.0,0.0,0.0,0.0,0.0,0.0,0.0,0.0,0.0,0.0,0.0,0.0,0.0,0.0,0.0,0.0,0.0,0.0,0.0,0.0,0.0,0.0,0.0,0.8094,0.869,0.0,0.0,0.0,0.0,1.0458,1.0929,1.1664,1.2747,1.2793,1.3276,1.4281,1.4775,1.5292,1.5866,1.6003,1.601,1.5883,1.6329,1.6416,1.6193,1.6493,1.6676,1.6722,1.5918,1.54,1.4945,1.37,1.2895,1.2333,1.1912,1.1404,1.0906,1.118,1.1906,1.259,1.17,1.1645,1.1893,1.1517,1.1095,1.0708,1.0339,0.9934,0.0,0.0,1.0584,1.0989,1.1631,1.2675,1.3631,1.3729,1.4406,1.4901,1.4454,1.435,1.404,0.0,1.2816,1.2433,1.1388,0.0,1.1067,1.0631,1.0942,1.1263,1.1285,1.1767,1.2113,1.2113,1.2113,1.2113,1.2113,1.2113,1.1664,1.07,1.0619,1.016,0.9161,0.9108,0.882,0.8291,0.7278,0.0,0.0,0.0,0.0,0.0,0.0,0.0,0.0,0.0,0.0,0.0,0.0,0.0,0.0,0.0,0.0,0.0,0.0,0.0,0.0,0.0,0.0,0.0,0.0,0.0,0.0,0.0,0.0,0.9184,1.0011,0.0,1.1019,1.1469,1.1859,1.2054,1.2513,1.3099,1.3811,1.4144,1.4637,1.5337,1.6153,1.6658,1.6853,1.7232,1.7375,1.7322,1.7489,1.7546,1.7452,1.7598,1.7645,1.7634,1.719,1.6549,1.5833,1.5135,1.445,1.3756,1.3633,1.3459,1.3262,1.2959,1.3114,1.3314,1.2819,1.2745,1.2791,1.2379,1.219,1.1997,1.1601,1.138,1.1352,1.1844,1.2139,1.2484,1.3204,1.4068,1.4688,1.4588,1.509,1.5475,1.497,1.4855,1.4741,1.4385,1.3776,1.3214,1.2846,1.2777,1.272,1.2548,1.241,1.2318,1.2318,1.2217,1.2113,1.2113,1.2113,1.2113,1.2113,1.2113,1.179,1.1079,1.0801,1.0348,0.9574,0.9308,0.9043,0.8832,0.8116,0.7474,0.0,0.0,0.0,0.0,0.0,0.0,0.0,0.0,0.0,0.0,0.0,0.0,0.0,0.0,0.0,0.0,0.0,0.0,0.0,0.0,0.0,0.0,0.0,0.0,0.0,0.0,0.946,1.0447,1.117,1.1836,1.2562,1.2942,1.323,1.3374,1.3684,1.4086,1.4603,1.5108,1.5613,1.613,1.6945,1.7461,1.7634,1.7912,1.8084,1.8084,1.8084,1.8084,1.8084,1.8084,1.8084,1.7975,1.7645,1.7134,1.6436,1.5874,1.5303,1.4743,1.4565,1.4515,1.4469,1.4093,1.3956,1.391,1.3598,1.3406,1.325,1.2965,1.2874,1.2828,1.2562,1.2489,1.2595,1.2905,1.3094,1.3308,1.3956,1.4651,1.5183,1.515,1.5508,1.5797,1.5452,1.5234,1.5108,1.5108,1.4568,1.4052,1.3891,1.3857,1.3799,1.3615,1.3357,1.3143,1.2942,1.2597,1.2346,1.2125,1.2113,1.2113,1.2113,1.2113,1.179,1.1124,1.0801,1.0348,0.9586,0.9308,0.9135,0.9092,0.8513,0.7733,0.6835,0.0,0.0,0.0,0.0,0.0,0.0,0.0,0.0,0.0,0.0,0.0,0.0,0.0,0.0,0.0,0.0,0.0,0.0,0.0,0.0,0.0,0.0,0.0,0.7749,0.8532,0.9914,1.1895,1.2148,1.2562,1.3535,1.3627,1.3834,1.4373,1.4396,1.4603,1.5108,1.5636,1.6153,1.6635,1.714,1.7645,1.8084,1.8084,1.8084,1.8084,1.8084,1.8084,1.8084,1.8084,1.7975,1.781,1.7412,1.7088,1.6761,1.5941,1.5488,1.5156,1.4684,1.4515,1.4515,1.4515,1.4515,1.4451,1.4047,1.3653,1.3332,1.3332,1.3332,1.3332,1.3332,1.3332,1.3332,1.3332,1.3332,1.3387,1.3685,1.4364,1.5102,1.5362,1.5665,1.5911,1.5923,1.5521,1.5154,1.5142,1.5131,1.4982,1.4499,1.4408,1.4235,1.3719,1.3761,0.0,1.3023,1.2996,1.2776,1.2182,1.2113,1.2113,1.2113,1.2113,1.1664,1.0688,1.0608,1.016,0.9173,0.9115,0.9115,0.9115,0.8383,0.7244,0.5735,0.0,0.0,0.0,0.0,0.0,0.0,0.0,0.0,0.0,0.0,0.0,0.0,0.0,0.0,0.0,0.0,0.0,0.0,0.0,0.0,0.0,0.7874,0.9091,0.886,0.9897,1.1193,1.2539,1.2961,1.357,1.4591,1.4373,1.4373,1.4867,1.458,1.4752,1.5648,1.6141,1.6658,1.7151,1.7668,1.8001,1.8084,1.8084,1.8084,1.8084,1.8084,1.8084,1.8084,1.8084,1.8084,1.803,1.792,1.7579,1.7022,1.6379,1.5806,1.5303,1.4743,1.4515,1.4515,1.4515,1.4515,1.4497,1.4378,1.4268,1.4176,1.4176,1.4176,1.4176,1.4176,1.4176,1.4176,1.4176,1.4176,1.4234,1.4572,1.5172,1.5644,1.5664,1.6166,1.6537,1.6337,1.6204,1.6107,1.5751,1.5693,1.5521,1.5005,1.4913,1.4911,1.4861,1.4685,0.0,1.4358,1.3714,1.3182,1.2941,1.2406,1.2113,1.2113,1.2113,1.1802,1.117,1.0803,1.0481,1.0206,0.9816,0.9609,0.9609,0.8499,0.7501,0.0,0.0,0.0,0.0,0.0,0.0,0.0,0.0,0.0,0.0,0.0,0.0,0.0,0.0,0.0,0.0,0.0,0.0,0.0,0.0,0.0,0.0,0.91,1.0344,1.0261,1.0865,1.1779,1.303,1.3461,1.3956,1.4729,1.4589,1.4531,1.4786,1.4545,1.4821,1.5856,1.6348,1.6853,1.7358,1.7875,1.8084,1.8084,1.8084,1.8084,1.8084,1.8084,1.8084,1.8084,1.8084,1.8084,1.8084,1.8084,1.7755,1.7134,1.6539,1.5911,0.0,0.0,0.0,0.0,0.0,1.4515,1.4515,1.4515,1.4515,1.4515,1.4515,1.4515,1.4515,1.4515,1.4515,1.4515,1.4515,1.4515,1.4565,1.4793,1.5303,1.5698,1.5843,1.6277,1.6702,1.658,1.6559,1.6543,1.6256,1.6038,0.0,1.558,1.5349,1.521,1.5312,1.531,1.5155,1.4771,1.431,1.3765,1.3123,1.2695,1.2355,1.2136,1.2113,0.0,0.0,0.0,1.0814,1.0608,1.0236,0.0,0.0,0.0,0.0,0.0,0.0,0.0,0.0,0.6166,0.6457,0.0,0.0,0.0,0.0,0.0,0.0,0.0,0.0,0.0,0.0,0.0,0.0,0.0,0.0,0.0,0.0,1.0723,1.1659,1.1568,1.1479,1.1928,1.334,1.3674,1.3895,1.4332,1.434,1.4394,1.4416,1.4327,1.4786,1.5936,0.0,0.0,0.0,0.0,1.8084,1.8084,1.8084,1.8084,1.8084,1.8084,1.8084,1.8084,1.8084,1.8084,1.8084,1.8084,1.7755,1.7134,1.6539,1.5911,1.5245,1.4734,1.4515,1.4515,1.4515,1.4515,1.4515,1.4515,0.0,0.0,1.4515,1.4515,1.4515,1.4515,1.4515,1.4515,1.4515,1.4515,1.4565,1.4666,1.5069,1.5468,1.5874,1.6245,1.6601,1.6773,1.6796,1.6722,1.6727,1.6359,1.6086,1.6102,1.5649,1.5345,1.5357,1.5614,1.5568,1.4779,1.4813,1.4423,1.3182,0.0,0.0,1.2159,1.2113,1.1882,1.1434,1.1411,1.1193,1.0711,1.0537,1.0451,1.0353,0.9971,0.9401,0.864,0.879,0.8539,0.7954,0.7834,0.7792,0.0,0.0,0.0,0.0,0.0,0.0,0.0,0.0,0.0,0.0,0.0,0.0,0.0,0.0,0.0,0.966,1.0798,1.1579,1.1399,1.171,1.224,1.3031,1.3294,1.3572,1.4023,1.3761,1.3816,1.4526,1.4055,1.4545,1.6382,1.6566,1.6997,1.7912,1.8038,1.8084,1.8084,1.8084,1.8084,1.8084,0.0,0.0,1.8084,1.8084,1.8084,1.8084,1.8084,1.7755,1.7134,1.6539,1.5633,1.4684,1.4575,1.4515,1.4515,1.4515,1.4515,1.4515,1.4515,1.4515,1.4515,1.4515,1.4515,1.4515,1.4515,1.4515,0.0,1.4515,1.4515,1.4575,1.4852,1.5088,1.5381,1.6066,1.6553,1.6993,1.7401,1.765,1.7672,1.7312,1.7151,1.6841,1.6086,1.5729,1.5603,1.5703,1.5925,1.602,1.5768,1.5241,1.4625,1.3882,1.324,1.2689,1.2159,1.2113,1.2067,1.1964,1.1964,1.171,1.1205,1.0968,1.0798,1.0638,0.9921,0.9325,0.8857,0.9095,0.9086,0.8848,0.8491,0.8474,0.0,0.0,0.0,0.0,0.0,0.0,0.0,0.0,0.0,0.0,0.0,0.8477,0.8829,0.0,1.0107,1.0481,1.1272,1.1803,1.1698,1.1916,1.2309,1.2877,1.3153,1.335,1.3545,1.3486,1.3703,1.4287,1.4275,1.4984,1.6593,1.6926,1.741,1.8061,1.7886,1.776,1.776,1.776,1.776,1.776,1.7958,1.8084,1.8084,1.8084,1.8084,1.8084,1.8084,1.7755,1.7134,1.6208,1.5303,1.4515,1.4515,1.4515,1.4515,1.4515,1.4515,1.4515,1.4515,1.4515,1.4515,1.4515,1.4515,1.4515,1.4515,1.4515,1.4515,1.4515,1.4515,1.4565,1.4784,1.5079,1.543,1.5999,1.6606,1.7168,1.7534,1.7865,1.8015,1.7806,1.7553,1.7191,1.6454,1.6162,1.5899,1.5617,1.5881,1.6001,1.5691,1.5377,1.4924,1.4273,1.3628,1.3069,1.2551,1.2263,1.2113,1.2113,1.2113,1.1998,1.171,1.1462,1.1212,1.0938,1.0365,0.9856,0.9456,0.9526,0.9515,0.94,0.9198,0.9179,0.0,0.0,0.0,0.0,0.0,0.0,0.0,0.0,0.8521,0.8463,0.9202,1.0008,1.035,1.0634,1.0993,1.1422,1.1849,1.2113,1.2113,1.2113,1.2275,1.2701,1.3,1.3101,1.3038,1.3336,1.3715,1.4213,1.4754,1.5572,1.676,1.7284,1.7647,1.7882,1.745,1.7232,1.7232,1.7324,1.7381,1.7381,1.7898,1.8084,1.8084,1.8084,1.8084,1.8084,1.7975,1.7579,1.6955,1.5864,1.502,1.4515,1.4515,1.4515,1.4515,1.4515,1.4515,1.4515,1.4515,1.4515,1.4515,1.4515,1.4515,1.4515,1.4515,1.4515,1.4515,1.4515,1.4515,1.4565,1.4725,1.5069,1.5478,1.5874,1.6595,1.7213,1.7468,1.781,1.8084,1.8084,1.7806,1.7387,1.685,1.6631,1.6267,1.5484,1.5691,1.578,1.539,1.539,1.5147,1.4485,1.4006,1.3501,1.2965,1.2516,1.2217,1.2113,1.2113,1.2113,1.2113,1.1808,1.1511,1.1142,1.0736,1.0361,0.995,0.9907,0.9864,0.9802,0.9916,0.9907,0.8271,0.8356,0.8631,0.856,0.8875,0.9209,0.0,0.0,1.0112,1.0069,1.051,1.1044,1.1462,1.1451,1.156,1.2012,1.2103,1.2113,1.2113,1.2113,1.2136,1.2194,1.2412,1.2663,1.2829,1.3074,1.3686,1.4712,1.5312,1.5984,1.6861,1.7159,1.7286,1.7147,1.6838,1.6704,1.6704,1.7151,1.7381,1.7381,1.7898,1.8084,1.8084,1.8084,1.8084,1.8084,1.7523,1.6955,1.6368,1.569,1.502,1.4515,1.4515,1.4515,1.4515,1.4515,1.4515,1.4515,1.4515,1.4515,1.4515,1.4515,1.4515,1.4515,1.4515,1.4515,1.4515,1.4515,1.4515,1.4575,1.4911,1.5088,1.5381,1.6066,1.6673,1.7123,1.759,1.7931,1.8084,1.8084,1.8038,1.7695,1.6795,1.6825,1.6645,1.5768,1.5647,1.5591,1.5468,1.5289,1.4969,1.4442,1.4339,1.3914,1.2988,1.2862,1.262,1.2136,1.2113,1.2113,1.2113,1.1748,1.133,1.0954,1.0544,1.0137,0.9723,1.0072,1.0247,1.0257,1.0606,1.0579,0.9578,0.9895,0.0,0.0,1.0556,1.081,1.051,1.0876,1.125,1.1231,1.1652,1.2073,1.214,1.2118,1.226,0.0,1.2738,1.2855,1.317,1.2948,1.2749,1.2749,1.2553,1.2473,1.2615,1.2931,1.3601,1.4687,1.5299,1.6108,1.718,1.7243,1.7272,1.7377,1.6596,1.6187,1.621,1.6692,1.6933,1.6945,1.7706,1.8084,1.8096,1.8437,1.8747,1.8965,1.8078,1.7305,1.6705,1.58,1.5153,1.4836,1.4607,1.4653,1.4827,1.4598,1.4515,1.4515,1.4515,1.4515,1.4515,1.4515,1.4515,1.4515,1.4515,1.4515,1.4515,1.4515,1.4515,1.4565,1.4784,1.5079,1.542,1.5941,1.6606,1.7224,1.7523,1.7865,1.8084,1.8084,1.8084,1.7855,1.7186,1.6919,1.6529,1.5916,1.5668,1.5468,1.5289,1.5153,1.4924,1.4442,1.4396,1.4098,1.3351,1.3069,1.2816,1.2597,1.2187,1.1979,1.1932,1.1752,1.1478,1.1074,1.0991,1.0751,1.0413,1.0579,1.0652,1.0662,1.0827,1.0947,1.051,0.0,0.0,1.1429,1.1765,1.2034,1.1616,1.1832,1.2109,1.2109,1.2444,1.2662,1.2579,1.2508,1.2627,1.2945,1.3123,1.3321,1.3721,1.3556,1.3403,1.3403,1.2943,1.2721,1.2936,1.3056,1.3577,1.4649,1.5339,1.6156,1.7176,1.7316,1.7276,1.7123,1.6381,1.5915,1.574,1.6224,1.6486,1.6635,1.7507,1.8081,1.8368,1.8885,1.9321,1.9666,1.8622,1.7793,1.7015,1.6148,1.5527,1.5084,1.4909,1.4946,1.5065,1.4781,1.4607,1.4515,1.4515,1.4515,1.4515,1.4515,1.4515,1.4515,1.4515,1.4515,1.4515,1.4515,1.4515,1.4506,1.4656,1.5001,1.5362,1.5768,1.6492,1.7157,1.7346,1.7755,1.8084,1.8084,1.8084,1.7878,1.7278,1.6864,1.6405,1.5785,1.5487,1.5334,1.5108,1.5108,1.497,1.4626,1.4591,1.4373,1.3857,1.3489,1.3265,1.3076,1.2567,1.22,1.2063,1.1994,1.1727,1.1293,1.1339,1.1186,1.0901,1.1021,1.1076,1.1085,1.1186,1.1407,0.0,0.0,1.1988,1.1988,1.2321,1.2673,1.2661,1.2673,1.2685,1.2685,1.2697,1.2709,1.2709,1.2591,1.2508,1.2532,1.2886,1.3229,1.3203,1.3651,1.3981,1.3981,1.3497,1.3406,0.0,1.3484,1.3588,1.4789,1.5565,1.6138,1.6491,1.7279,1.7108,1.59,1.6125,1.5998,1.5335,1.5835,1.6298,1.6635,1.7151,1.7921,1.8885,1.9424,1.9677,1.9688,1.8988,1.8104,1.7057,1.6795,1.6052,1.5139,1.5505,1.5423,1.5102,1.5084,1.4836,1.4515,1.4515,1.4515,1.4515,1.4515,1.4515,1.4515,1.4515,1.4515,1.4515,1.4515,1.4515,1.4506,1.4656,1.4843,1.5147,1.5624,1.6275,1.6888,1.7134,1.7689,1.8084,1.8084,1.8084,1.7775,1.6768,1.6635,1.6279,1.528,1.5119,1.5108,1.5108,1.5108,1.5096,1.5085,1.5085,1.489,1.4408,1.435,1.4121,1.3604,1.3313,1.3043,1.2772,1.2404,1.1953,1.1509,1.1318,1.1097,1.0901,1.1269,1.1471,1.148,1.1865,1.2098,0.0,0.0,1.2891,1.3618,1.3521,1.3301,1.3301,1.2999,1.2709,1.2709,1.2432,1.2287,1.2649,1.2373,1.2339,1.3034,1.3598,1.4026,1.4332,1.4547,1.4666,1.4666,1.4229,0.0,0.0,0.0,0.0,1.5154,1.5511,1.6023,1.6814,1.6593,1.6365,1.6204,1.5913,1.5657,1.5435,1.6208,1.6622,1.6746,1.7484,1.8426,1.9436,1.9608,2.0056,2.0653,1.9745,1.8884,1.8093,1.7314,1.6724,1.629,1.613,1.6094,1.603,1.5473,1.5133,1.4864,1.4607,1.4515,1.4515,1.4515,1.4515,1.4515,1.4515,1.4515,1.4515,1.4515,1.4515,1.4506,1.4556,1.4625,1.4743,1.5156,1.5874,1.6539,1.6864,1.7534,1.8084,1.8084,1.7863,1.753,1.7186,1.6589,1.5911,1.5211,1.5108,1.5108,1.5108,1.5108,1.5108,1.5108,1.5108,1.5039,1.4878,1.458,1.4316,1.4132,1.3507,1.2973,1.2616,1.2456,1.2183,1.1729,1.1865,1.1864,1.172,1.181,1.1883,1.1883,1.2061,1.2076,1.291,1.3486,1.3913,1.4549,1.4135,1.3605,1.3605,1.3119,1.2579,1.2399,1.2087,1.1895,1.2017,1.1921,1.2029,1.2711,1.3584,1.4301,1.4648,1.5006,1.5289,1.5289,1.4862,1.461,0.0,0.0,0.0,1.5215,1.5306,1.5685,1.6532,1.6242,1.614,1.618,1.6004,1.5792,1.557,1.6268,1.684,1.7175,1.8028,1.8803,1.9529,1.978,2.0297,2.0882,2.0295,1.9624,1.8945,1.83,1.7809,1.7399,1.7132,1.6975,1.6826,1.6147,1.5582,1.5038,1.4653,1.4515,1.4515,1.4515,1.4515,1.4515,1.4515,1.4515,1.4515,1.4515,1.4515,1.4515,1.4515,1.4515,1.4565,1.4921,1.5642,1.6368,1.6751,1.7479,1.8084,1.8084,1.7875,1.753,1.7174,1.6279,1.551,1.5154,1.5108,1.5039,1.4867,1.4855,1.4855,1.4855,1.5005,1.5108,1.5108,1.4821,1.4649,1.4649,1.3992,1.3358,1.2908,1.2757,1.2404,1.193,1.2143,1.2175,1.2076,1.2214,1.2337,1.2337,1.2443,1.2507,1.3367,1.4124,1.4915,1.4849,1.4235,1.3642,1.3642,1.3035,1.233,1.19,1.1676,1.142,0.0,0.0,1.1509,1.1601,1.2906,1.3969,1.4073,1.5066,1.5768,0.0,0.0,0.0,0.0,0.0,0.0,1.5049,0.0,1.5265,1.5768,1.626,1.6308,1.5816,1.6308,1.6344,1.5763,1.623,1.6917,1.7843,1.8709,1.9064,1.9134,1.9966,2.0377,2.0373,2.0549,2.0187,1.9536,1.9619,1.9133,1.8477,1.8537,1.8125,1.7439,1.7005,1.6122,1.5102,1.4708,1.4543,1.4515,1.4515,1.4515,1.4515,1.4515,1.4515,1.4515,1.4515,1.4515,1.4515,1.4515,1.4515,1.4565,1.4921,1.5642,1.6368,1.6751,1.7479,1.8084,1.8084,1.8061,1.7729,1.6761,1.5808,1.5177,1.5154,1.5142,1.497,1.4488,1.4431,1.4431,1.4431,1.4832,1.5108,1.5108,1.5108,1.5108,1.5108,1.4651,1.414,1.3621,1.3162,1.2627,1.2126,1.2076,1.2085,1.2104,1.2531,1.2724,1.2761,1.3103,1.3296,1.4942,1.5476,1.5727,1.609,1.5287,1.4421,1.4369,1.3095,1.1856,1.1761,1.0727,1.0015,0.0,0.0,0.0,1.1295,1.2406,0.0,1.3945,1.4714,0.0,1.5744,0.0,1.5648,1.578,1.5672,0.0,0.0,1.56,1.5648,1.578,1.5924,1.5936,1.5792,1.6308,1.6524,1.638,1.7206,1.7879,1.8425,1.863,1.8861,1.9101,1.9621,1.9863,2.0042,2.0306,2.0193,1.9825,1.9824,1.9596,1.9293,1.9135,1.8772,1.8175,1.7668,1.6965,1.6132,1.5733,1.5142,1.4515,1.4515,1.4515,1.4515,1.4515,1.4515,1.4515,1.4515,1.4515,1.4515,1.4515,1.4515,1.4565,1.4921,1.5642,1.6368,1.6751,1.7479,1.8084,1.8084,1.784,1.7255,1.6256,1.6176,1.6118,1.5751,1.5682,1.5487,1.4993,1.4924,1.4924,1.4924,1.5039,1.5108,1.5108,1.5108,1.5108,1.5108,1.4651,1.414,1.3621,1.3162,1.2627,1.2126,1.2076,1.2273,1.2567,1.2669,1.2828,1.314,1.3241,1.3296,1.5565,1.6087,1.6344,1.6283,1.5464,1.4573,1.4013,1.2709,1.1423,1.0751,0.9811,0.0,0.0,0.0,0.0,0.0,0.0,0.0,1.3674,1.4429,1.5131,0.0,1.5792,0.0,1.5792,1.5792,1.5792,0.0,1.5792,1.5792,1.5792,1.6008,1.614,1.614,1.6644,1.7087,1.7315,1.7816,1.8327,1.8774,1.8732,1.8779,1.8998,1.9391,1.9505,1.9421,0.0,2.027,2.0118,2.0183,2.0248,2.0377,2.0042,1.9573,1.9145,1.8522,1.7718,1.692,1.6496,1.5806,1.5029,1.5029,1.4909,1.4772,1.4772,1.4653,1.4515,1.4515,1.4515,1.4506,1.4556,1.4616,1.4734,1.5205,1.5884,1.6549,1.692,1.759,1.8084,1.8084,1.7725,1.7197,1.6646,1.6589,1.6531,1.6267,1.621,1.6095,1.5808,1.559,1.5452,1.5441,1.5636,1.5682,1.5475,1.5452,1.536,1.5119,1.4651,1.414,1.3621,1.3162,1.2627,1.2126,1.225,1.2494,1.2715,1.302,1.3323,1.3561,1.3736,1.3827,1.5711,1.6379,1.6705,1.5926,1.5226,1.4411,1.3249,1.2133,1.0891,0.9489,0.0,0.8496,0.7965,0.8233,0.8842,0.9783,0.0,1.1875,1.3128,1.411,1.4896,1.5536,1.5712,1.5836,1.5836,1.5792,1.5792,1.5792,1.5792,1.5792,1.5792,1.6296,1.669,1.6834,1.7279,1.7772,1.8301,1.8313,1.849,1.8934,1.8798,1.8744,1.8726,1.9183,1.9126,1.8632,1.9676,2.0105,2.0202,2.0342,2.0771,2.1273,2.0764,2.0377,1.9977,1.933,1.842,1.7432,1.7025,1.6459,1.5835,1.5725,1.5423,1.5102,1.5102,1.4827,1.4515,1.4515,1.4515,1.4506,1.4656,1.4765,1.4951,1.5556,1.6239,1.6797,1.7134,1.7689,1.8084,1.8084,1.7783,1.745,1.7392,1.7071,1.6756,1.6738,1.6784,1.6795,1.6738,1.6302,1.5992,1.6005,1.6359,1.6451,1.6038,1.6003,1.5808,1.5337,1.484,1.437,1.3796,1.3332,1.279,1.2291,1.2623,1.2825,1.2881,1.3534,1.391,1.3974,1.4282,1.4455,1.6411,1.6727,1.6579,1.6033,1.5371,1.455,1.3284,1.1568,0.0,0.0,0.0,0.6912,0.7145,0.7424,0.7844,0.8524,0.0,0.0,0.0,0.0,1.4234,0.0,0.0,0.0,0.0,0.0,0.0,0.0,1.5792,1.5792,1.5792,1.6296,1.7027,1.7905,1.8013,1.8326,1.8855,1.8761,1.8703,1.8667,1.8518,1.8302,1.803,1.8294,1.8086,1.7518,1.8251,0.0,1.9009,1.9465,2.0098,2.0786,2.0529,2.0205,1.9868,1.9341,1.8623,1.7823,1.7483,1.7095,1.6587,1.5909,1.5423,1.5102,1.5102,1.4827,1.4515,1.4515,1.4515,1.4506,1.4656,1.5001,1.5352,1.5758,1.6492,1.7157,1.7412,1.781,1.8084,1.8084,1.8015,1.7875,1.745,1.7656,1.7737,1.7312,1.7611,1.7672,1.7301,1.6807,1.6497,1.6497,1.6566,1.6589,1.6508,1.6497,1.6463,1.6371,1.5853,1.534,1.4769,1.422,1.3652,1.3085,1.3149,1.3341,1.3671,1.3809,1.3999,1.4227,1.43,1.4267,1.5881,1.6321,1.6333,1.5464,1.4972,1.4249,1.2353,0.0,0.0,0.0,0.0,0.635,0.6539,0.0,0.0,0.0,0.0,0.0,0.0,0.0,0.0,0.0,0.0,0.0,0.0,0.0,0.0,0.0,1.576,1.5748,1.5792,1.6548,1.752,1.8578,1.8614,1.8734,1.8987,1.8786,1.856,1.8333,1.8116,1.7843,1.7567,1.7726,1.7488,1.6966,1.7563,1.7947,1.8093,1.8659,1.9285,1.9907,1.9976,1.9706,1.9351,1.8898,1.8167,1.7445,1.7081,1.6741,1.6344,1.5947,1.5624,1.5368,1.5166,1.4827,1.4515,1.4515,1.4515,1.4565,1.4784,1.5186,1.5594,1.5999,1.6729,1.7401,1.759,1.781,1.803,1.8084,1.8084,1.8015,1.7817,1.7924,1.8004,1.7817,1.7989,1.7955,1.7438,1.7163,1.6922,1.6658,1.6853,1.691,1.6596,1.6864,1.6899,1.6646,1.6098,1.5577,1.5008,1.444,1.3873,1.3296,1.3497,1.3699,1.3882,1.4045,1.4196,1.4267,1.4207,1.4079,1.5106,1.5685,1.5831,1.4687,1.4335,1.3627,1.1305,1.0059,0.0,0.0,0.652,0.5993,0.5993,0.0,0.0,0.0,0.0,0.0,0.0,0.0,0.0,0.0,0.0,0.0,0.0,0.0,0.0,0.0,1.5671,1.5855,1.6116,1.6967,1.7905,1.891,1.8946,1.8946,1.8893,1.8614,1.8278,1.7875,1.7667,1.7335,1.7,1.7158,1.6919,1.6536,1.6972,1.7226,1.7318,1.7811,1.8396,1.8912,1.9094,1.8998,1.8585,1.83,1.762,1.6878,1.6583,1.6211,1.5872,1.5843,1.5761,1.5569,1.5256,1.4827,1.4515,1.4515,1.4515,1.4565,1.4911,1.5371,1.5874,1.6389,1.6955,1.7412,1.7579,1.7689,1.7854,1.8084,1.8084,1.8084,1.8084,1.8084,1.8084,1.8084,1.8084,1.7921,1.7289,1.722,1.6979,1.6371,1.6841,1.7043,1.6706,1.7048,1.711,1.6763,1.6265,1.5732,1.5192,1.4621,1.4096,1.3561,1.3855,1.4011,1.402,1.4173,1.4267,1.4207,1.4019,1.3994,1.4563,1.4949,1.4944,1.3969,1.3356,1.2591,1.0775,0.0,0.0,0.7071,0.6053,0.5303,0.5371,0.5725,0.0,0.0,0.0,0.0,0.0,0.0,0.0,0.0,0.0,0.0,0.0,0.0,0.0,1.5153,1.557,1.6212,1.7219,1.7364,1.7855,1.8762,1.8798,1.8691,1.8476,1.8127,1.7733,1.7301,1.7032,1.6694,1.64,1.6269,1.606,1.579,1.5956,1.6246,0.0,1.6829,1.7337,1.7905,1.7947,1.7936,1.7833,1.7522,1.7116,1.6689,1.651,1.6201,1.589,1.5704,1.5529,1.5334,1.5297,1.4948,1.4515,1.4515,1.4515,1.4565,1.4911,1.5584,1.6368,1.6978,1.7112,1.7056,1.7213,1.739,1.7634,1.803,1.8084,1.8084,1.8084,1.8084,1.8084,1.8084,1.8084,1.7729,1.6818,1.6692,1.6325,1.5349,1.601,1.6588,1.6826,1.6833,1.6937,1.7148,1.6781,1.6321,1.5867,1.537,1.4866,1.4396,1.4442,1.4392,1.4273,1.4309,1.4139,1.383,1.383,1.3891,1.3266,1.3728,1.3913,1.3185,1.2628,1.1757,0.9971,0.0,0.7356,0.6381,0.5619,0.5156,0.5175,0.5393,0.5653,0.0,0.6518,0.733,0.8429,0.0,0.0,0.0,0.0,0.0,0.0,0.0,0.0,1.5062,1.5424,1.6013,1.6847,1.7303,1.7711,1.8107,1.8395,1.829,1.7788,1.7512,1.7112,1.6662,1.6389,1.6056,1.5768,1.57,1.5642,1.5536,1.5604,1.5693,0.0,1.6198,1.6527,1.6778,1.7049,1.6999,1.6748,1.6626,1.6223,1.5756,1.5706,1.5584,1.5444,1.5393,1.5276,1.5217,1.5027,1.4745,1.4515,1.4515,1.4515,1.4565,1.4911,1.5652,1.6446,1.6944,1.7123,1.72,1.7179,1.7412,1.77,1.803,1.8084,1.8084,1.8084,1.8084,1.8084,1.8084,1.8084,1.7718,1.6699,1.6623,1.6233,1.5223,1.555,1.5841,1.582,1.5924,1.6007,1.5914,1.5883,1.565,1.5236,1.5119,1.4921,1.4515,1.4396,1.4327,1.4267,1.4079,1.3959,1.395,1.37,1.3847,1.2009,1.2571,1.2913,1.2223,1.1658,1.0794,0.0,0.0,0.6776,0.5802,0.5274,0.4991,0.502,0.5117,0.5303,0.0,0.6005,0.672,0.7871,0.0,0.0,0.0,0.0,0.0,0.0,0.0,1.4477,1.488,1.5142,1.5531,1.6136,1.6705,1.7168,1.7424,1.7728,1.7616,1.706,1.6991,1.6729,1.6332,1.6056,1.5768,1.5478,1.541,1.541,1.541,1.541,1.541,0.0,1.5742,1.5869,1.5898,1.6221,1.6143,1.5869,1.5869,1.5575,1.5215,1.5264,1.5205,1.5215,1.5264,1.5205,1.5156,1.4902,1.4734,1.4625,1.4625,1.4693,1.4803,1.5147,1.5778,1.6343,1.6842,1.7078,1.7256,1.7357,1.7523,1.781,1.8139,1.8139,1.8084,1.8084,1.8084,1.8084,1.8084,1.8084,1.7718,1.6699,1.6623,1.6233,1.5223,1.515,1.5123,1.5001,1.5028,1.5017,1.4831,1.5012,1.4998,1.469,1.4849,1.4793,1.4515,1.4396,1.4327,1.4207,1.395,1.389,1.383,1.3752,1.401,1.0916,1.1601,1.2089,1.1048,1.0355,0.9537,0.0,0.6828,0.5908,0.5488,0.5026,0.4735,0.4783,0.4911,0.501,0.5019,0.5624,0.6307,0.6827,0.8467,0.0,0.0,0.0,0.0,0.0,0.0,1.4104,1.4384,1.4582,0.0,1.5108,1.5485,1.6035,1.67,1.6911,1.6802,1.6299,1.6629,1.6648,1.6374,1.6087,1.5856,1.5672,1.5478,1.541,1.541,1.541,1.541,0.0,1.542,1.542,1.542,1.542,1.542,1.542,1.542,1.5313,1.5215,1.5362,1.5313,1.5215,1.5362,1.5313,1.5215,1.5215,1.5098,1.497,1.497,1.5098,1.5323,1.5758,1.5989,1.6218,1.6719,1.6888,1.7123,1.7611,1.7722,1.7831,1.8302,1.8259,1.8084,1.8084,1.8084,1.8084,1.8084,1.8084,1.7718,1.6699,1.6623,1.6233,1.5223,1.4697,1.4475,1.4697,1.4343,1.4134,1.4198,1.4476,1.4551,1.4439,1.4608,1.4666,1.4515,1.4515,1.4327,1.401,1.401,1.3821,1.3519,1.3913,1.4487,0.8958,0.9471,0.982,0.9453,0.8925,0.8164,0.7071,0.6207,0.5454,0.4726,0.4498,0.4435,0.4455,0.4575,0.4675,0.4733,0.5375,0.0,0.0,0.0,0.0,0.0,0.0,0.0,0.0,0.0,1.3952,1.4222,1.4408,1.4593,1.4812,1.4831,1.5048,1.5526,1.5935,1.5825,1.53,1.5392,1.5314,1.5107,1.531,1.5339,1.5236,1.5476,1.5546,1.541,1.541,1.541,1.541,1.541,1.541,1.541,1.541,1.541,1.541,1.541,1.5362,1.5362,1.541,1.5362,1.5362,1.541,1.5362,1.5362,1.5362,1.5196,1.497,1.497,1.5098,1.5274,1.5672,1.5951,1.6228,1.656,1.6909,1.7312,1.7645,1.7854,1.8073,1.8356,1.8367,1.8259,1.8139,1.8084,1.8084,1.8084,1.8084,1.7844,1.7232,1.714,1.6887,1.621,1.5641,1.499,1.4014,1.3547,1.3125,1.2799,1.3362,1.37,1.3645,1.4255,1.4565,1.4515,1.4387,1.4327,1.4198,1.395,1.39,1.3922,1.4426,1.4867,0.0,0.7782,0.8061,0.7798,0.7453,0.6878,0.5943,0.5399,0.4886,0.4192,0.4089,0.4101,0.4101,0.4183,0.4293,0.4502,0.5138,0.0,0.0,0.0,0.0,0.0,0.0,0.0,0.0,1.3365,1.3658,1.3941,1.4035,1.4129,1.4294,1.4176,1.4221,1.4462,1.4982,1.5035,1.4625,1.4748,1.4724,1.4523,1.4919,1.4962,1.4861,1.5244,1.5371,1.5245,1.5245,1.5245,0.0,1.5245,1.5313,1.5313,1.5245,1.5313,1.5313,1.5245,1.5245,1.5245,1.5245,1.5313,1.5313,1.5313,1.5362,1.541,1.541,1.5303,1.5137,1.5137,1.5196,1.5323,1.5546,1.5826,1.6104,1.6389,1.6853,1.7379,1.7744,1.803,1.8201,1.8218,1.8183,1.7966,1.7663,1.7576,1.7512,1.7512,1.7725,1.7668,1.7151,1.7255,1.7186,1.6681,1.6098,1.534,1.4219,1.3491,1.2916,1.2347,1.2929,1.3296,1.3296,1.4075,1.4515,1.4515,1.4396,1.4327,1.4267,1.4109,1.4126,1.4324,1.4824,1.5128,0.0,0.6401,0.6722,0.6207,0.6001,0.5664,0.4751,0.4433,0.0,0.3844,0.3751,0.3751,0.3772,0.3786,0.3923,0.4303,0.0,0.0,0.0,0.0,0.0,0.0,0.0,0.0,1.2375,1.2882,1.3314,1.3573,1.361,1.3621,1.3621,1.3621,1.3621,1.3621,1.4132,1.4362,1.4252,1.4522,1.4623,1.4465,1.4621,1.4625,1.4467,1.4762,1.4911,0.0,1.4911,1.4911,1.4911,1.4911,1.5029,1.5156,1.5029,1.5029,1.5156,1.497,1.4911,1.4911,1.4911,1.5039,1.5156,1.5215,1.5313,1.541,1.541,1.541,1.541,1.541,1.541,1.541,1.541,1.5642,1.5921,1.6197,1.6719,1.729,1.7941,1.8236,1.8282,1.8064,1.7815,1.7508,1.6981,1.6788,1.6676,1.6688,1.7077,1.7214,1.6694,1.7088,1.7191,1.6683,1.6158,1.5633,1.5101,1.411,1.3279,1.2724,1.3085,1.3323,1.3296,1.4075,1.4515,1.4515,1.4515,1.4465,1.4312,1.4303,1.4443,1.4726,1.506,1.5429,0.3272,0.0,0.5326,0.4983,0.4955,0.483,0.0,0.3931,0.3765,0.0,0.0,0.3366,0.3402,0.3577,0.3815,0.4045,0.0,0.0,0.0,0.0,0.0,0.0,0.0,1.1827,1.2541,1.287,1.316,1.342,1.3515,1.3621,1.3621,1.3621,1.3621,1.3621,1.3724,1.3776,1.3776,1.3636,1.3431,1.3075,1.3518,1.3506,1.3101,1.3714,1.3974,1.3872,1.3872,1.3872,1.3872,1.4121,1.4419,1.4656,1.4715,1.4715,1.4656,1.446,1.4163,1.3872,1.413,1.4419,1.4715,1.5186,1.5362,1.541,1.541,1.541,1.541,1.541,1.541,1.541,1.541,1.5594,1.5778,1.5931,1.6389,1.6853,1.729,1.7733,1.8093,1.8258,1.8342,1.8295,1.8084,1.7848,1.7676,1.7461,1.7443,1.7367,1.7093,1.717,1.7203,1.7082,1.6687,1.6234,1.5731,1.4631,1.3585,1.2733,1.3341,1.3607,1.3305,1.4075,1.4515,1.4515,1.4515,1.4481,1.4542,1.4506,1.4711,1.5095,1.5172,1.5429,0.2276,0.3066,0.3868,0.37,0.3724,0.37,0.3383,0.0,0.0,0.0,0.0,0.0,0.3135,0.0,0.0,0.0,0.0,0.0,0.0,0.0,0.0,0.0,0.0,1.1487,0.0,1.2559,1.2842,1.317,1.3314,1.3467,1.361,1.3621,1.3621,1.3621,1.3621,1.3621,1.3621,1.3314,1.3025,1.2647,1.2941,1.2815,1.2321,1.296,1.3186,1.3067,1.3184,1.326,1.3321,1.3571,1.3941,1.424,1.4172,1.4172,1.424,1.3923,1.3563,1.3321,1.3571,1.4001,1.4478,1.5069,1.5254,1.5254,1.5313,1.5254,1.5245,1.5362,1.541,1.541,1.541,1.5478,1.5604,1.5642,1.5989,1.6389,1.6719,1.7179,1.7611,1.7871,1.8049,1.8084,1.789,1.7607,1.7281,1.6899,1.6938,1.6808,1.6533,1.6648,1.6775,1.6775,1.6503,1.6104,1.57,1.4934,1.4164,1.3304,1.3635,1.3782,1.3571,1.4176,1.4515,1.4515,1.4689,1.4769,1.4738,1.4959,1.5151,1.5359,1.5403,1.56,0.1883,0.2223,0.2568,0.2617,0.2686,0.2722,0.2695,0.0,0.0,0.0,0.0,0.0,0.0,0.0,0.0,0.0,0.0,0.0,0.0,0.0,0.0,0.0,1.0608,0.0,1.1778,1.2076,1.2461,1.2929,1.3074,1.3266,1.3515,1.3515,1.3515,1.3515,1.3515,1.3515,1.3515,1.3314,1.3035,1.2676,1.2633,1.235,1.1788,1.2394,1.2489,1.2305,0.0,0.0,1.2826,1.3025,1.339,1.3761,1.3511,1.3571,1.37,1.3268,1.3017,1.2826,1.3078,1.3571,1.4189,1.4911,1.5029,1.497,1.5088,1.5029,1.5029,1.5177,1.5294,1.5362,1.541,1.541,1.541,1.541,1.5642,1.5931,1.6197,1.6719,1.7114,1.7277,1.7432,1.7577,1.7364,1.6942,1.6537,1.6104,1.6159,1.6102,1.5653,1.5915,1.614,1.614,1.5921,1.5642,1.5352,1.5079,1.4702,1.4059,1.3974,1.3974,1.3974,1.4323,1.4543,1.4607,1.4928,1.5095,1.5097,1.5486,1.5716,1.5599,1.5791,1.5797,0.1357,0.1661,0.2004,0.2297,0.2623,0.281,0.0,0.0,0.0,0.0,0.0,0.0,0.0,0.0,0.0,0.0,0.0,0.0,0.0,0.0,0.0,0.0,0.0,1.0871,1.1669,1.1877,1.2175,1.2715,1.2813,1.2987,1.3266,1.3266,1.3266,1.3266,1.3266,1.3266,1.3266,1.3218,1.3016,1.2628,1.2461,1.1965,1.1239,1.1686,1.1657,1.1324,0.0,1.1802,1.1864,1.2182,1.2474,1.2757,1.285,1.2842,1.2704,1.2536,1.2174,1.1864,1.2458,1.307,1.3692,1.441,1.4656,1.4715,1.4656,1.4656,1.4715,1.4647,1.4893,1.5264,1.5362,1.541,1.541,1.541,1.5594,1.5778,1.5931,1.6343,1.6775,1.7147,1.7478,1.773,1.779,1.7399,1.6972,1.6528,1.6187,1.583,1.5486,1.5477,1.5526,1.5526,1.543,1.5264,1.5088,1.4902,1.4638,1.4414,1.4414,1.4414,1.4414,1.4478,1.4671,1.5001,1.5065,1.5305,1.5846,1.5896,1.5993,1.5974,1.6035,1.5929,0.0954,0.1201,0.1497,0.174,0.2261,0.2676,0.0,0.0,0.0,0.0,0.0,0.0,0.0,0.0,0.0,0.0,0.0,0.0,0.0,0.0,0.8393,0.0,0.0,1.0549,1.1418,1.1628,1.1828,1.2224,1.2372,1.2559,1.2803,1.2803,1.2803,1.2803,1.2803,1.2803,1.2803,1.2803,1.2754,1.2647,1.225,1.1721,1.111,1.1217,1.1161,1.0945,0.0,1.1515,1.1622,1.1872,1.2112,1.2413,1.2428,1.2421,1.2351,1.205,1.1809,1.174,1.2228,1.272,1.3216,1.4001,1.4172,1.4052,1.4172,1.424,1.424,1.4282,1.4715,1.5147,1.5362,1.541,1.541,1.541,1.5478,1.5536,1.5642,1.5931,1.6332,1.6662,1.7011,1.729,1.7501,1.7224,1.6832,1.6275,1.5874,1.5468,1.4961,1.4902,1.4902,1.4902,1.4862,1.4803,1.4743,1.4675,1.4556,1.4515,1.4515,1.4515,1.4515,1.4717,1.4909,1.5093,1.5533,1.5871,1.6178,1.6183,1.6165,1.6202,1.6,1.5867,0.0508,0.0724,0.098,0.1175,0.0,0.0,0.0,0.0,0.0,0.0,0.0,0.0,0.0,0.0,0.0,0.0,0.0,0.0,0.6421,0.703,0.7953,0.9266,0.971,1.0233,1.1116,1.1326,1.1519,1.1828,1.1927,1.2126,1.2372,1.2431,1.2431,1.2431,1.2431,1.2431,1.2431,1.2431,1.248,1.2627,1.2175,1.1678,1.1184,1.1031,1.0903,1.0775,1.1047,1.1323,1.1505,1.1567,1.1858,1.212,1.1996,1.2058,1.212,1.1747,1.1685,1.1809,1.2058,1.2367,1.2736,1.3459,1.3511,1.339,1.3571,1.364,1.3761,1.3983,1.441,1.4961,1.5303,1.541,1.541,1.541,1.541,1.541,1.541,1.5652,1.5931,1.6151,1.6425,1.6708,1.6933,1.6765,1.6436,1.5874,1.5526,1.5137,1.4565,1.4515,1.4515,1.4515,1.4515,1.4515,1.4515,1.4515,1.4552,1.4643,1.4561,1.4552,1.4643,1.4937,1.5194,1.5386,1.6001,1.6291,1.6382,1.6339,1.6342,1.6272,1.6,1.591,-0.0034,0.0239,0.0486,0.0611,0.0,0.0,0.2232,0.0,0.0,0.0,0.0,0.0,0.0,0.0,0.0,0.0,0.0,0.5399,0.5873,0.0,0.7688,0.8718,0.9302,0.9976,1.082,1.1074,1.1267,1.1678,1.1728,1.1828,1.2126,1.2126,1.2126,1.2126,1.2126,1.2126,1.2126,1.2126,1.2274,1.2529,1.2224,1.1877,1.1486,1.1347,1.0995,1.0553,1.0767,1.0981,1.1114,1.1166,1.135,1.1622,1.1622,1.1622,1.1622,1.1622,1.1622,1.1622,1.1622,1.1872,1.2182,1.252,1.2712,1.2797,1.2642,1.2948,1.339,1.3502,1.4052,1.4647,1.5235,1.541,1.541,1.541,1.541,1.541,1.541,1.5546,1.5778,1.5874,1.6046,1.6228,1.6343,1.6161,1.5816,1.5468,1.5196,1.4921,1.4575,1.4515,1.4515,1.4515,1.4515,1.4515,1.4515,1.4515,1.4671,1.5038,1.4717,1.468,1.5038,1.5084,1.546,1.6221,1.6285,1.636,1.6567,1.6594,1.6403,1.6132,1.6061,1.6182,-0.0371,-0.0179,0.0,0.0188,0.0,0.0,0.0,0.0,0.0,0.0,0.0,0.0,0.0,0.0,0.0,0.0,0.4449,0.4919,0.5349,0.6183,0.7128,0.8119,0.8764,0.951,1.0506,1.0769,1.1023,1.1427,1.1469,1.1528,1.1628,1.1628,1.1628,1.1628,1.1628,1.1628,1.1628,1.1628,1.1669,1.1769,1.1828,1.1728,1.1477,1.1217,1.0825,1.0515,1.0512,1.058,1.077,1.077,1.0963,1.131,1.1373,1.1498,1.1622,1.1622,1.1622,1.1622,1.1622,1.1747,1.1934,1.229,1.2359,1.2367,1.2359,1.2605,1.292,1.3268,1.3752,1.4359,1.5177,1.541,1.541,1.541,1.541,1.541,1.541,1.5478,1.5536,1.5584,1.5642,1.57,1.571,1.5642,1.5536,1.5313,1.5205,1.497,1.4666,1.4606,1.4616,1.4506,1.4515,1.4616,1.4854,1.4873,1.5047,1.5441,1.5093,1.5056,1.545,1.5716,1.6001,1.6312,1.656,1.6684,1.676,1.6542,1.6342,1.6202,1.6,1.6057,-0.0623,-0.0474,-0.0317,0.0,0.0,0.0,0.0,0.0,0.0,0.0,0.0,0.0,0.0,0.0,0.0,0.0,0.4168,0.4561,0.5035,0.576,0.662,0.7576,0.829,0.9093,1.0182,1.0506,1.082,1.1276,1.1326,1.1326,1.1326,1.1326,1.1326,1.1326,1.1326,1.1326,1.1326,1.1326,1.1326,1.1326,1.1477,1.1528,1.1427,1.1023,1.0641,1.0333,1.0058,1.0036,1.0134,1.0164,1.0445,1.087,1.1059,1.1247,1.1435,1.156,1.1622,1.1622,1.1622,1.1685,1.1747,1.1988,1.1996,1.1934,1.2058,1.2243,1.2552,1.2956,1.345,1.4061,1.4883,1.5245,1.5362,1.541,1.541,1.541,1.541,1.541,1.541,1.541,1.541,1.541,1.541,1.541,1.5362,1.5215,1.5215,1.5088,1.4715,1.4715,1.4712,1.468,1.4698,1.4854,1.5249,1.5285,1.546,1.5863,1.5634,1.5606,1.5881,1.6166,1.6376,1.6505,1.6771,1.6908,1.683,1.6551,1.6342,1.6202,1.6,1.6125,-0.0844,-0.0611,0.0,0.0,0.0,0.0,0.0,0.0,0.0,0.0,0.0,0.0,0.0,0.0,0.0,0.3911,0.4127,0.439,0.5027,0.5544,0.6238,0.7202,0.7931,0.883,0.9909,1.03,1.0718,1.1276,1.1326,1.1326,1.1326,1.1326,1.1326,1.1326,1.1326,1.1326,1.1326,1.1326,1.1326,1.1326,1.1326,1.1326,1.1276,1.0871,1.0446,0.9969,0.9413,0.9172,0.9085,0.9195,0.9652,1.0301,1.0681,1.0933,1.1122,1.1498,1.1622,1.1622,1.1622,1.1622,1.1622,1.1622,1.1622,1.1622,1.1622,1.1809,1.2182,1.2397,1.3009,1.3631,1.435,1.4843,1.5205,1.5362,1.541,1.541,1.541,1.541,1.541,1.541,1.541,1.541,1.541,1.541,1.5362,1.5215,1.5215,1.5088,1.4775,1.4715,1.4814,1.5056,1.5102,1.5258,1.5661,1.5698,1.5872,1.6294,1.6321,1.6321,1.6321,1.6321,1.6505,1.6899,1.6908,1.683,1.6603,1.6612,1.6403,1.614,1.614,1.6416,-0.1043,-0.0755,0.0,0.0,0.0,0.0,0.0,0.0,0.0,0.0,0.0,0.0,0.0,0.0,0.0,0.3764,0.3958,0.4211,0.4353,0.4911,0.5512,0.6172,0.703,0.8057,0.9327,0.989,1.049,1.1217,1.1326,1.1326,1.1326,1.1326,1.1326,1.1326,1.1326,1.1326,1.1326,1.1326,1.1326,1.1326,1.1326,1.1326,1.1276,1.0871,1.0403,0.9814,0.9309,0.8965,0.877,0.9067,0.9413,0.9699,1.0216,1.0555,1.0737,1.1122,1.131,1.1373,1.1373,1.1498,1.1622,1.1622,1.1622,1.1622,1.1622,1.1747,1.1926,1.229,1.2666,1.3155,1.3941,1.4309,1.4666,1.5245,1.541,1.541,1.541,1.541,1.541,1.541,1.541,1.541,1.541,1.541,1.541,1.5362,1.5362,1.5245,1.497,1.4734,1.4713,1.5056,1.5102,1.5386,1.6074,1.6129,1.6303,1.6707,1.6734,1.6734,1.6734,1.6734,1.6789,1.6908,1.6908,1.6908,1.683,1.6971,1.6893,1.6678,1.6806,1.7058,-0.0734,0.0,0.0,0.0,0.0,0.0,0.0,0.0,0.0,0.0,0.0,0.0,0.0,0.0,0.0,0.3792,0.401,0.4149,0.426,0.4685,0.5167,0.5731,0.6584,0.7589,0.8834,0.9475,1.0182,1.1065,1.1167,1.1226,1.1326,1.1326,1.1326,1.1326,1.1326,1.1326,1.1326,1.1326,1.1326,1.1326,1.1226,1.1226,1.1226,1.082,1.03,0.9658,0.8784,0.8311,0.8146,0.8399,0.8704,0.9027,0.9562,0.9882,1.0161,1.0541,1.073,1.0926,1.1059,1.1247,1.1435,1.156,1.1622,1.1622,1.1622,1.1685,1.174,1.1996,1.2243,1.2674,1.3268,1.3631,1.4181,1.5069,1.5313,1.5362,1.541,1.541,1.541,1.541,1.541,1.541,1.541,1.541,1.541,1.541,1.5303,1.5196,1.5029,1.4684,1.468,1.5139,1.5377,1.578,1.6486,1.6551,1.6583,1.6742,1.6691,1.6621,1.6551,1.6769,1.6908,1.6908,1.6908,1.6982,1.7138,1.7242,1.7225,1.7158,1.7248,1.7412,0.0,0.0,0.0,0.0,0.0,0.0,0.0,0.0,0.0,0.0,0.0,0.0,0.0,0.3123,0.3394,0.3976,0.4108,0.4163,0.4407,0.4659,0.505,0.5615,0.6441,0.7351,0.8396,0.9147,0.9925,1.0769,1.0972,1.1124,1.1267,1.1326,1.1326,1.1326,1.1326,1.1326,1.1326,1.1326,1.1326,1.1326,1.1175,1.1074,1.1074,1.0667,1.0146,0.9458,0.8096,0.7488,0.7367,0.7389,0.7762,0.8348,0.8751,0.9095,0.9488,0.9818,1.0091,1.0301,1.0618,1.087,1.1122,1.1435,1.156,1.1622,1.1622,1.1622,1.1622,1.1622,1.1809,1.2112,1.2397,1.2948,1.3692,1.4852,1.5156,1.5205,1.5362,1.541,1.541,1.541,1.541,1.541,1.541,1.541,1.541,1.541,1.5196,1.497,1.5029,1.4684,1.4726,1.5285,1.5808,1.6331,1.6862,1.6908,1.683,1.6603,1.6403,1.6202,1.5991,1.6551,1.683,1.6839,1.6839,1.7031,1.7495,1.7532,1.7542,1.7574,1.7534,1.7508,0.0,0.0,0.0,0.0,0.0,0.0,0.0,0.0,0.0,0.0,0.0,0.0,0.2684,0.3084,0.3486,0.3884,0.402,0.4076,0.4017,0.4244,0.4523,0.4826,0.5808,0.6775,0.7647,0.8558,0.9503,1.0454,1.0667,1.0922,1.1276,1.1326,1.1326,1.1326,1.1326,1.1326,1.1326,1.1326,1.1326,1.1326,1.1175,1.1023,1.0922,1.0624,0.994,0.8928,0.8037,0.7549,0.7351,0.7375,0.751,0.7697,0.8442,0.8809,0.8941,0.9446,0.9709,0.997,1.0301,1.0618,1.0933,1.124,1.1498,1.1622,1.1622,1.1622,1.1622,1.1622,1.1747,1.1926,1.2236,1.2674,1.3164,1.407,1.4675,1.5088,1.5362,1.541,1.541,1.541,1.541,1.541,1.541,1.541,1.541,1.541,1.5196,1.5029,1.5079,1.4734,1.4799,1.5524,1.5909,1.6331,1.6862,1.6908,1.676,1.6412,1.6053,1.5762,1.5417,1.5842,1.6123,1.6272,1.6412,1.6678,1.7297,1.7761,1.7968,1.7973,1.7891,1.7834,0.0,0.0,0.0,0.0,0.0,0.0,0.0,0.0,0.0,0.0,0.0,0.2152,0.2682,0.3037,0.3347,0.3744,0.3928,0.3972,0.3836,0.4056,0.4276,0.4539,0.5295,0.6097,0.693,0.7847,0.8765,0.9755,1.0079,1.0454,1.0871,1.0922,1.0922,1.0922,1.0972,1.1023,1.1124,1.1175,1.1226,1.1326,1.1023,1.0718,1.036,1.03,0.9769,0.8942,0.8309,0.7836,0.7473,0.7335,0.7287,0.7421,0.7896,0.8127,0.8304,0.8611,0.8856,0.9155,0.9531,0.9932,1.0428,1.0933,1.1185,1.1373,1.156,1.1622,1.1622,1.1622,1.1622,1.1747,1.1934,1.2182,1.2613,1.3139,1.3992,1.4734,1.5128,1.5196,1.5254,1.5313,1.5313,1.5313,1.541,1.541,1.541,1.541,1.5303,1.5137,1.5079,1.4734,1.4671,1.5084,1.5945,1.6606,1.689,1.67,1.6421,1.6053,1.5559,1.5054,1.4697,1.4697,1.4991,1.563,1.5912,1.6474,1.7349,1.7861,1.8127,1.8224,1.7848,1.7538,0.0,0.0,0.0,0.0,0.0,0.0,0.0,0.0,0.0,0.0,0.2062,0.2239,0.2768,0.2946,0.3126,0.352,0.37,0.3748,0.3612,0.384,0.4108,0.4324,0.4793,0.5396,0.615,0.6965,0.7848,0.8796,0.9284,0.9739,1.0273,1.0328,1.036,1.036,1.0462,1.0608,1.082,1.0972,1.1124,1.1267,1.0769,1.0257,0.974,0.9769,0.9555,0.9106,0.858,0.8103,0.7616,0.7246,0.7203,0.7335,0.7378,0.7512,0.7747,0.7785,0.7985,0.8354,0.8757,0.9226,0.9736,1.0471,1.087,1.1059,1.1435,1.1498,1.156,1.156,1.156,1.1622,1.1622,1.1809,1.212,1.2397,1.3199,1.407,1.4606,1.4793,1.4852,1.5029,1.5147,1.5264,1.5362,1.541,1.541,1.541,1.5352,1.5245,1.5088,1.4743,1.4616,1.4891,1.6111,1.6908,1.6908,1.6351,1.585,1.5613,1.484,1.4274,1.3912,1.3484,1.3797,1.4856,1.543,1.6191,1.7252,1.7725,1.8059,1.8112,1.744,1.6952,0.0,0.0,0.0,0.0,0.0,0.0,0.0,0.0,0.0,0.0,0.1925,0.237,0.2684,0.2821,0.2951,0.3078,0.3214,0.3303,0.3258,0.3486,0.3707,0.3788,0.4335,0.4777,0.4994,0.5798,0.6672,0.7479,0.8144,0.8741,0.9353,0.957,0.9718,0.9718,0.9873,1.0079,1.0454,1.0667,1.0922,1.1267,1.0336,0.9769,0.9465,0.9093,0.8928,0.883,0.8427,0.7949,0.7515,0.7192,0.7106,0.7155,0.7314,0.7415,0.7464,0.7725,0.7822,0.7936,0.8516,0.886,0.9166,1.009,1.0491,1.0674,1.1059,1.1247,1.1373,1.1373,1.1498,1.1622,1.1622,1.1747,1.1926,1.2413,1.2605,1.2911,1.3571,1.3941,1.4249,1.4538,1.501,1.5362,1.541,1.541,1.541,1.541,1.5196,1.5137,1.5303,1.4852,1.5047,1.6441,1.678,1.6908,1.6908,1.5842,1.5054,1.4752,1.4034,1.347,1.3046,1.2673,1.2797,1.3511,1.47,1.5642,1.643,1.7141,1.7358,1.7204,1.6535,1.6049,-0.1811,-0.1537,0.0,0.0,0.0,0.0,0.0,0.0,0.0,0.0936,0.1387,0.1834,0.2279,0.246,0.264,0.2815,0.2951,0.3043,0.3043,0.3173,0.335,0.3527,0.376,0.4066,0.4396,0.4888,0.5548,0.6376,0.6946,0.7536,0.8204,0.8436,0.856,0.8666,0.8981,0.9295,0.971,1.0028,1.019,1.0241,0.9555,0.8981,0.8461,0.809,0.8249,0.8672,0.8302,0.7937,0.7568,0.7246,0.7085,0.7095,0.7203,0.7246,0.7257,0.7359,0.7488,0.7618,0.7902,0.8237,0.873,0.9339,0.9725,1.0034,1.0345,1.0604,1.0807,1.0989,1.1178,1.1373,1.156,1.1622,1.1747,1.1934,1.1988,1.205,1.2359,1.3086,1.3872,1.441,1.5001,1.541,1.541,1.541,1.5303,1.4961,1.5579,1.6104,1.6224,1.6039,1.6129,1.6835,1.6908,1.6908,1.6908,1.5204,1.3912,1.3382,1.3251,1.3117,1.2988,1.2702,1.2844,1.3368,1.4109,1.4949,1.5866,1.626,1.6437,1.6281,1.5448,1.4963,-0.2005,-0.1879,-0.1824,-0.1449,0.0,0.0,0.0,0.0,-0.0212,0.0,0.0711,0.1118,0.1652,0.2057,0.2328,0.2553,0.2687,0.2776,0.2776,0.2862,0.2948,0.3129,0.3129,0.3257,0.3543,0.3854,0.4296,0.4989,0.5566,0.6137,0.6765,0.705,0.7272,0.7361,0.7777,0.8242,0.869,0.9257,0.9365,0.9068,0.8544,0.7964,0.7353,0.6924,0.7169,0.7824,0.7865,0.7765,0.7509,0.7246,0.7085,0.7085,0.7085,0.7085,0.7085,0.7085,0.7198,0.7319,0.7442,0.7833,0.8332,0.8765,0.9115,0.9454,0.9767,1.0034,1.0231,1.0555,1.087,1.1122,1.1435,1.156,1.1622,1.1622,1.1622,1.1652,1.1888,1.2873,1.3839,1.4481,1.515,1.5586,1.5439,1.541,1.5212,1.4613,1.553,1.6342,1.6342,1.6342,1.6342,1.6342,1.6342,1.6342,1.6342,1.4489,1.3046,1.2305,1.2599,1.281,1.2954,1.2822,1.2997,1.3532,1.3698,1.4265,1.5305,1.5468,1.5553,1.5372,1.4538,1.4126,-0.2267,-0.2218,0.0,-0.2093,0.0,0.0,0.0,0.0,0.0,-0.0295,0.0044,0.0358,0.0716,0.1567,0.2199,0.2243,0.2284,0.237,0.2504,0.2504,0.2549,0.2549,0.2413,0.2326,0.2194,0.2456,0.2746,0.3036,0.3956,0.4624,0.4816,0.5493,0.5882,0.5932,0.6255,0.6735,0.7417,0.8355,0.8638,0.8173,0.7385,0.6788,0.6365,0.5648,0.5492,0.5837,0.6858,0.7235,0.7139,0.7085,0.7085,0.7085,0.7085,0.7085,0.7085,0.7085,0.709,0.7165,0.7623,0.7795,0.7952,0.8719,0.9005,0.9081,0.9454,0.9646,0.9907,1.0238,1.0555,1.0863,1.124,1.1435,1.1622,1.1622,1.1622,1.1866,1.2737,1.3564,1.4256,1.4755,1.5604,1.6064,1.5508,1.541,1.5228,1.4673,1.4665,1.4713,1.4713,1.4713,1.4713,1.4713,1.4713,1.4713,1.4713,1.3622,1.2746,1.2305,1.2298,1.2513,1.2808,1.2822,1.3026,1.3607,1.3601,1.3933,1.461,1.5,1.4894,1.4475,1.3977,1.3652,-0.2414,-0.2369,0.0,0.0,0.0,0.0,0.0,-0.1854,-0.1428,-0.0948,-0.0596,-0.026,0.0178,0.103,0.1703,0.1703,0.1701,0.1789,0.1925,0.1925,0.2016,0.2196,0.2105,0.188,0.1655,0.1903,0.2149,0.2452,0.296,0.3456,0.3984,0.4419,0.4773,0.5099,0.5438,0.6072,0.6894,0.751,0.7557,0.6936,0.639,0.5854,0.5244,0.4805,0.4793,0.5075,0.572,0.6263,0.6652,0.6977,0.7085,0.7085,0.7085,0.7085,0.7085,0.7085,0.7085,0.7133,0.7462,0.7677,0.7855,0.8359,0.8573,0.8705,0.8829,0.9022,0.921,0.9594,0.9919,1.0308,1.087,1.1122,1.131,1.156,1.1622,1.1966,1.3215,1.3395,1.3738,1.5187,1.5614,1.5388,1.4338,1.4201,1.396,1.3252,1.3105,1.3105,1.3105,1.3105,1.3105,1.3105,1.3105,1.3105,1.3105,1.2739,1.2452,1.2305,1.2305,1.2525,1.3026,1.3046,1.332,1.3915,1.3928,1.4011,1.4261,1.4105,1.3899,1.373,1.3307,1.3052,-0.273,0.0,0.0,0.0,0.0,0.0,-0.2685,0.0,-0.2236,-0.1719,-0.1339,-0.0973,-0.0523,-0.0,0.0537,0.1074,0.1164,0.1208,0.1299,0.1254,0.1299,0.1523,0.1435,0.13,0.1076,0.1272,0.1499,0.1725,0.2053,0.0,0.2859,0.3299,0.3772,0.4289,0.4768,0.5288,0.5986,0.6354,0.6261,0.5701,0.5316,0.4832,0.4375,0.4039,0.4042,0.4355,0.477,0.5441,0.6213,0.6647,0.681,0.681,0.681,0.681,0.681,0.681,0.681,0.6856,0.7105,0.7374,0.761,0.798,0.8249,0.8441,0.8447,0.8582,0.877,0.9081,0.9408,0.9798,1.0491,1.087,1.1247,1.1498,1.1622,1.1911,1.3076,1.3236,1.3702,1.5477,1.6045,1.567,1.3833,1.3492,1.3346,1.2746,1.2452,1.2305,1.2305,1.2305,1.2305,1.2305,1.2305,1.2305,1.2305,1.2305,1.2305,1.2305,1.2305,1.2572,1.3186,1.3213,1.3487,1.4075,1.3997,1.3997,1.3997,1.3568,1.3398,1.3313,1.2875,1.2705,0.0,0.0,0.0,0.0,0.0,0.0,-0.3,0.0,-0.333,-0.2583,-0.2179,-0.1827,-0.1424,-0.1565,-0.1206,0.0358,0.0626,0.0671,0.0671,0.0537,0.0447,0.0358,0.0404,0.045,0.036,0.0559,0.0716,0.0765,0.1185,0.1486,0.148,0.2138,0.284,0.3568,0.4052,0.436,0.4574,0.4836,0.4836,0.4574,0.4085,0.3816,0.3641,0.3183,0.3178,0.3612,0.4079,0.4797,0.5773,0.6046,0.6154,0.6154,0.6154,0.6154,0.6154,0.6154,0.6154,0.6215,0.6627,0.6897,0.7159,0.7777,0.8047,0.8236,0.8447,0.8517,0.8576,0.8894,0.9145,0.9466,1.011,1.0807,1.1303,1.156,1.156,1.1803,1.2405,1.3146,1.409,1.546,1.6899,1.695,1.3985,1.3492,1.3492,1.3492,1.2826,1.2305,1.2305,1.2305,1.2305,1.2305,1.2305,1.2305,1.2305,1.2305,1.2305,1.2305,1.2305,1.2572,1.3173,1.3206,1.3487,1.4062,1.3822,1.3737,1.3652,1.3483,1.3313,1.3052,1.279,1.2705,-0.393,0.0,0.0,0.0,0.0,0.0,0.0,0.0,-0.4219,-0.3685,-0.3362,-0.3046,-0.2506,-0.2275,-0.2021,-0.1421,-0.076,-0.0313,-0.0313,-0.0358,-0.0358,-0.0403,-0.0358,-0.0448,-0.0583,-0.0362,-0.0046,0.0,0.0468,0.07,0.0998,0.1989,0.267,0.2951,0.3568,0.3921,0.4096,0.436,0.4268,0.3873,0.3565,0.3188,0.2821,0.2581,0.264,0.2919,0.3201,0.3675,0.4288,0.5167,0.555,0.555,0.555,0.555,0.555,0.555,0.555,0.5605,0.6036,0.6233,0.6545,0.7388,0.7722,0.7922,0.8382,0.8517,0.8511,0.8641,0.877,0.9092,0.9734,1.0428,1.0933,1.1066,1.138,1.1652,1.1833,1.2044,1.2729,1.4606,1.4848,1.4482,1.3637,1.3492,1.3492,1.3492,1.3346,1.2973,1.2378,1.2305,1.2305,1.2305,1.2305,1.2305,1.2305,1.2305,1.2305,1.2305,1.2305,1.2472,1.2859,1.3093,1.3387,1.3761,1.3717,1.3652,1.3476,1.3307,1.3137,1.3052,1.279,1.2705,0.0,0.0,0.0,0.0,0.0,0.0,-0.4518,-0.4782,-0.4922,0.0,-0.4379,-0.4162,-0.3549,-0.3405,-0.3293,-0.3013,-0.256,-0.2002,-0.1381,-0.1297,-0.1297,-0.1341,-0.1386,-0.1431,-0.1472,-0.1295,-0.0947,-0.0462,-0.0272,0.009,0.0648,0.145,0.2103,0.2551,0.3078,0.3432,0.3615,0.3836,0.3744,0.3341,0.3217,0.2951,0.2553,0.2294,0.2297,0.2421,0.2626,0.2832,0.3183,0.407,0.4618,0.4838,0.4952,0.4952,0.4952,0.4952,0.4952,0.4993,0.5315,0.5572,0.5921,0.6713,0.7131,0.747,0.7922,0.8117,0.8187,0.8252,0.8571,0.9022,0.9472,1.011,1.0618,1.0681,1.1185,1.1622,1.1622,1.2049,1.2728,1.3912,1.3783,1.3492,1.3492,1.3492,1.3492,1.3492,1.3492,1.32,1.2378,1.2305,1.2305,1.2305,1.2305,1.2305,1.2305,1.2305,1.2305,1.2305,1.2305,1.2438,1.2808,1.2919,1.316,1.3454,1.3417,1.3277,1.3137,1.3137,1.3052,1.2966,1.279,1.2705,-0.5549,-0.5368,0.0,0.0,0.0,0.0,-0.5241,-0.5446,-0.5548,0.0,-0.5278,-0.5209,-0.4554,-0.4637,-0.4651,-0.434,-0.4408,-0.402,-0.2549,-0.2357,-0.241,-0.2499,-0.2591,-0.2541,-0.2355,-0.2317,-0.2006,-0.1336,-0.1027,-0.0492,0.0268,0.0626,0.1252,0.219,0.2635,0.2946,0.3081,0.3262,0.3217,0.2898,0.2954,0.2823,0.2462,0.2107,0.1964,0.195,0.206,0.2148,0.2284,0.2905,0.3519,0.4122,0.4294,0.4408,0.4408,0.4408,0.4408,0.4432,0.4579,0.489,0.5328,0.5892,0.6382,0.6785,0.7256,0.7461,0.7666,0.7922,0.8436,0.9017,0.921,0.9722,1.0238,1.0421,1.1059,1.1667,1.1806,1.268,1.3492,1.3492,1.3492,1.3492,1.3492,1.3492,1.3492,1.3492,1.3492,1.32,1.2378,1.2305,1.2305,1.2305,1.2305,1.2305,1.2305,1.2305,1.2305,1.2305,1.2305,1.2418,1.2761,1.2802,1.2872,1.3153,1.3069,1.2862,1.2705,1.2966,1.2966,1.2705,1.2705,1.2705,-0.6895,-0.6433,-0.5804,-0.637,0.0,0.0,-0.589,-0.6328,-0.6617,0.0,-0.6228,-0.6013,-0.5441,-0.5261,-0.5101,-0.4876,-0.5034,-0.4875,-0.3943,-0.3863,-0.3949,-0.3902,-0.3949,-0.3946,-0.3807,-0.3639,-0.3196,-0.235,-0.2004,-0.1564,-0.0895,-0.0224,0.0447,0.1029,0.2101,0.2593,0.2457,0.2818,0.2773,0.2277,0.2286,0.2062,0.1612,0.1167,0.0968,0.0964,0.0994,0.1085,0.1239,0.1826,0.2571,0.3352,0.3635,0.3749,0.3749,0.3749,0.3749,0.3822,0.3946,0.4121,0.4417,0.5168,0.553,0.583,0.642,0.6732,0.7003,0.7596,0.8182,0.8641,0.8835,0.9274,0.9716,1.0047,1.0863,1.1909,1.2892,1.3316,1.3492,1.3492,1.3492,1.3492,1.3492,1.3492,1.3492,1.3492,1.3492,1.32,1.2378,1.2305,1.2305,1.2305,1.2305,1.2305,1.2305,1.2305,1.2305,1.2305,1.2305,1.2325,1.2385,1.2694,1.2849,1.2916,1.2959,1.2862,1.2705,1.279,1.279,1.2705,1.2705,1.2705,-0.7831,-0.7352,-0.6787,-0.7105,0.0,0.0,0.0,-0.6664,-0.6811,-0.6642,-0.6599,-0.6473,-0.6078,-0.5997,-0.5935,-0.5737,-0.5868,-0.5902,-0.5646,-0.5181,-0.4903,-0.4939,-0.5032,-0.5116,-0.5152,-0.4962,-0.4418,-0.3325,-0.2804,-0.2277,-0.1834,-0.1162,-0.0491,0.0134,0.1207,0.1878,0.2105,0.2462,0.2417,0.2014,0.2333,0.2111,0.1393,0.0674,0.0367,0.0334,0.0341,0.0552,0.0934,0.1215,0.1773,0.2516,0.295,0.3137,0.3137,0.3137,0.319,0.3251,0.3419,0.3645,0.4019,0.4642,0.5008,0.5222,0.5767,0.6214,0.6679,0.7269,0.7857,0.8312,0.8441,0.8947,0.9332,0.928,1.0174,1.1354,1.2327,1.3038,1.3492,1.3492,1.3492,1.3492,1.3492,1.3492,1.3492,1.3492,1.3193,1.2753,1.2378,1.2305,1.2305,1.2305,1.2305,1.2305,1.2305,1.2305,1.2305,1.2305,1.2305,1.2305,1.2305,1.2445,1.2523,1.2446,1.2632,1.2663,1.2506,1.2638,1.2705,1.2705,1.2705,1.2705,0.0,0.0,0.0,0.0,0.0,-0.7002,0.0,0.0,0.0,-0.6738,-0.6835,0.0,0.0,0.0,0.0,-0.6679,0.0,0.0,0.0,-0.6314,0.0,-0.5983,-0.6058,-0.6175,-0.633,-0.6029,-0.5329,-0.4154,-0.3497,-0.2953,-0.2517,-0.2045,-0.1429,-0.0626,0.0268,0.103,0.1614,0.1969,0.2014,0.1748,0.2337,0.207,0.1079,0.027,-0.0092,-0.0095,-0.0,0.0291,0.075,0.0862,0.1141,0.1603,0.2417,0.2674,0.2691,0.2691,0.2745,0.2852,0.3074,0.3357,0.3743,0.4249,0.4597,0.4819,0.5127,0.569,0.628,0.6811,0.7396,0.7917,0.8042,0.856,0.8952,0.8576,0.9344,1.0428,1.1247,1.2253,1.2985,1.3222,1.3273,1.3346,1.3492,1.3492,1.3419,1.3273,1.2746,1.2305,1.2305,1.2305,1.2305,1.2305,1.2305,1.2305,1.2305,1.2224,1.215,1.215,1.215,1.215,1.215,1.215,1.2146,1.2068,1.234,1.237,1.2312,1.2578,1.2705,1.2705,1.2705,1.2705,0.0,0.0,0.0,0.0,-0.786,0.0,0.0,0.0,-0.6818,-0.7225,0.0,0.0,0.0,0.0,0.0,0.0,0.0,0.0,-0.7341,-0.7199,-0.7157,-0.7356,-0.7281,-0.7224,-0.726,-0.6415,-0.5544,-0.4673,-0.4217,-0.3655,-0.2989,-0.2669,-0.2103,-0.1299,-0.0403,0.0268,0.0671,0.1119,0.1298,0.1208,0.1437,0.1079,0.0135,-0.0405,-0.0541,-0.0363,-0.0094,0.0096,0.0242,0.0722,0.0743,0.0692,0.2138,0.2674,0.2691,0.2691,0.2577,0.2519,0.3077,0.3251,0.3295,0.38,0.4154,0.4414,0.4622,0.5017,0.5543,0.5951,0.6806,0.7591,0.7727,0.8187,0.8576,0.8511,0.8641,0.9092,1.0428,1.0853,1.1195,1.2249,1.2452,1.2673,1.3346,1.3492,1.3273,1.2526,1.2378,1.2305,1.2305,1.2305,1.2305,1.2305,1.2305,1.2305,1.2305,1.2003,1.1781,1.1781,1.1781,1.1781,1.1781,1.1781,1.1846,1.2068,1.2182,1.2295,1.2312,1.2578,1.2705,1.2705,1.2705,1.2705,0.0,0.0,0.0,0.0,0.0,0.0,-0.6834,0.0,-0.6842,0.0,0.0,0.0,0.0,0.0,0.0,0.0,-0.7263,0.0,0.0,0.0,-0.7387,0.0,0.0,0.0,-0.7592,-0.6849,-0.6062,-0.5276,-0.4716,-0.4152,-0.3663,-0.3181,-0.2682,-0.2103,-0.1343,-0.0805,-0.0492,0.0313,0.0716,0.0673,0.0629,0.0225,-0.045,-0.1482,-0.1528,-0.081,-0.0503,-0.0234,0.0048,0.0297,0.041,0.0479,0.1331,0.1631,0.1682,0.1682,0.1625,0.1625,0.2238,0.2517,0.2659,0.3318,0.3717,0.4095,0.4364,0.4694,0.5087,0.562,0.628,0.6942,0.7335,0.7927,0.8517,0.8517,0.8517,0.8646,0.9285,0.9414,0.9539,0.998,1.0551,1.1037,1.1335,1.1781,1.2003,1.1632,1.1632,1.1632,1.1632,1.1632,1.1632,1.1632,1.1632,1.1632,1.1632,1.0801,1.0276,1.0276,1.0657,1.0962,1.1186,1.126,1.1465,1.1665,1.2023,1.2135,1.2089,1.2499,1.2705,1.2705,1.2705,1.2705,-0.9695,0.0,0.0,0.0,0.0,0.0,0.0,0.0,0.0,0.0,0.0,0.0,0.0,0.0,0.0,0.0,0.0,-0.6822,0.0,-0.7263,0.0,0.0,0.0,0.0,0.0,-0.7015,-0.6419,-0.5647,-0.4946,-0.4428,-0.4078,-0.3486,-0.2985,-0.2595,-0.2047,-0.1657,-0.1478,-0.0492,0.009,0.0179,-0.0,-0.0359,-0.0853,-0.1977,-0.2022,-0.1168,-0.0896,-0.0547,-0.0141,-0.0096,0.0,0.021,0.0429,0.0548,0.0561,0.0617,0.0785,0.0953,0.14,0.1915,0.2407,0.2903,0.3378,0.3855,0.4087,0.4364,0.4761,0.5223,0.5683,0.6214,0.6741,0.7531,0.8252,0.8452,0.8517,0.8517,0.8517,0.8517,0.8489,0.8551,0.9005,0.9468,0.9539,1.0062,1.0357,1.0132,1.0126,1.0126,1.0126,1.0126,1.0126,1.0126,1.0126,1.0126,1.0126,0.9296,0.8922,0.9301,0.976,1.0218,1.0519,1.0663,1.0887,1.1037,1.1492,1.1647,1.1494,1.2094,1.2342,1.2427,1.2583,1.2705,0.0,0.0,0.0,-0.8448,0.0,0.0,0.0,0.0,-0.7424,0.0,0.0,0.0,0.0,0.0,0.0,0.0,0.0,0.0,0.0,0.0,0.0,0.0,0.0,0.0,0.0,-0.681,-0.6438,0.0,-0.4889,-0.4327,-0.3934,-0.3385,-0.2935,-0.2605,-0.2275,-0.2103,-0.2154,-0.1344,-0.076,-0.0358,-0.0404,-0.0674,-0.1208,-0.1389,-0.1433,-0.1389,-0.1119,-0.0806,-0.0496,-0.0391,-0.0403,-0.0356,-0.0382,-0.0336,-0.0336,-0.0056,0.0393,0.0898,0.0898,0.1718,0.2659,0.2618,0.3207,0.3895,0.3862,0.4028,0.4367,0.4561,0.4951,0.5411,0.5818,0.6741,0.7722,0.8317,0.8517,0.8517,0.8517,0.8517,0.852,0.8618,0.8342,0.825,0.8703,0.8775,0.8546,0.771,0.7633,0.7633,0.7633,0.7633,0.7633,0.7633,0.7633,0.7633,0.7633,0.7561,0.8089,0.9221,0.9539,0.9695,0.9916,0.9922,0.9992,1.0218,1.0308,1.0361,1.0361,1.1089,1.15,1.1755,1.2421,1.2705,0.0,0.0,-0.9345,-0.8742,0.0,0.0,0.0,0.0,0.0,0.0,0.0,0.0,0.0,0.0,0.0,0.0,0.0,0.0,0.0,0.0,0.0,0.0,0.0,0.0,0.0,0.0,0.0,-0.5485,-0.4776,0.0,-0.4112,-0.3531,-0.3099,-0.2855,-0.2715,-0.2551,-0.2417,-0.2192,-0.1791,-0.1254,-0.13,-0.1479,-0.1794,-0.2194,-0.2194,-0.1794,-0.1969,-0.1773,-0.1312,-0.1479,-0.1532,-0.1574,-0.1595,-0.1568,-0.1456,-0.0616,-0.0112,0.0168,0.0561,0.1032,0.1539,0.1524,0.2074,0.2851,0.3197,0.3627,0.4028,0.4298,0.4694,0.509,0.555,0.6214,0.6937,0.7531,0.8057,0.8452,0.8322,0.8252,0.8251,0.8563,0.8351,0.8025,0.794,0.794,0.7787,0.7561,0.7484,0.7484,0.7484,0.7484,0.7484,0.7484,0.7484,0.7484,0.7484,0.7484,0.771,0.8089,0.8327,0.8479,0.8694,0.8851,0.9008,0.9236,0.9369,0.9478,0.9478,1.0186,1.0821,1.1305,1.1819,1.2289,-1.0248,-1.0096,0.0,-0.9192,-0.8999,0.0,-0.8297,0.0,-0.8298,0.0,0.0,0.0,0.0,0.0,0.0,0.0,0.0,0.0,0.0,-0.7008,0.0,0.0,0.0,0.0,0.0,0.0,-0.6166,-0.5418,-0.4736,0.0,0.0,-0.3663,-0.3275,-0.3189,-0.3034,-0.2863,-0.264,-0.2595,-0.2326,-0.1835,-0.1792,-0.1884,-0.2105,-0.2506,-0.2506,-0.2196,-0.2417,-0.2226,-0.1871,-0.202,-0.2092,-0.2149,-0.2199,-0.2184,-0.2128,-0.1344,-0.084,-0.0449,0.0168,0.0455,0.0583,0.0608,0.1187,0.1917,0.2525,0.3224,0.3892,0.4097,0.4364,0.4697,0.5156,0.5617,0.6145,0.6609,0.7461,0.8117,0.7992,0.7987,0.8052,0.8354,0.8084,0.7864,0.7689,0.7557,0.7484,0.7484,0.7484,0.7484,0.7484,0.7484,0.7484,0.7484,0.7484,0.7484,0.7484,0.7484,0.7484,0.7484,0.7723,0.7795,0.7855,0.8093,0.8246,0.8246,0.8444,0.8507,0.8507,0.919,0.9806,1.0517,1.1028,1.1612]}]]